[[{"header":{"parameterUnit":"m.s-1","parameterCategory":1,"la1":30.6,"la2":29.2853,"lo1":-89.7004,"lo2":-87.6739,"dy":0.0162,"dx":0.0183,"nx":112,"ny":82,"refTime":"2023-07-12T06:00:00:Z","depth":0,"parameterNumber":2,"parameterNumberName":"U-component_of_WINDS"},"data":[0.0,0.0,0.0,0.0,0.0,0.0,0.0,0.0,0.0,0.0,0.0,0.0,0.0,0.0,0.0,0.0,0.0,0.0,0.0,0.0,0.0,0.0,0.0,0.0,0.0,0.0,0.0,0.0,0.0,0.0,0.0,0.0,0.0,0.0,0.0,0.0,0.0,0.0,0.0,0.0,0.0,0.0,0.0,0.0,0.0,0.0,0.0,0.0,0.0,0.0,0.0,0.0,0.0,0.0,0.0,0.0,0.0,0.0,0.0,0.0,0.0,0.0,0.0,0.0,0.0,0.0,0.0,0.0,0.0,0.0,0.0,0.0,0.0,0.0,0.0,0.0,0.0,0.0,0.0,0.0,0.0,0.0,0.0,0.0,0.0,0.0,0.0,0.0,0.0,0.0,-2.7229,-3.308,-3.8008,-4.0805,-4.0687,-3.9493,-3.7424,-3.4468,0.0,0.0,0.0,0.0,0.0,0.0,0.0,0.0,0.0,0.0,0.0,0.0,0.0,0.0,0.0,0.0,0.0,0.0,0.0,0.0,0.0,0.0,0.0,0.0,0.0,0.0,0.0,0.0,0.0,0.0,0.0,0.0,0.0,0.0,0.0,0.0,0.0,0.0,0.0,0.0,0.0,0.0,0.0,0.0,0.0,0.0,0.0,0.0,0.0,0.0,0.0,0.0,0.0,0.0,0.0,0.0,0.0,0.0,0.0,0.0,0.0,0.0,0.0,0.0,0.0,0.0,0.0,0.0,0.0,0.0,0.0,0.0,0.0,0.0,0.0,0.0,0.0,0.0,0.0,0.0,0.0,0.0,0.0,0.0,0.0,0.0,0.0,0.0,0.0,0.0,0.0,0.0,0.0,0.0,0.0,0.0,0.0,0.0,0.0,0.0,0.0,0.0,0.0,0.0,-2.8363,-3.4754,-3.7763,-3.9277,-3.9242,-3.8472,-3.6715,-3.3713,0.0,0.0,0.0,0.0,0.0,0.0,0.0,0.0,0.0,0.0,0.0,0.0,0.0,0.0,0.0,0.0,0.0,0.0,0.0,0.0,0.0,0.0,0.0,0.0,0.0,0.0,0.0,0.0,0.0,0.0,0.0,0.0,0.0,0.0,0.0,0.0,0.0,0.0,0.0,0.0,0.0,0.0,0.0,0.0,0.0,0.0,0.0,0.0,0.0,0.0,0.0,0.0,0.0,0.0,0.0,0.0,0.0,0.0,0.0,0.0,0.0,0.0,0.0,0.0,0.0,0.0,0.0,0.0,0.0,0.0,0.0,0.0,0.0,0.0,0.0,0.0,0.0,0.0,0.0,0.0,0.0,0.0,0.0,0.0,0.0,0.0,0.0,0.0,0.0,0.0,0.0,0.0,0.0,0.0,0.0,0.0,0.0,0.0,0.0,0.0,0.0,0.0,0.0,-2.6438,-2.968,-3.4013,-3.6465,-3.7933,-3.8262,-3.7123,-3.5539,-3.3502,-3.1632,0.0,0.0,0.0,0.0,0.0,0.0,0.0,0.0,0.0,0.0,0.0,0.0,0.0,0.0,0.0,0.0,0.0,0.0,0.0,0.0,0.0,0.0,0.0,0.0,0.0,0.0,0.0,0.0,0.0,0.0,0.0,0.0,0.0,0.0,0.0,0.0,0.0,0.0,0.0,0.0,0.0,0.0,0.0,0.0,0.0,0.0,0.0,0.0,0.0,0.0,0.0,0.0,0.0,0.0,0.0,0.0,0.0,0.0,0.0,0.0,0.0,0.0,0.0,0.0,0.0,0.0,0.0,0.0,0.0,0.0,0.0,0.0,0.0,0.0,0.0,0.0,0.0,0.0,0.0,0.0,0.0,0.0,0.0,0.0,0.0,0.0,0.0,0.0,0.0,0.0,0.0,0.0,0.0,0.0,0.0,0.0,0.0,0.0,0.0,0.0,0.0,0.0,-2.7222,-3.0215,-3.2859,-3.4905,-3.6258,-3.6728,-3.5455,-3.3943,-3.239,-2.9967,0.0,0.0,0.0,0.0,0.0,0.0,0.0,0.0,0.0,0.0,0.0,0.0,0.0,0.0,0.0,0.0,0.0,0.0,0.0,0.0,0.0,0.0,0.0,0.0,0.0,0.0,0.0,0.0,0.0,0.0,0.0,0.0,0.0,0.0,0.0,0.0,0.0,0.0,0.0,0.0,0.0,0.0,0.0,0.0,0.0,0.0,0.0,0.0,0.0,0.0,0.0,0.0,0.0,0.0,0.0,0.0,0.0,0.0,0.0,0.0,0.0,0.0,0.0,0.0,0.0,0.0,0.0,0.0,0.0,0.0,0.0,0.0,0.0,0.0,0.0,0.0,0.0,0.0,0.0,0.0,0.0,0.0,0.0,0.0,0.0,0.0,0.0,0.0,0.0,0.0,0.0,0.0,0.0,0.0,0.0,0.0,0.0,0.0,0.0,0.0,0.0,0.0,-2.5934,-2.8941,-3.2152,-3.3341,-3.383,-3.3741,-3.3154,-3.1699,-2.9228,-2.7475,0.0,0.0,0.0,0.0,0.0,0.0,0.0,0.0,0.0,0.0,0.0,0.0,0.0,0.0,0.0,0.0,0.0,0.0,0.0,0.0,0.0,0.0,0.0,0.0,0.0,0.0,0.0,0.0,0.0,0.0,0.0,0.0,0.0,0.0,0.0,0.0,0.0,0.0,0.0,0.0,0.0,0.0,0.0,0.0,0.0,0.0,0.0,0.0,0.0,0.0,0.0,0.0,0.0,0.0,0.0,0.0,0.0,0.0,0.0,0.0,0.0,0.0,0.0,0.0,0.0,0.0,0.0,0.0,0.0,0.0,0.0,0.0,0.0,0.0,0.0,0.0,0.0,0.0,0.0,0.0,0.0,0.0,0.0,0.0,0.0,0.0,0.0,0.0,0.0,0.0,0.0,0.0,0.0,0.0,0.0,0.0,0.0,0.0,0.0,0.0,0.0,0.0,-2.3769,-2.6337,-2.8927,-3.0185,-3.1132,-3.1819,-3.1141,-2.9859,-2.7885,0.0,0.0,0.0,0.0,0.0,0.0,0.0,0.0,0.0,0.0,0.0,0.0,0.0,0.0,0.0,0.0,0.0,0.0,0.0,0.0,0.0,0.0,0.0,0.0,0.0,0.0,0.0,0.0,0.0,0.0,0.0,0.0,0.0,0.0,0.0,0.0,0.0,0.0,0.0,0.0,0.0,0.0,0.0,0.0,0.0,0.0,0.0,0.0,0.0,0.0,0.0,0.0,0.0,0.0,0.0,0.0,0.0,0.0,0.0,0.0,0.0,0.0,0.0,0.0,0.0,0.0,0.0,0.0,0.0,0.0,0.0,0.0,0.0,0.0,0.0,0.0,0.0,0.0,0.0,0.0,0.0,0.0,0.0,0.0,0.0,0.0,0.0,0.0,0.0,0.0,0.0,0.0,0.0,0.0,0.0,0.0,0.0,0.0,0.0,0.0,0.0,0.0,-1.979,-2.1905,-2.4254,-2.6723,-2.7645,-2.8567,-2.9834,-2.8852,-2.7708,-2.6574,0.0,0.0,0.0,0.0,0.0,0.0,0.0,0.0,0.0,0.0,0.0,0.0,0.0,0.0,0.0,0.0,0.0,0.0,0.0,0.0,0.0,0.0,0.0,0.0,0.0,0.0,0.0,0.0,0.0,0.0,0.0,0.0,0.0,0.0,0.0,0.0,0.0,0.0,0.0,0.0,0.0,0.0,0.0,0.0,0.0,0.0,0.0,0.0,0.0,0.0,0.0,0.0,0.0,0.0,0.0,0.0,0.0,0.0,0.0,0.0,0.0,0.0,0.0,0.0,0.0,0.0,0.0,0.0,0.0,0.0,0.0,0.0,0.0,0.0,0.0,0.0,0.0,0.0,0.0,0.0,0.0,0.0,0.0,0.0,0.0,0.0,0.0,0.0,0.0,0.0,0.0,0.0,0.0,0.0,0.0,0.0,0.0,0.0,0.0,0.0,0.0,0.0,-1.8655,-2.0461,-2.2834,-2.5946,-2.6026,-2.6351,-2.7552,-2.6253,-2.5296,0.0,0.0,0.0,0.0,0.0,0.0,0.0,0.0,0.0,0.0,0.0,0.0,0.0,0.0,0.0,0.0,0.0,0.0,0.0,0.0,0.0,0.0,0.0,0.0,0.0,0.0,0.0,0.0,0.0,0.0,0.0,0.0,0.0,0.0,0.0,0.0,0.0,0.0,0.0,0.0,0.0,0.0,0.0,0.0,0.0,0.0,0.0,0.0,0.0,0.0,0.0,0.0,0.0,0.0,0.0,0.0,0.0,0.0,0.0,0.0,0.0,0.0,0.0,0.0,0.0,0.0,0.0,0.0,0.0,0.0,0.0,0.0,0.0,0.0,0.0,0.0,0.0,0.0,0.0,0.0,0.0,0.0,0.0,0.0,0.0,0.0,0.0,0.0,0.0,0.0,0.0,0.0,0.0,0.0,0.0,0.0,0.0,0.0,0.0,0.0,0.0,0.0,0.0,-1.7696,-1.9856,-2.1822,-2.3099,-2.4153,-2.4742,-2.4732,-2.4943,-2.4496,-2.2988,0.0,0.0,0.0,0.0,0.0,0.0,0.0,0.0,0.0,0.0,0.0,0.0,0.0,0.0,0.0,0.0,0.0,0.0,0.0,0.0,0.0,0.0,0.0,0.0,0.0,0.0,0.0,0.0,0.0,0.0,0.0,0.0,0.0,0.0,0.0,0.0,0.0,0.0,0.0,0.0,0.0,0.0,0.0,0.0,0.0,0.0,0.0,0.0,0.0,0.0,0.0,0.0,0.0,0.0,0.0,0.0,0.0,0.0,0.0,0.0,0.0,0.0,0.0,0.0,0.0,0.0,0.0,0.0,0.0,0.0,0.0,0.0,0.0,0.0,0.0,0.0,0.0,0.0,0.0,0.0,0.0,0.0,0.0,0.0,0.0,0.0,0.0,0.0,0.0,0.0,0.0,0.0,0.0,0.0,0.0,0.0,0.0,0.0,0.0,0.0,0.0,0.0,-1.7342,-1.9266,-2.1015,-2.191,-2.2644,-2.3213,-2.3481,-2.3672,-2.3216,-2.185,0.0,0.0,0.0,0.0,0.0,0.0,0.0,0.0,0.0,0.0,0.0,0.0,0.0,0.0,0.0,0.0,0.0,0.0,0.0,0.0,0.0,0.0,0.0,0.0,0.0,0.0,0.0,0.0,0.0,0.0,0.0,0.0,0.0,0.0,0.0,0.0,0.0,0.0,0.0,0.0,0.0,0.0,0.0,0.0,0.0,0.0,0.0,0.0,0.0,0.0,0.0,0.0,0.0,0.0,0.0,0.0,0.0,0.0,0.0,0.0,0.0,0.0,0.0,0.0,0.0,0.0,0.0,0.0,0.0,0.0,0.0,0.0,0.0,0.0,0.0,0.0,0.0,0.0,0.0,0.0,0.0,0.0,0.0,0.0,0.0,0.0,0.0,0.0,0.0,0.0,0.0,0.0,0.0,0.0,0.0,0.0,0.0,0.0,0.0,0.0,0.0,0.0,-1.7423,-1.8981,-2.0536,-2.1769,-2.1596,-2.1955,-2.3114,-2.2478,-2.1763,-2.1314,0.0,0.0,0.0,0.0,0.0,0.0,0.0,0.0,0.0,0.0,0.0,0.0,0.0,0.0,0.0,0.0,0.0,0.0,0.0,0.0,0.0,0.0,0.0,0.0,0.0,0.0,0.0,0.0,0.0,0.0,0.0,0.0,0.0,0.0,0.0,0.0,0.0,0.0,0.0,0.0,0.0,0.0,0.0,0.0,0.0,0.0,0.0,0.0,0.0,0.0,0.0,0.0,0.0,0.0,0.0,0.0,0.0,0.0,0.0,0.0,-3.3284,0.0,0.0,0.0,0.0,0.0,0.0,0.0,0.0,0.0,0.0,0.0,0.0,0.0,0.0,0.0,0.0,0.0,0.0,0.0,0.0,0.0,0.0,0.0,0.0,0.0,0.0,0.0,0.0,0.0,0.0,0.0,0.0,0.0,0.0,0.0,0.0,0.0,0.0,0.0,0.0,0.0,-1.8594,-1.9982,-2.0928,-2.0886,-2.1511,-2.1707,-2.1221,-2.1669,-2.1463,-2.0307,-2.0075,0.0,0.0,0.0,0.0,0.0,0.0,0.0,0.0,0.0,0.0,0.0,0.0,0.0,0.0,0.0,0.0,0.0,0.0,0.0,0.0,0.0,0.0,0.0,0.0,0.0,0.0,0.0,0.0,0.0,0.0,0.0,0.0,0.0,0.0,0.0,0.0,0.0,0.0,0.0,0.0,0.0,0.0,0.0,0.0,0.0,0.0,0.0,0.0,0.0,0.0,0.0,0.0,0.0,0.0,0.0,0.0,0.0,0.0,0.0,0.0,-3.4398,0.0,0.0,0.0,0.0,0.0,0.0,0.0,0.0,0.0,0.0,0.0,0.0,0.0,0.0,0.0,0.0,0.0,0.0,0.0,0.0,0.0,0.0,0.0,0.0,0.0,0.0,0.0,0.0,0.0,0.0,0.0,0.0,0.0,0.0,0.0,0.0,0.0,0.0,0.0,0.0,-1.9434,-2.0548,-2.1143,-2.0908,-2.1141,-2.1155,-2.0644,-2.1078,-2.0887,-1.9941,-2.0107,0.0,0.0,0.0,0.0,0.0,0.0,0.0,0.0,0.0,0.0,0.0,0.0,0.0,0.0,0.0,0.0,0.0,0.0,0.0,0.0,0.0,0.0,0.0,0.0,0.0,0.0,0.0,0.0,0.0,0.0,0.0,0.0,0.0,0.0,0.0,0.0,0.0,0.0,0.0,0.0,0.0,0.0,0.0,0.0,0.0,0.0,0.0,0.0,0.0,0.0,0.0,0.0,0.0,-3.8098,-3.8676,-3.8571,-3.8415,-3.8629,-3.9135,-3.6968,-3.5798,-3.5252,-3.4087,0.0,0.0,0.0,0.0,0.0,0.0,0.0,0.0,0.0,0.0,0.0,0.0,0.0,0.0,0.0,0.0,0.0,0.0,0.0,0.0,0.0,0.0,0.0,0.0,-1.5761,-1.5969,0.0,0.0,0.0,0.0,0.0,0.0,0.0,0.0,0.0,0.0,0.0,0.0,-2.0171,-2.0914,-2.1318,-2.124,-2.083,-2.0566,-2.0566,-2.0566,-2.0381,-1.9941,-2.0322,-2.041,0.0,0.0,0.0,0.0,0.0,0.0,0.0,0.0,0.0,0.0,0.0,0.0,0.0,0.0,0.0,0.0,0.0,0.0,0.0,0.0,0.0,0.0,0.0,0.0,0.0,0.0,0.0,0.0,0.0,0.0,0.0,0.0,-2.3974,-2.343,0.0,0.0,0.0,0.0,0.0,0.0,0.0,0.0,0.0,0.0,0.0,0.0,0.0,-3.3809,-3.5567,-3.6902,-3.7543,-3.7543,-3.9299,-3.9828,-3.9203,-3.8325,-3.8211,-3.8683,-3.6908,0.0,-3.6531,-3.5647,0.0,0.0,0.0,0.0,0.0,0.0,0.0,0.0,0.0,0.0,0.0,0.0,0.0,0.0,0.0,0.0,0.0,0.0,0.0,0.0,0.0,0.0,-1.6513,-1.6226,-1.54,-1.4761,0.0,-1.5121,-1.5047,-1.3653,-1.4355,0.0,0.0,0.0,0.0,0.0,0.0,0.0,-2.09,-2.151,-2.165,-2.1279,-2.083,-2.0566,-2.0566,-2.0566,-2.0381,-1.9941,-2.0322,-2.0537,-2.0478,-2.0537,0.0,0.0,0.0,0.0,0.0,0.0,0.0,0.0,0.0,0.0,0.0,0.0,0.0,0.0,0.0,0.0,0.0,0.0,0.0,0.0,0.0,0.0,0.0,0.0,0.0,0.0,0.0,0.0,0.0,-2.4631,-2.6027,-2.5914,-2.6392,-2.6412,0.0,0.0,0.0,0.0,0.0,0.0,0.0,0.0,0.0,-3.2922,-3.4366,-3.5411,-3.6015,-3.7251,-3.7475,-3.6866,-3.8418,-3.881,-3.8116,-3.7714,-3.7817,-3.8366,-3.724,-3.6505,-3.6056,-3.507,-3.3829,-3.2292,0.0,0.0,0.0,0.0,-2.821,-2.764,-2.6299,-2.5386,0.0,-2.2806,0.0,0.0,0.0,0.0,0.0,0.0,0.0,0.0,0.0,0.0,-1.6223,-1.5392,-1.4965,-1.4439,-1.362,-1.4167,-1.461,0.0,-1.5061,-1.6032,-1.5538,0.0,0.0,0.0,0.0,-1.8814,-2.0992,-2.0997,-2.1023,-2.153,-2.0977,-2.0566,-2.0566,-2.0566,-2.0478,-2.0293,-2.0459,-2.0674,-2.0937,-2.1172,-2.1377,0.0,0.0,0.0,0.0,0.0,0.0,0.0,0.0,0.0,0.0,0.0,0.0,0.0,0.0,0.0,0.0,0.0,0.0,0.0,0.0,0.0,0.0,0.0,0.0,0.0,0.0,0.0,0.0,-2.7261,-2.8277,-2.8545,-2.8752,-2.8498,0.0,0.0,0.0,0.0,0.0,0.0,-3.0143,-3.1909,-3.3229,-3.3887,-3.561,-3.6404,-3.6206,-3.701,-3.7097,-3.6198,-3.7373,-3.7661,-3.7151,-3.6907,-3.7154,-3.7674,-3.6429,-3.5375,-3.4542,-3.4278,-3.342,-3.2047,-3.0361,-2.9419,-2.8911,-2.8318,-2.7696,-2.6932,-2.5961,-2.4982,-2.3862,-2.209,0.0,-1.9382,-1.8871,0.0,0.0,0.0,0.0,-1.5832,-1.5832,-1.575,-1.5562,-1.4556,-1.4254,-1.3925,-1.2802,-1.3478,-1.4336,0.0,-1.5545,-1.66,-1.5945,0.0,0.0,0.0,0.0,-1.812,-2.0262,-2.0214,-2.0345,-2.1205,-2.0857,-2.0566,-2.0566,-2.0566,-2.0566,-2.0566,-2.0674,-2.0889,-2.1221,-2.165,-2.1738,-2.1406,0.0,0.0,0.0,0.0,0.0,0.0,0.0,0.0,0.0,0.0,0.0,0.0,0.0,0.0,0.0,0.0,0.0,0.0,0.0,0.0,0.0,0.0,0.0,0.0,0.0,0.0,0.0,0.0,0.0,-3.1418,-3.2253,0.0,0.0,0.0,0.0,-2.88,-2.9854,-3.0733,-3.1286,-3.2462,-3.357,-3.4652,-3.5244,-3.5877,-3.637,-3.6402,-3.6366,-3.6286,-3.6947,-3.7259,-3.7151,-3.6179,-3.6008,-3.6459,-3.3636,-3.2128,-3.1801,-3.3875,-3.3084,-3.0429,-2.9881,-2.8626,-2.7119,-2.6437,-2.5899,-2.5244,-2.3317,-2.2537,-2.2046,-1.9521,-1.7674,-1.6481,-1.6447,-1.6244,0.0,0.0,-1.5818,-1.5832,-1.5832,-1.5055,-1.4359,-1.4359,-1.3445,-1.27,-1.2597,-1.3609,-1.4453,0.0,-1.5074,-1.5879,-1.5838,0.0,-1.6081,-1.6872,-1.7368,-1.7888,-1.8469,-1.9375,-1.9892,-1.977,-2.0258,-2.0566,-2.0566,-2.0566,-2.0566,-2.0566,-2.0967,-2.1211,-2.123,-2.165,-2.1875,-2.1855,-2.1875,0.0,0.0,0.0,0.0,0.0,0.0,0.0,0.0,0.0,0.0,0.0,0.0,0.0,0.0,0.0,0.0,0.0,0.0,0.0,0.0,0.0,0.0,0.0,0.0,0.0,0.0,0.0,0.0,-3.321,-3.4053,0.0,-3.0684,-3.0177,-3.0156,-3.0482,-3.1562,-3.2591,-3.3495,-3.4261,-3.5014,-3.5755,-3.5968,-3.583,-3.5316,-3.5605,-3.5302,-3.4229,-3.48,-3.494,-3.4478,-3.3063,-3.2487,-3.2636,-3.0763,-2.9747,-2.9369,-3.0458,-3.0307,-2.9274,-2.803,-2.7487,-2.7227,-2.5473,-2.4496,-2.3814,-2.2232,-2.0962,-1.9676,-1.7735,-1.6607,-1.5794,-1.4998,-1.4635,-1.437,-1.3499,-1.3884,-1.4364,-1.3494,-1.4244,-1.4805,-1.3138,-1.3101,-1.3456,-1.3456,-1.3756,-1.432,-1.5023,-1.566,-1.6052,-1.5865,-1.5832,-1.5886,-1.614,-1.6237,-1.6636,-1.7788,-1.7715,-1.7831,-1.8718,-1.9255,-1.9599,-1.9599,-2.0167,-2.0323,-1.9599,-1.9659,-1.9613,-1.9132,-1.9274,-1.9353,-1.9353,-1.9353,-1.8619,0.0,0.0,0.0,0.0,0.0,0.0,0.0,0.0,0.0,0.0,0.0,0.0,0.0,0.0,0.0,0.0,0.0,0.0,0.0,0.0,0.0,0.0,0.0,0.0,0.0,0.0,-3.6259,-3.4749,-3.5522,-3.4931,-3.1593,-3.1238,-3.1373,-3.1913,-3.3006,-3.4035,-3.4951,-3.5516,-3.5994,-3.6358,-3.6182,-3.573,-3.5014,-3.4989,-3.4449,-3.3357,-3.3533,-3.3332,-3.2767,-3.1246,-3.0539,-3.0274,-2.8877,-2.7908,-2.726,-2.7425,-2.7337,-2.7047,-2.6605,-2.6373,-2.6094,-2.4287,-2.3299,-2.2631,-2.0989,-1.9238,-1.7681,-1.6619,-1.6072,-1.5635,-1.4752,-1.4555,-1.4364,-1.3494,-1.3884,-1.4364,-1.3499,-1.4172,-1.4752,-1.3011,-1.3295,-1.3878,-1.3878,-1.4262,-1.4758,-1.5635,-1.5985,-1.6059,-1.5865,-1.5832,-1.5832,-1.5832,-1.5665,-1.5817,-1.6636,-1.6507,-1.6604,-1.7374,-1.7997,-1.8268,-1.8268,-1.8906,-1.9063,-1.8347,-1.8399,-1.8262,-1.7772,-1.753,-1.7355,-1.7159,-1.636,-1.5673,-1.5004,0.0,0.0,0.0,0.0,0.0,0.0,0.0,0.0,0.0,0.0,0.0,0.0,0.0,0.0,0.0,0.0,0.0,0.0,0.0,0.0,0.0,0.0,0.0,-3.5172,-3.6939,-3.7577,-3.6158,-3.6852,-3.5987,-3.2304,-3.2184,-3.2491,-3.3056,-3.411,-3.4951,-3.5491,-3.6019,-3.632,-3.6332,-3.5805,-3.5516,-3.5516,-3.4449,-3.3884,-3.3872,-3.3319,-3.2754,-3.2118,-3.104,-3.0214,-2.9545,-2.7934,-2.6593,-2.5504,-2.4986,-2.4313,-2.3889,-2.5527,-2.5186,-2.3667,-2.274,-2.2155,-2.1516,-1.938,-1.7554,-1.6259,-1.6259,-1.6066,-1.5825,-1.573,-1.573,-1.573,-1.573,-1.573,-1.573,-1.573,-1.4854,-1.3974,-1.3878,-1.3974,-1.3968,-1.3962,-1.4937,-1.5812,-1.5805,-1.5812,-1.5818,-1.5832,-1.5832,-1.5832,-1.5832,-1.5818,0.0,-1.505,-1.5903,-1.6334,-1.5702,-1.6373,-1.6859,-1.6851,-1.6851,-1.6843,-1.6834,-1.7111,-1.7245,-1.7155,-1.6414,-1.5898,-1.542,-1.3149,-1.2569,-1.373,0.0,0.0,0.0,0.0,0.0,0.0,0.0,0.0,0.0,0.0,0.0,0.0,0.0,0.0,0.0,0.0,0.0,0.0,0.0,0.0,0.0,-3.2723,-3.5039,-3.6611,-3.8068,-3.8561,-3.7442,-3.7944,-3.72,-3.4218,-3.4293,-3.4307,-3.3746,-3.4324,-3.4788,-3.4939,-3.509,-3.5366,-3.5755,-3.5228,-3.4951,-3.4951,-3.4248,-3.3696,-3.3294,-3.2729,-3.193,-3.0967,-2.9071,-2.7696,-2.6693,-2.5378,-2.4371,-2.3827,-2.4037,-2.327,-2.202,-2.2471,-2.2828,-2.261,-2.0256,-1.8716,-1.7765,-1.6868,-1.63,-1.5952,-1.5952,-1.5899,-1.5635,-1.4657,-1.4459,-1.4268,-1.321,-1.3686,-1.4172,-1.3204,-1.4076,-1.5045,-1.4166,-1.4657,-1.519,-1.4984,-1.5225,-1.5451,-1.5244,-1.5371,-1.5585,-1.5792,-1.5832,-1.5832,-1.5832,-1.5651,0.0,-1.5297,-1.5164,-1.4998,-1.4833,-1.5514,-1.5944,-1.5785,-1.6458,-1.6423,-1.5405,-1.5636,-1.5087,-1.3434,-1.3361,-1.2954,-1.2026,-1.0818,-1.0336,0.0,0.0,0.0,0.0,0.0,0.0,0.0,0.0,0.0,0.0,0.0,0.0,0.0,0.0,0.0,0.0,0.0,0.0,0.0,0.0,0.0,0.0,-3.4461,-3.6113,-3.6764,-3.8208,-3.8777,-3.7664,-3.7898,-3.7077,-3.4327,-3.4335,-3.4302,-3.396,-3.4198,-3.4474,-3.4713,-3.4726,-3.4864,-3.519,-3.4663,-3.4374,-3.4374,-3.3834,-3.3109,-3.2326,-3.1908,-3.0989,-2.9404,-2.7674,-2.6249,0.0,-2.4017,-2.3379,-2.3154,-2.3408,-2.2621,0.0,0.0,0.0,0.0,0.0,-1.712,-1.6059,-1.5885,-1.5832,-1.5832,-1.5832,-1.5832,-1.5635,-1.4949,-1.4657,-1.4561,-1.3788,-1.4076,-1.4561,-1.3788,-1.4663,-1.5635,-1.4848,-1.5152,-1.5605,-1.5431,-1.5304,-1.5164,-1.4997,-1.5197,0.0,-1.5618,-1.5651,-1.5651,-1.5651,-1.5398,-1.517,-1.5044,-1.473,-1.4422,-1.4182,-1.4455,-1.4588,-1.4409,-1.5008,0.0,0.0,0.0,-1.301,-1.0757,-1.0989,0.0,0.0,0.0,-0.848,-0.8454,0.0,0.0,0.0,-0.7485,-0.8111,0.0,0.0,0.0,0.0,0.0,0.0,0.0,0.0,0.0,0.0,0.0,0.0,0.0,0.0,0.0,0.0,-3.6178,-3.7211,-3.6387,-3.7451,-3.7983,-3.7118,-3.7049,-3.6008,-3.342,-3.3202,-3.3442,-3.3771,-3.3872,-3.4085,-3.4512,0.0,0.0,0.0,0.0,-3.3834,-3.3897,-3.3258,-3.2326,-3.1223,-3.0915,-2.9746,-2.7655,-2.659,-2.5564,-2.4542,-2.3551,-2.3047,-2.2862,-2.2862,-2.2129,-2.0935,-2.0935,-2.0124,-1.8948,-1.7863,-1.6756,-1.5832,-1.5832,0.0,0.0,-1.5832,-1.5832,-1.5832,-1.5832,-1.5832,-1.5832,-1.5832,-1.5832,-1.5832,-1.5832,-1.5832,-1.5818,-1.5792,-1.5585,-1.5378,-1.5311,-1.5097,-1.4903,-1.487,-1.5097,-1.5297,-1.5297,-1.5351,-1.5398,-1.5206,-1.4962,-1.4672,-1.42,-1.4161,-1.3853,-1.3283,0.0,0.0,-1.3048,-1.3101,-1.32,-1.3323,-1.2404,-1.1016,-0.9069,-0.9099,-0.8404,-0.6723,-0.6977,-0.7061,-0.7053,-0.6569,-0.521,-0.3234,-0.3229,-0.4548,0.0,0.0,0.0,0.0,0.0,0.0,0.0,0.0,0.0,0.0,0.0,0.0,0.0,0.0,0.0,-3.3873,-3.5062,-3.6169,-3.6809,-3.6089,-3.5534,-3.5756,-3.6005,-3.5535,-3.3817,-3.4058,-3.4076,-3.3305,-3.3646,-3.3759,-3.342,-3.3395,-3.3596,-3.4048,-3.352,-3.3445,-3.3897,-3.232,-3.14,-3.1211,0.0,0.0,-2.6587,-2.5569,-2.4461,-2.3387,-2.3222,-2.2589,-2.1667,-2.1667,-2.0395,-1.8411,-1.8411,-1.7677,-1.6473,-1.6292,-1.6015,-1.5832,-1.5832,-1.5832,-1.5832,-1.5832,-1.5832,-1.5832,-1.5832,-1.5832,0.0,-1.5832,-1.5832,-1.5832,-1.5832,-1.5832,-1.5772,-1.5538,-1.5438,-1.5264,-1.479,-1.4643,-1.4536,-1.4302,-1.4489,-1.4689,-1.4689,-1.5084,-1.5114,-1.4173,-1.3756,-1.3117,-1.1865,-1.1749,-1.156,-1.1077,-1.1734,-1.2125,-1.2006,-1.2577,-1.2564,-1.1956,-1.0138,-0.9253,-0.9362,-0.8228,-0.6529,-0.4287,-0.618,-0.7118,-0.7088,-0.6533,-0.44,-0.0671,-0.068,-0.0987,0.0,0.0,0.0,0.0,0.0,0.0,0.0,0.0,0.0,0.0,0.0,-2.3801,-2.7113,0.0,-3.2853,-3.4038,-3.4954,-3.5323,-3.4729,-3.462,-3.4549,-3.4627,-3.4821,-3.4322,-3.2717,-3.3083,-3.3193,-3.2726,-3.3169,-3.337,-3.3093,-3.3081,-3.2922,-3.2543,-3.2286,-3.1998,-3.1627,-3.0714,-2.9907,-2.9026,-2.7918,-2.6547,-2.5045,-2.451,-2.3564,-2.2217,-2.2217,-2.148,-2.0395,-1.9761,-1.8772,-1.7598,-1.7037,-1.6386,-1.5832,-1.5832,-1.5832,-1.5832,-1.5832,-1.5832,-1.5832,-1.5832,-1.5832,-1.5832,-1.5832,-1.5832,-1.5832,-1.5832,-1.5832,-1.5798,-1.5651,-1.5718,-1.5718,-1.5284,-1.5177,-1.5057,-1.4616,-1.4402,-1.4262,-1.4115,-1.3873,-1.3617,-1.3617,-1.3398,-1.3205,-1.3205,-1.2981,-1.2323,-1.1056,-1.0865,-1.0733,-1.0312,-1.0778,-1.1018,-1.0778,-1.1209,-1.1027,-1.0014,-0.9261,-0.859,-0.8178,-0.7512,-0.5409,-0.187,-0.2957,-0.352,-0.3552,-0.3318,-0.2058,-0.0,-0.0,-0.0,0.0,0.0,0.0,0.0,0.0,0.0,0.0,-1.158,-1.4195,-1.6635,-1.9757,-2.3447,-2.8202,-3.043,-3.2107,-3.39,-3.4816,-3.4632,-3.2613,-3.3277,-3.3759,-3.3251,-3.3251,-3.2736,-3.1342,-3.1637,-3.1989,-3.219,-3.2641,-3.287,-3.2698,-3.2698,-3.2152,-3.0855,-3.0761,-3.0267,-2.9261,-2.899,-2.8109,-2.6749,-2.6197,-2.5057,-2.3419,-2.3133,-2.2258,-2.0935,-2.0666,-2.0034,-1.9039,-1.7863,-1.7318,-1.7225,-1.6197,-1.5832,-1.5832,-1.5832,-1.5832,-1.5832,-1.5832,-1.5832,-1.5832,-1.5832,-1.5832,-1.5832,-1.5832,-1.5832,-1.5832,-1.5832,-1.5832,-1.5772,-1.5538,-1.5611,-1.5611,-1.509,-1.4917,-1.4796,-1.4502,-1.4071,-1.3737,-1.3737,-1.3071,-1.2434,-1.2382,-1.1623,-1.13,-1.2004,-1.1886,-1.1209,-1.0086,-0.9918,-0.9842,-0.955,-0.9745,-0.978,-0.9757,-0.9782,-0.9404,-0.8346,-0.8556,-0.7927,-0.6239,-0.5915,-0.3496,0.1151,0.1341,0.0901,-0.0,-0.0,-0.0,-0.0,-0.0,-0.0,-0.8478,-0.8478,-0.8403,-0.7999,-0.8164,-0.8645,0.0,-1.2789,-1.5812,-1.7184,-2.1194,-2.4961,-2.6451,-2.9988,-3.2667,-3.2473,-3.3776,-3.4414,-3.3131,-3.2634,-3.2104,-3.1044,-3.1279,-3.1289,-3.0725,-3.0758,-3.1185,-3.2139,-3.2277,-3.2079,-3.1464,-3.14,-3.0855,-2.9681,-2.9263,-2.9037,-2.8858,-2.7431,-2.6568,-2.6336,-2.377,-2.2474,-2.2108,-2.0629,-1.9894,-1.967,-1.8596,-1.8056,-1.7777,-1.6574,-1.6015,-1.6015,-1.5832,-1.5832,-1.5832,-1.5832,-1.5832,-1.5832,-1.5832,-1.5832,-1.5832,-1.5832,-1.5832,-1.5832,-1.5832,-1.5832,-1.5832,-1.5832,-1.5832,-1.5818,-1.5792,-1.5611,-1.5364,-1.5037,-1.4763,-1.4489,-1.4202,-1.3313,-1.2504,-1.2504,-1.1669,-1.0972,-1.0855,-1.0813,-1.0592,-0.9786,-0.9442,-0.8886,-0.7661,-0.7489,-0.7432,-0.7282,-0.7963,-0.8698,-0.9326,-0.8769,-0.8321,-0.8074,-0.7316,-0.5982,-0.4064,-0.1902,0.1213,0.5507,0.6068,0.4236,-0.0,-0.0,-0.0,-0.0,-0.0,-0.0,-0.4616,-0.5289,-0.5642,-0.5603,-0.6816,-0.8171,-0.873,-1.0849,-1.3532,-1.6224,-1.9811,-2.3428,-2.6537,-2.856,-3.0244,-3.1734,-3.2412,-3.2533,-3.2156,-3.1888,-3.1336,-3.0269,-2.9974,-2.9757,-2.9545,-2.9849,-3.0001,-3.0119,-3.0361,-3.0454,-3.0214,-3.0135,-2.959,-2.8412,-2.7947,-2.7038,-2.5628,-2.4643,-2.3648,-2.264,-2.149,-2.0769,-2.0554,-1.9837,-1.9131,-1.8411,-1.7124,-1.6574,-1.6574,-1.6015,-1.5832,-1.5832,-1.5832,-1.5832,-1.5832,-1.5832,-1.5832,-1.5832,-1.5832,-1.5832,-1.5832,-1.5832,-1.5832,-1.5832,-1.5832,-1.5832,-1.5832,-1.5832,-1.5832,-1.5792,-1.5618,-1.5484,-1.5277,-1.4816,-1.4609,-1.4256,-1.3259,-1.2674,-1.2072,-1.1466,-1.0524,-0.9807,-0.9611,-0.9216,-0.8681,-0.8131,-0.85,-0.8452,-0.7228,-0.7139,-0.7085,-0.6946,-0.7123,-0.7312,-0.7638,-0.7293,-0.7051,-0.6976,-0.6609,-0.4924,-0.166,0.1833,0.4545,0.6411,0.6563,0.5145,0.2093,0.0677,-0.0,-0.0,-0.0,-0.0,-0.1177,-0.2446,-0.2939,-0.2862,-0.4392,-0.6047,-0.7054,-0.9031,-1.158,-1.5313,-1.851,-2.197,-2.5943,-2.7223,-2.8322,-3.0352,-3.0856,-3.0832,-3.0518,-3.0431,-3.0102,-2.9199,-2.8666,-2.8312,-2.8253,-2.8738,-2.8913,-2.8634,-2.9004,-2.9023,-2.8749,-2.8789,-2.8086,-2.6253,-2.5928,-2.4662,-2.2476,-2.1999,-2.118,-1.9969,-1.9605,-1.9289,-1.8948,-1.8672,-1.8041,-1.7131,-1.6197,-1.5832,-1.5832,-1.5832,-1.5832,-1.5832,-1.5832,-1.5832,-1.5832,-1.5832,-1.5832,-1.5832,-1.5832,-1.5772,-1.5725,-1.5805,-1.5772,-1.5725,-1.5805,-1.5832,-1.5812,-1.5732,-1.5765,-1.5758,-1.5471,-1.5337,-1.517,-1.4743,-1.4583,-1.4102,-1.2653,-1.2233,-1.1669,-1.0441,-0.9409,-0.8639,-0.8468,-0.7923,-0.7319,-0.7163,-0.7841,-0.8105,-0.7228,-0.7105,-0.701,-0.6824,-0.6603,-0.6458,-0.6417,-0.6281,-0.6217,-0.6268,-0.5693,-0.4006,-0.0968,0.3737,0.6345,0.6513,0.6479,0.5779,0.4371,0.1408,-0.0,-0.0,-0.0,-0.0,0.1309,-0.0095,-0.0098,-0.0096,-0.0196,-0.1206,-0.4716,-0.8182,-1.1505,-1.4892,-1.8248,-2.144,-2.4063,-2.6217,-2.7735,-2.7694,-2.9168,-2.969,-2.8217,-2.8015,-2.7824,-2.7234,-2.7189,-2.7052,0.0,-2.7401,-2.8031,-2.8545,-2.8601,-2.8162,-2.6999,-2.7431,-2.6118,-2.2848,-2.2726,-2.1946,-2.0245,-1.9795,-1.9613,-1.9505,-1.8334,-1.7792,-1.7684,-1.648,-1.592,-1.5832,-1.5825,-1.5832,-1.5832,-1.5832,-1.5832,-1.5832,-1.5832,-1.5832,-1.5832,-1.5832,-1.5832,-1.5832,-1.5832,-1.5645,-1.5458,-1.5738,-1.5638,-1.5464,-1.5745,-1.5832,-1.5772,-1.5491,-1.5611,-1.5758,-1.5471,-1.519,-1.497,-1.4957,-1.473,-1.4154,-1.2897,-1.1923,-1.0987,-0.9604,-0.8415,-0.7636,-0.7482,-0.7461,-0.7319,-0.7163,-0.7139,-0.7139,-0.7139,-0.7021,-0.682,-0.6519,-0.6478,-0.6417,-0.6278,-0.6125,-0.6101,-0.6251,-0.413,-0.2854,-0.2988,0.2999,0.6299,0.6312,0.6788,0.6798,0.6182,0.2014,-0.0,-0.0,-0.0,-0.0,0.5472,0.2542,-0.0,-0.0,-0.0,-0.0776,-0.358,-0.8007,-1.2182,-1.489,-1.7849,-2.0677,-2.3472,-2.4812,-2.5837,-2.6982,-2.7881,-2.8462,-2.8355,-2.8332,-2.8143,-2.7553,-2.6309,-2.5808,-2.6649,0.0,0.0,-2.6668,-2.5889,-2.5198,-2.4841,-2.4058,-2.3099,-2.1722,-2.1377,-2.05,-1.8917,-1.8489,-1.7863,-1.7023,-1.6662,-1.648,-1.6386,-1.6015,-1.5832,-1.5832,-1.5832,-1.5832,-1.5832,-1.5832,-1.5832,-1.5832,-1.5832,-1.5712,-1.5538,-1.5538,-1.5424,-1.5284,-1.5478,-1.5605,-1.5665,-1.5571,-1.5605,-1.5705,-1.5798,-1.5832,-1.5805,-1.5712,-1.5752,-1.5609,-1.464,-1.4129,-1.3927,-1.3927,-1.3071,-1.2163,-1.1802,-1.0765,-0.9625,-0.843,-0.7953,-0.7692,-0.755,-0.7522,-0.7434,-0.718,-0.7139,-0.7139,-0.7139,-0.6926,-0.6736,-0.6634,-0.6447,-0.6312,-0.6342,-0.6213,-0.621,-0.6268,-0.552,-0.3887,-0.1182,0.1026,0.2768,0.4126,0.4318,0.5031,0.6329,0.4849,0.2704,-0.0,-0.0,-0.0,0.7362,0.4451,0.111,0.0188,-0.1233,-0.2953,-0.4454,-0.9091,-1.3731,-1.5581,-1.8385,-2.1096,-2.32,-2.4038,-2.4716,-2.5615,-2.6156,-2.6424,-2.6349,-2.6389,-2.6134,-2.5412,-2.4145,-2.3821,-2.4775,-2.4899,0.0,-2.4992,-2.3827,-2.2963,-2.2784,-2.1953,-2.1088,-2.0237,-1.9894,-1.9039,-1.7601,-1.7196,-1.6574,-1.5832,-1.5832,-1.5832,-1.5832,-1.5832,-1.5772,-1.5678,-1.5785,-1.5772,-1.5678,-1.5785,-1.5832,-1.5832,-1.5832,-1.5651,-1.5398,-1.5398,-1.5211,-1.499,-1.5177,-1.5291,-1.5351,-1.5271,-1.5009,-1.4804,-1.5385,-1.5232,-1.4946,-1.5425,-1.5591,-1.5383,-1.4028,-1.352,-1.3298,-1.2824,-1.233,-1.1667,-1.0841,-1.043,-0.9733,-0.8041,-0.7787,-0.7767,-0.7624,-0.7509,-0.7366,-0.717,-0.7139,-0.7102,-0.6997,-0.677,-0.66,-0.6549,-0.6373,-0.6338,-0.6338,-0.6338,-0.6264,-0.6271,-0.6278,-0.5085,-0.2338,-0.148,-0.0156,0.1953,0.1953,0.2663,0.4016,0.4016,0.2672,0.0079,0.1769,0.2554,0.691,0.5175,0.285,0.0461,-0.3657,-0.7058,-0.7079,-1.1419,-1.5766,-1.6847,-1.9627,-2.2177,-2.2998,-2.3877,-2.4374,-2.389,-2.418,-2.4009,-2.2668,-2.2479,-2.2127,-2.1188,-2.0933,-2.1155,-2.1593,-2.1558,-2.2072,-2.3358,0.0,-2.1669,-2.0941,-2.1007,-2.0146,-1.8444,-1.823,-1.7594,-1.6253,-1.5972,-1.5832,-1.5832,-1.5832,-1.5832,-1.5832,-1.5812,-1.5658,-1.5411,-1.5591,-1.5551,-1.5418,-1.5617,-1.573,-1.5832,-1.5812,-1.5631,-1.5371,-1.5357,-1.517,-1.4827,-1.4917,-1.475,-1.4495,-1.4781,-1.3945,-1.2963,-1.443,-1.405,-1.3399,-1.4611,-1.5093,-1.4922,-1.3695,-1.3315,-1.2941,-1.1711,-1.2277,-1.2471,-1.0014,-1.0738,-1.1068,-0.8528,-0.7923,-0.7777,-0.7628,-0.7356,-0.7156,-0.7143,-0.7132,-0.7031,-0.6759,-0.659,-0.6441,-0.6298,-0.6278,-0.6345,-0.6338,-0.6338,-0.6338,-0.6338,-0.6271,-0.6278,-0.6278,-0.4377,-0.2344,-0.0392,-0.0078,-0.0,-0.0,-0.0,-0.0,0.0079,0.4603,0.6887,0.4279,0.2323,0.0359,-0.2069,-0.4878,-0.7351,-0.8609,-1.2815,-1.6455,-1.6447,-1.8389,-2.0532,-2.1952,-2.2886,-2.3535,-2.381,-2.4697,-2.49,-2.359,-2.3385,-2.292,-2.1703,-2.0609,-2.0343,-2.1255,-1.991,-1.9284,0.0,-2.0287,-2.0089,-1.966,-1.8738,-1.7795,-1.6876,-1.6787,-1.6546,-1.5945,-1.5865,-1.5832,-1.5832,-1.5832,-1.5832,-1.5818,-1.5605,-1.5464,-1.5305,-1.4415,-1.4502,-1.5325,-1.4646,-1.4949,-1.5805,-1.5591,-1.5331,-1.5044,-1.4823,-1.4012,-1.3145,-1.4038,-1.4012,-1.3489,-1.3549,-1.279,-1.1957,-1.239,-1.2243,-1.2232,-1.3638,-1.3356,-1.2592,-1.239,-1.1569,-1.0794,-1.0502,-0.9824,-0.9437,-0.9832,-1.016,-0.9998,-0.8333,-0.8007,-0.7899,-0.7645,-0.7533,-0.7404,-0.7177,-0.7051,-0.6993,-0.7024,-0.6902,-0.6756,-0.6603,-0.6485,-0.6376,-0.6271,-0.6338,-0.6338,-0.6338,-0.6264,-0.6271,-0.6278,-0.5802,-0.5251,-0.4706,-0.1565,-0.0,-0.0,-0.0,-0.0,-0.0,0.1228,0.3692,0.0707,-0.1062,-0.2834,-0.5863,-0.7918,-0.9506,-1.093,-1.3999,-1.6568,-1.6703,-1.9062,-2.1202,-2.15,-2.277,-2.3667,-2.33,-2.4316,-2.4718,-2.3599,-2.343,-2.2982,-2.1828,-2.0303,-1.9702,-2.0451,-1.8747,-1.7816,-1.8273,-1.8665,-1.8729,-1.8375,-1.7421,-1.6807,-1.6473,-1.6213,-1.5999,-1.5832,-1.5832,-1.5832,-1.5832,-1.5832,-1.5832,-1.5818,-1.5658,-1.5518,-1.5404,0.0,-1.4839,-1.5325,-1.493,-1.5146,-1.5798,-1.5504,-1.4937,-1.4193,-1.39,-1.2745,-1.1663,-1.2905,-1.2371,-1.1393,-1.2374,-1.1604,-1.0471,-1.1041,-1.0874,-1.0716,-1.2238,-1.2192,-1.1562,-1.1206,-1.0583,-0.9805,-0.9213,-0.9019,-0.892,-0.9118,-0.9608,-0.9608,-0.8233,-0.7984,-0.7885,-0.7723,-0.7587,-0.7441,-0.7268,-0.7173,-0.7126,-0.7139,-0.6956,-0.6797,-0.6709,-0.6624,-0.6539,-0.6461,-0.6393,-0.6356,-0.6356,-0.6295,-0.6264,-0.6271,-0.6271,-0.6278,-0.6288,-0.3992,-0.2267,-0.1329,-0.047,-0.0,-0.0,-0.0,0.1437,-0.2812,-0.4676,-0.644,-0.9767,-1.1218,-1.2152,-1.3149,-1.4915,-1.6536,-1.7302,-2.0424,-2.2582,-2.144,-2.2875,-2.3972,-2.2886,-2.3711,-2.4256,-2.3483,-2.316,-2.2796,-2.1996,-2.0373,-1.9306,-1.9538,-1.8107,-1.7134,-1.7094,-1.7575,-1.7622,-1.7061,-1.6787,-1.6726,-1.6785,-1.6285,-1.6015,-1.6015,-1.592,-1.5832,-1.5832,-1.5832,-1.5832,-1.5832,-1.5792,-1.5631,-1.5411,-1.5464,0.0,-1.5418,-1.5516,-1.5635,-1.5792,-1.5279,-1.4343,-1.3176,-1.2686,-1.1516,-1.0348,-1.1651,-1.0479,-0.8926,-1.1348,-1.0549,-0.889,-1.0038,-0.9623,-0.9156,-1.0807,-1.1111,-1.0853,-1.0104,-0.9882,-0.941,-0.8233,-0.8924,-0.941,-0.8237,-0.892,-0.941,-0.8432,-0.8028,-0.7834,-0.7814,-0.7597,-0.7424,-0.7404,-0.74,-0.7353,-0.7217,-0.6959,-0.6773,-0.6736,-0.6729,-0.6722,-0.6702,-0.6559,-0.6471,-0.6471,-0.6339,-0.6338,-0.6338,-0.6278,-0.6285,-0.6278,-0.6298,-0.543,-0.3532,-0.1729,-0.0558,-0.0,-0.0,-0.0,-0.4577,-0.7687,-1.0579,-1.0631,-1.1402,-1.226,-1.2474,-1.4851,-1.7147,-1.7261,-1.9366,-2.1105,-2.1182,-2.2065,-2.2994,-2.3467,-2.4346,-2.4974,-2.5093,-2.4226,-2.3476,-2.3251,-2.1046,-1.9463,-1.9254,-1.7981,-1.7048,0.0,-1.6881,-1.6787,-1.6446,-1.6373,-1.6711,-1.7494,-1.7471,-1.7412,-1.7412,-1.6292,-1.5832,-1.5832,-1.5832,-1.5832,-1.5818,-1.5578,-1.5444,-1.5305,-1.4297,0.0,-1.5325,-1.4545,-1.4854,-1.5677,-1.4124,-1.3441,-1.3062,-1.1526,-1.0188,-0.936,-1.0509,-0.9374,-0.7822,-1.0284,-0.9447,-0.7687,-0.897,-0.8492,-0.8001,-1.0404,-0.9802,-0.8509,-0.9527,-0.9108,-0.8333,-0.8038,-0.8137,-0.8233,-0.8038,-0.8134,-0.8627,-0.9509,-0.8704,-0.796,-0.7831,-0.777,-0.7695,-0.7577,-0.756,-0.755,-0.7522,-0.7366,-0.716,-0.6915,-0.6888,-0.6837,-0.6712,-0.6559,-0.6471,-0.6471,-0.6339,-0.6338,-0.6338,-0.6373,-0.638,-0.6268,-0.6314,-0.6221,-0.5974,-0.5431,-0.3435,-0.0,-0.0,-0.0,-0.7624,-0.9592,-1.1256,-1.1983,-1.2668,-1.3165,-1.3021,-1.4828,-1.6472,-1.6291,-1.8318,-2.0076,-2.0066,-2.1355,-2.2578,-2.2773,-2.4216,-2.5147,-2.4987,-2.5146,-2.4881,-2.3781,-2.1762,-2.0109,-1.9257,-1.7806,-1.6794,-1.6506,-1.7057,-1.7093,-1.6377,-1.6793,-1.7196,-1.7692,-1.7692,-1.7692,-1.7692,-1.648,-1.5832,-1.5832,-1.5832,-1.5832,-1.5825,-1.5685,-1.5618,-1.5524,-1.4942,0.0,-1.5538,-1.5089,-1.5158,-1.5465,-1.3829,-1.2762,-1.188,-1.0299,-0.8913,-0.8076,-0.9283,-0.8562,-0.7386,-0.9707,-0.9396,-0.8101,-0.8698,-0.8941,-0.9131,-0.9844,-0.9368,-0.8573,-0.8745,-0.8409,-0.8038,-0.8038,-0.8038,-0.8038,-0.8038,-0.8038,-0.8237,-0.8825,-0.8432,-0.8018,-0.7943,-0.7865,-0.7787,-0.7719,-0.7709,-0.7682,-0.7607,-0.76,-0.7489,-0.719,-0.716,-0.7099,-0.6943,-0.6793,-0.6712,-0.6632,-0.6512,-0.6427,-0.6267,-0.6341,-0.6418,-0.6589,-0.6502,-0.6535,-0.6688,-0.6627,-0.51,-0.2296,-0.1984,-0.1931,-0.9405,-1.0257,-1.0952,-1.2551,-1.331,-1.3672,-1.3361,-1.4538,-1.5629,-1.5456,-1.7359,-1.8993,-1.8692,-2.0383,-2.1916,-2.2012,-2.3754,-2.5176,-2.547,-2.6134,-2.5949,-2.4435,-2.2519,-2.0791,-1.9351,-1.7666,-1.6587,-1.6293,-1.7352,-1.7691,-1.7021,-1.7905,-1.8503,-1.8503,-1.8234,-1.8048,-1.8048,-1.6574,-1.5832,-1.5832,-1.5832,-1.5832,-1.5832,-1.5832,-1.5832,-1.5832,-1.5832,0.0,0.0,-1.5832,-1.5658,-1.5272,-1.3774,-1.2322,-1.0919,-0.9481,-0.8111,-0.7163,-0.8408,-0.8194,-0.7647,-0.963,-0.9554,-0.8884,-0.919,-0.9976,-1.045,-0.9566,-0.94,-0.9127,-0.7999,-0.7851,-0.7997,-0.8031,-0.8038,-0.8038,-0.8038,-0.8038,-0.8038,-0.8038,-0.8038,-0.8038,-0.8038,-0.794,-0.7862,-0.7862,-0.7862,-0.7821,-0.7709,-0.779,-0.7756,-0.7495,-0.7438,-0.737,-0.7251,-0.7078,-0.6893,-0.6903,-0.6719,-0.628,-0.5635,-0.5653,-0.5729,-0.5966,-0.6508,-0.6686,-0.6753,-0.6763,-0.6235,-0.5048,-0.4535,-0.4543,-0.7051,-0.9096,-1.1084,-1.094,-1.1712,-1.2492,-1.2468,-1.4079,-1.5688,-1.5659,-1.6683,-1.7538,-1.7423,-1.8757,-2.043,-2.2187,-2.3378,-2.5292,-2.868,-2.7261,-2.6009,-2.6218,-2.349,-2.0974,-1.9373,-1.7666,-1.6587,-1.6293,-1.7151,-1.8187,-1.918,-2.0322,-2.0935,-2.0935,-1.9943,-1.9314,-1.9314,-1.7023,-1.5832,-1.5832,-1.5832,-1.5832,-1.5832,-1.5832,-1.5832,-1.5832,-1.5832,0.0,0.0,-1.5832,-1.5658,-1.5272,-1.3774,-1.2322,-1.0919,-0.9481,-0.8093,-0.7298,-0.8448,-0.8794,-0.8922,-1.0005,-0.9541,-0.8768,-1.0697,-1.081,-1.0258,-1.009,-0.9616,-0.8844,-0.7773,-0.7621,-0.7868,-0.8007,-0.8038,-0.8038,-0.8038,-0.8038,-0.8038,-0.8038,-0.8038,-0.8038,-0.8038,-0.8028,-0.8018,-0.8018,-0.8018,-0.8014,-0.8001,-0.8011,-0.7957,-0.7787,-0.7655,-0.7573,-0.756,-0.7288,-0.7041,-0.7064,-0.679,-0.5616,-0.3519,-0.341,-0.3413,-0.3435,-0.582,-0.6929,-0.6748,-0.6837,-0.6827,-0.6881,-0.6805,-0.6985,-0.4579,-0.6809,-0.8856,-0.9553,-1.0517,-1.1332,-1.139,-1.1963,-1.2535,-1.2614,-1.3458,-1.4441,-1.5148,-1.6886,-1.894,-2.1302,-2.3384,-2.5157,-2.6528,-2.6033,-2.4906,-2.3349,-2.1387,-1.9504,-1.7895,-1.7754,-1.8237,-1.9273,-1.9662,-2.0395,-2.1587,-2.1391,-2.1293,-2.1293,-2.0845,-2.0576,-2.0576,-1.8848,-1.7669,-1.6943,-1.6943,-1.6574,-1.5832,-1.5832,-1.5832,-1.5818,-1.5645,0.0,0.0,-1.5571,-1.5291,-1.4781,-1.3652,-1.2678,-1.169,-1.0386,-0.9662,-0.9309,-0.9749,-0.9923,-1.0062,-1.102,-1.0945,-1.0653,-1.1404,-1.1813,-1.1764,-1.058,-1.0081,-0.946,-0.7797,-0.759,-0.7848,-0.8004,-0.8038,-0.8038,-0.8038,-0.8038,-0.8038,-0.8038,-0.8038,-0.8038,-0.8038,-0.8038,-0.8038,-0.8038,-0.8038,-0.8038,-0.8038,-0.796,-0.7916,-0.7943,-0.7818,-0.7692,-0.7607,-0.7485,-0.7329,-0.7254,-0.6163,-0.4206,-0.1332,-0.1223,-0.1214,-0.122,-0.2283,-0.4236,-0.6994,-0.6994,-0.7017,-0.7064,-0.7071,-0.7244,-0.276,-0.5006,-0.656,-0.8303,-0.9664,-1.0497,-1.0361,-1.0595,-1.0842,-1.0646,-1.1434,-1.2602,-1.3807,-1.5993,-1.8514,0.0,0.0,-2.5049,-2.5519,-2.4956,-2.3722,-2.143,-1.9893,-1.8574,-1.7288,-1.8133,-1.9477,-2.115,-2.163,-2.2189,-2.3047,-2.2639,-2.218,-2.1845,-2.148,-2.1293,-2.1293,-2.0124,-1.9039,-1.8226,-1.8226,-1.7762,-1.6929,-1.6929,-1.6655,-1.6372,-1.6164,0.0,0.0,-1.5398,-1.505,-1.4449,-1.3843,-1.3085,-1.2242,-1.1386,-1.0864,-1.0611,-1.0956,-1.1123,-1.1273,-1.2212,-1.252,-1.2334,-1.1909,-1.2512,-1.2885,-1.0824,-0.9847,-0.9117,-0.784,-0.7594,-0.7797,-0.7994,-0.8038,-0.8038,-0.8038,-0.8038,-0.8038,-0.8038,-0.8038,-0.8038,-0.8038,-0.8038,-0.8038,-0.8038,-0.8038,-0.8038,-0.8038,-0.7906,-0.7851,-0.796,-0.7875,-0.7787,-0.7736,-0.7689,-0.7668,-0.7587,-0.6279,-0.454,-0.2215,-0.0713,-0.0,-0.0,-0.0715,-0.2777,-0.6146,-0.6869,-0.7224,-0.7207,-0.7207,-0.7265,-0.1962,-0.4049,-0.4649,-0.7023,-0.8984,-1.0154,-0.9289,-1.059,-1.16,-1.0823,-1.1466,-1.2656,-1.3814,-1.6629,-1.9621,-2.2237,-2.3569,0.0,-2.7014,-2.4732,-2.2511,-2.1735,-1.9837,-1.8529,-1.8111,-1.8986,-1.9951,-2.1203,-2.2309,0.0,-2.3135,-2.4125,-2.4211,-2.3135,-2.1933,-2.1293,-2.1293,-2.0124,-1.9488,-1.9497,-1.9497,-1.9488,-1.9497,-1.9497,-1.8772,0.0,0.0,0.0,0.0,-1.5398,-1.505,-1.4522,-1.4522,-1.3627,-1.2328,-1.2322,-1.1558,-1.0783,-1.1895,-1.2242,-1.2498,-1.373,-1.3881,-1.3389,-1.2282,-1.2706,-1.3136,-1.0872,-0.8738,-0.721,-0.7516,-0.76,-0.7675,-0.797,-0.8038,-0.8038,-0.8038,-0.8038,-0.8038,-0.8038,-0.8038,-0.8038,-0.8038,-0.8038,-0.8038,-0.8038,-0.8038,-0.8038,-0.8038,-0.7906,-0.7811,-0.7814,-0.7814,-0.7872,-0.8021,-0.7896,-0.7821,-0.7945,-0.7567,-0.723,-0.7076,-0.2535,-0.0,-0.0,-0.2325,-0.3699,-0.4051,-0.6262,-0.737,-0.737,-0.737,-0.737,-0.3923,-0.7092,-1.0317,-1.1394,-1.1278,-1.0803,-1.0106,-1.0288,-1.0563,-1.0615,-1.1749,-1.3157,-1.467,-1.722,-2.0258,-2.3698,-2.4525,0.0,-2.5376,-2.3424,-2.0976,-1.8327,-1.7527,-1.7688,-1.9217,0.0,-2.1212,-2.2403,-2.3577,-2.4255,-2.4296,-2.5294,-2.5052,-2.3135,-2.2765,-2.2492,-2.2492,-2.2129,-2.1578,-2.0747,-2.0747,-2.0305,-1.9497,-1.9497,-1.9314,0.0,0.0,0.0,0.0,-1.64,-1.5641,-1.4522,-1.4522,-1.4071,-1.3555,-1.3555,-1.3294,-1.3039,-1.3385,-1.3555,-1.3555,-1.3997,-1.3497,-1.2638,-1.2289,-1.2135,-1.1729,-0.9573,-0.8056,-0.7187,-0.739,-0.7519,-0.7648,-0.7838,-0.7963,-0.8038,-0.8038,-0.8038,-0.8038,-0.8038,-0.8038,-0.8038,-0.8038,-0.8038,-0.8038,-0.8038,-0.795,-0.7882,-0.7882,-0.7665,-0.755,-0.7655,-0.7665,-0.7726,-0.7872,-0.7933,-0.797,-0.798,-0.7702,-0.7449,-0.7279,-0.4734,-0.3035,-0.2503,-0.3213,-0.4512,-0.6282,-0.7024,-0.7387,-0.737,-0.7261,-0.7214,-0.9029,-1.1332,-1.4102,-1.376,-1.3239,-1.2613,-1.1975,-1.185,-1.195,-1.2043,-1.3519,-1.524,-1.6577,-1.9405,-2.2329,-2.4915,-2.5281,-2.5134,-2.4988,-2.2656,-1.9939,-1.7316,-1.7428,-1.8459,0.0,-2.1777,-2.2969,-2.3704,-2.5199,-2.5859,-2.5462,-2.6461,-2.6047,-2.38,-2.3714,-2.3551,-2.3135,-2.3135,-2.2931,-2.26,-2.26,-2.224,-2.1523,-2.1523,-2.0998,0.0,0.0,0.0,0.0,-1.6898,-1.5886,-1.4509,-1.4402,-1.4249,-1.4088,-1.4088,-1.4088,-1.4088,-1.4088,-1.4088,-1.4088,-1.4088,-1.2948,-1.1552,-1.1123,-1.0757,-1.0231,-0.8935,-0.785,-0.719,-0.7404,-0.7529,-0.7651,-0.7848,-0.797,-0.8038,-0.8038,-0.8038,-0.8038,-0.8038,-0.8038,-0.8038,-0.8038,-0.8038,-0.8038,-0.8038,-0.796,-0.7875,-0.7818,-0.7604,-0.7495,-0.759,-0.76,-0.7658,-0.7797,-0.795,-0.8038,-0.8038,-0.7814,-0.7563,-0.7426,-0.6265,-0.5517,-0.516,-0.5068,-0.5877,-0.7667,-0.7509,-0.7472,-0.7451,-0.7238,-0.7139,0.0,-1.6324,-1.6359,-1.4692,-1.5061,-1.5614,-1.4824,-1.5143,0.0,-1.5134,-1.6727,-1.8542,-1.9514,-2.2679,-2.5337,-2.5908,-2.5816,-2.5721,-2.5583,-2.2217,-1.9399,-1.8472,-1.9399,-2.0449,-2.14,-2.3557,-2.4957,-2.4957,-2.693,-2.7695,-2.6637,-2.7614,-2.7267,-2.5115,-2.4957,-2.4296,-2.3135,-2.3222,-2.3714,-2.4787,-2.4872,-2.4872,-2.4787,-2.4787,-2.3567,0.0,0.0,0.0,0.0,-1.7105,-1.6009,-1.4603,-1.4229,-1.4108,-1.4088,-1.4088,-1.4088,-1.4088,-1.4088,-1.4088,-1.4088,-1.3913,-1.2345,-1.0351,-0.9148,-0.8803,-0.8803,-0.8803,-0.7929,-0.7207,-0.7492,-0.7573,-0.7655,-0.794,-0.8018,-0.8024,-0.8038,-0.8038,-0.8038,-0.8038,-0.8038,-0.8038,-0.8038,-0.8041,-0.8041,-0.8041,-0.8031,-0.7974,-0.7831,-0.7678,-0.7587,-0.7597,-0.76,-0.7658,-0.7797,-0.795,-0.8038,-0.8038,-0.7896,-0.7657,-0.7442,-0.721,-0.7237,-0.7625,-0.753,-0.7567,-0.7931,-0.7678,-0.7594,-0.7577,-0.7278,-0.7139,-2.1177,0.0,-1.9879,-2.0187,-2.0239,-2.0056,0.0,-1.9855,-2.0033,-2.0179,-2.1205,-2.2459,-2.3474,-2.5011,-2.6621,-2.794,-2.7476,-2.645,-2.5013,-2.1354,-1.9374,-2.1011,-2.131,-2.2099,-2.366,-2.5219,-2.6141,-2.6141,-2.736,-2.8004,-2.7763,-2.8779,-2.8767,-2.7348,-2.6543,-2.5136,-2.3135,-2.3963,-2.4542,-2.4787,-2.5714,-2.563,-2.4787,-2.4787,-2.4029,0.0,0.0,0.0,-2.0223,-1.9057,-1.765,-1.6104,-1.4863,-1.4282,-1.4088,-1.4088,-1.4088,-1.4088,-1.4088,-1.4088,-1.3828,-1.1997,-1.1042,-1.0178,-0.8185,-0.7492,-0.7492,-0.7492,-0.7316,-0.7156,-0.7227,-0.7336,-0.7472,-0.7658,-0.7787,-0.7896,-0.8014,-0.8038,-0.8038,-0.8038,-0.8038,-0.8038,-0.8038,-0.7955,-0.7965,-0.7965,-0.797,-0.7979,-0.7945,-0.7691,-0.7468,-0.7587,-0.76,-0.7658,-0.7797,-0.795,-0.8038,-0.8038,-0.7896,-0.7797,-0.7671,-0.7533,-0.7553,-0.756,-0.7662,-0.7695,-0.7658,-0.7621,-0.7539,-0.7421,-0.7227,-0.7139,-2.4659,-2.3717,-2.2466,-2.2856,-2.3065,-2.3252,-2.3182,-2.3211,-2.326,-2.3636,-2.4563,-2.5464,-2.5931,-2.715,-2.8182,-2.8762,-2.8248,-2.6978,-2.5115,-2.2881,-2.1978,-2.3405,-2.3438,-2.389,0.0,-2.658,-2.7197,-2.7197,-2.7961,-2.859,-2.8846,-2.9207,-2.9003,-2.8164,-2.7046,-2.5641,-2.3887,-2.4457,-2.4935,-2.5211,-2.6594,-2.6501,-2.5222,-2.5449,-2.4638,0.0,0.0,0.0,-2.1159,-1.9536,-1.8065,-1.663,-1.4988,-1.4222,-1.4088,-1.4088,-1.4088,-1.4088,-1.4088,-1.4088,-1.3737,-1.1386,-1.0611,-1.0178,-0.7837,-0.7139,-0.7139,-0.7139,-0.7139,-0.7156,-0.7227,-0.7309,-0.7428,-0.7645,-0.7753,-0.7855,-0.8021,-0.7955,-0.7955,-0.7962,-0.7962,-0.7962,-0.7962,-0.7972,-0.7569,-0.6342,-0.6184,-0.6625,-0.7872,-0.7844,-0.7626,-0.7419,-0.7527,-0.7678,-0.7914,-0.7967,-0.7952,-0.8038,-0.7963,-0.7885,-0.7814,-0.7736,-0.7695,-0.7695,-0.7773,-0.7773,-0.7695,-0.757,-0.7468,-0.7383,-0.7234,-0.7074,-2.6956,-2.6042,-2.4814,-2.4545,-2.5246,-2.6058,-2.6128,-2.6205,-2.6399,-2.6741,-2.7555,-2.8169,-2.8078,-2.9226,-2.9948,-2.954,-2.8889,-2.7859,-2.6141,-2.5709,-2.558,-2.5753,-2.5689,0.0,-2.6928,-2.7867,-2.8311,-2.8227,-2.8704,-2.9202,-2.9515,-2.9151,-2.862,-2.7913,-2.6817,-2.5744,-2.4577,-2.4651,-2.4868,-2.5289,-2.692,-2.6851,-2.5411,-2.5924,-2.4988,-2.3135,0.0,0.0,-2.115,-1.9557,-1.811,-1.6615,-1.5028,-1.4291,-1.4088,-1.4088,-1.4055,-1.4021,-1.4021,-1.4021,-1.3678,-1.1375,-1.0611,-1.0178,-0.7837,-0.7139,-0.7139,-0.7139,-0.7139,-0.717,-0.7302,-0.7353,-0.7441,-0.7716,-0.7797,-0.7862,-0.7939,-0.7666,-0.7363,-0.7372,-0.7372,-0.7372,-0.7372,-0.7685,-0.7275,-0.4929,-0.3917,-0.4198,-0.6524,-0.7171,-0.7181,-0.6637,-0.6801,-0.7117,-0.7537,-0.7786,-0.7955,-0.8007,-0.8028,-0.798,-0.7851,-0.7845,-0.7834,-0.7811,-0.7814,-0.7794,-0.775,-0.7519,-0.7207,-0.6806,-0.6607,-0.6563,-2.6569,-2.7083,-2.7607,-2.7977,-2.8847,-2.9727,-3.0193,-3.0923,-3.1505,-3.1527,-3.1307,-3.1273,-3.169,-3.1616,-3.1635,-3.1973,-3.0916,-2.991,-2.9668,-2.8389,-2.7858,-2.8812,0.0,-2.8491,-2.9258,-2.9456,-2.9334,-2.8849,-2.9351,-2.9277,-2.8411,-2.8725,-2.8262,-2.6852,-2.5764,-2.4744,-2.3703,-2.4103,-2.4143,-2.3839,-2.5026,-2.5249,-2.4445,-2.4509,-2.4021,-2.3135,0.0,-2.2403,-2.1257,-2.0631,-1.8941,-1.6725,-1.6093,-1.512,-1.4088,-1.4088,-1.3928,-1.3707,-1.3707,-1.3707,-1.3328,-1.1235,-1.0611,-1.0178,-0.7837,-0.7139,-0.7139,-0.7139,-0.7139,-0.7146,-0.717,-0.7275,-0.7414,-0.759,-0.764,-0.7781,-0.7942,-0.6237,-0.462,-0.4622,-0.4622,-0.4622,-0.4622,-0.6464,-0.7815,-0.74,-0.3525,-0.0803,-0.1202,-0.3205,-0.4618,-0.4468,-0.4357,-0.4594,-0.5456,-0.7072,-0.7908,-0.7855,-0.7967,-0.8028,-0.8007,-0.8004,-0.7943,-0.7814,-0.7931,-0.7815,-0.7468,-0.753,-0.6421,-0.4216,-0.4115,-0.4148,-2.718,-2.772,-2.8381,-2.943,-3.0294,-3.101,-3.1761,-3.2321,-3.2593,-3.2593,-3.2372,-3.2346,-3.2552,-3.2706,-3.2798,-3.284,-3.1961,-3.1199,-3.0569,-2.9603,-2.909,0.0,0.0,-2.9468,-2.9739,-2.9515,-2.9214,-2.895,0.0,0.0,-2.8109,-2.7783,-2.7222,-2.6332,-2.4935,-2.3622,-2.2463,-2.2066,-2.2302,-2.3045,-2.4492,-2.4591,-2.3381,-2.3703,-2.3079,-2.1783,0.0,-2.0971,-2.005,-1.8849,-1.7564,-1.6462,-1.539,-1.4613,-1.4088,-1.4088,-1.4001,-1.3881,-1.3881,-1.3445,-1.2608,-1.1091,-1.0178,-0.9318,-0.7661,-0.7139,-0.7156,-0.7241,-0.7265,-0.7244,-0.7163,-0.7228,-0.7426,-0.7496,-0.7545,-0.771,-0.7969,-0.7077,-0.5345,-0.2416,-0.1812,-0.1812,-0.1812,-0.2823,-0.3636,-0.3636,-0.1613,-0.0,-0.0,-0.1082,-0.292,-0.5867,-0.6076,-0.5536,-0.4588,-0.6513,-0.7845,-0.7936,-0.8001,-0.8004,-0.7919,-0.7916,-0.7851,-0.7709,-0.7739,-0.697,-0.5537,-0.6788,-0.6672,-0.5385,-0.2821,-0.0092,-2.6875,-2.7307,-2.7893,-2.9795,-3.0708,-3.1406,-3.268,-3.3101,-3.3297,-3.3508,-3.3536,-3.3536,-3.3536,-3.3931,-3.4036,-3.3261,-3.2844,-3.2275,-3.0943,-3.0331,-2.998,-2.998,-2.988,-2.9741,-2.9603,-2.9189,-2.8825,0.0,0.0,0.0,-2.7207,-2.6272,-2.5438,-2.4835,-2.3525,-2.2288,-2.1074,-2.0202,-2.0381,-2.1635,-2.3174,-2.3105,-2.1539,-2.223,-2.168,-2.0208,-1.9906,-1.9342,-1.8426,-1.7196,-1.6352,-1.5818,-1.4853,-1.4328,-1.4082,-1.4008,-1.3981,-1.3981,-1.3981,-1.3368,-1.2421,-1.1021,-1.0009,-0.9061,-0.7577,-0.7139,-0.7166,-0.7285,-0.737,-0.74,-0.7192,-0.7247,-0.724,-0.6694,-0.7118,-0.777,-0.7995,-0.6995,-0.4956,-0.0808,-0.0,-0.0,-0.0,-0.0,-0.0,-0.0,-0.0,-0.0,-0.0,-0.0,-0.2066,-0.7473,-0.8034,-0.7202,-0.5123,-0.6651,-0.7754,-0.7892,-0.7861,-0.7899,-0.7814,-0.778,-0.7733,-0.7672,-0.696,-0.5956,-0.4743,-0.5238,-0.5433,-0.533,-0.0372,0.4056,-2.4196,-2.4999,-2.6116,-2.9267,-3.0414,-3.1362,-3.34,-3.4624,-3.5457,-3.6067,-3.6186,-3.6186,-3.6186,-3.6231,-3.5673,-3.3706,-3.3853,-3.359,-3.1635,0.0,-3.0557,-3.0557,-3.0105,-2.9578,-2.9038,-2.895,-2.8499,0.0,0.0,0.0,-2.4606,-2.3781,-2.2711,-2.1197,-2.1083,-2.0493,-1.9472,-1.9399,-1.8979,-1.8285,-1.9609,-1.9437,-1.7942,-1.9308,-1.9454,-1.8707,-1.8768,-1.8078,-1.7033,-1.7613,-1.6622,-1.4656,-1.5336,-1.4977,-1.4055,-1.3774,-1.3674,-1.3674,-1.3674,-1.3592,-1.3207,-1.123,-1.0524,-1.0091,-0.7749,-0.7139,-0.7143,-0.7153,-0.7275,-0.7402,-0.7392,-0.7406,-0.6783,-0.4467,-0.5965,-0.8009,-0.8022,-0.4043,-0.0505,-0.0101,-0.0,-0.0,-0.0,-0.0,-0.0,-0.0,-0.0,-0.0,-0.0,-0.0,-0.2077,-0.7409,-0.7997,-0.7946,-0.7759,-0.7704,-0.7706,-0.768,-0.763,-0.7685,-0.7804,-0.7685,-0.7682,-0.7727,-0.546,-0.5131,-0.6887,-0.2565,-0.0475,-0.038,0.4961,0.7647,-2.3893,-2.4943,-2.6269,-2.9279,-3.0066,-3.0895,-3.3703,-3.4575,-3.5055,-3.5729,-3.6207,-3.6596,-3.6985,-3.6746,-3.5942,-3.4297,-3.3933,-3.3179,-3.1204,-3.0444,-2.9845,-2.9151,-2.8687,-2.7963,-2.7023,-2.6423,0.0,0.0,0.0,0.0,-2.3052,-2.216,-2.1285,-2.0382,-1.9765,-1.9003,-1.8105,-1.8359,-1.7843,-1.6657,-1.8018,-1.8309,-1.7767,-1.7648,-1.7204,-1.659,-1.659,-1.5974,-1.5155,-1.5459,-1.5078,-1.4321,-1.4621,-1.4496,-1.4075,-1.3961,-1.3484,-1.2763,-1.2686,-1.1813,-1.057,-0.9662,-0.8957,-0.8269,-0.7401,-0.7139,-0.718,-0.7373,-0.7359,-0.7201,-0.7201,-0.7512,-0.7426,-0.6103,-0.4384,-0.303,-0.303,-0.1414,-0.0,-0.0,-0.0,-0.0,-0.0,-0.0,-0.0,-0.0,-0.0,-0.0,-0.0,-0.0,-0.0802,-0.2829,-0.6042,-0.8021,-0.7967,-0.6357,-0.5312,-0.5099,-0.6678,-0.7657,-0.7712,-0.7753,-0.7667,-0.7353,-0.6429,-0.4869,-0.2671,-0.0858,0.1726,0.5057,0.7027,0.799,-2.3294,-2.4343,-2.566,-2.8772,-2.9704,-3.0611,-3.3431,-3.4282,-3.4726,-3.5624,-3.6178,-3.6552,-3.6761,-3.6626,-3.5884,0.0,-3.3716,-3.2861,-3.0671,-2.9692,-2.8937,-2.8176,-2.7396,-2.6628,-2.5678,-2.4678,0.0,0.0,0.0,0.0,0.0,-2.0303,-1.95,-1.9008,-1.8346,-1.7718,-1.7178,-1.7598,-1.7312,-1.64,-1.6804,-1.6946,-1.6687,-1.6187,-1.5451,-1.4605,-1.4699,-1.4472,-1.3948,-1.3948,-1.3895,-1.3821,-1.3908,-1.3684,-1.3426,-1.3432,-1.2734,-1.1657,-1.1509,-1.0533,-0.9213,-0.8798,-0.8181,-0.7512,-0.7214,-0.7139,-0.7187,-0.7404,-0.7379,-0.7201,-0.7111,-0.7382,-0.7232,-0.5273,-0.2402,-0.0,-0.0,-0.0,-0.0,-0.0,-0.0,-0.0,-0.0,-0.0,-0.0,-0.0,-0.0,-0.0,-0.0,-0.0,-0.0,-0.0,-0.3328,-0.6137,-0.7868,-0.6309,-0.4776,-0.3652,-0.5361,-0.6352,-0.6356,-0.6495,-0.6822,-0.733,-0.7189,-0.4741,-0.0,-0.0,0.1852,0.551,0.7236,0.798,-2.2116,-2.288,-2.3804,-2.7559,-2.9294,-3.0559,-3.2634,-3.3803,-3.4846,-3.6193,-3.6477,-3.6282,-3.5624,-3.6043,-3.5657,-3.2988,-3.3176,-3.2711,-3.0151,-2.8846,-2.8084,-2.8084,-2.6748,-2.5531,-2.5038,0.0,0.0,0.0,0.0,0.0,0.0,-1.8172,-1.7178,-1.6685,-1.6728,-1.6665,-1.6665,-1.7158,-1.7373,-1.7373,-1.5895,-1.4848,-1.4246,-1.4567,-1.418,-1.322,-1.3507,-1.3552,-1.3552,-1.3641,-1.3467,-1.324,-1.3446,-1.2877,-1.1946,-1.204,-1.1366,-1.0325,-1.0192,-1.0201,-0.9994,-0.9047,-0.8692,-0.8475,-0.7442,-0.7139,-0.7058,-0.7081,-0.7312,-0.7557,-0.7193,-0.7106,-0.5841,-0.1106,-0.0,-0.0,-0.0,-0.0,-0.0,-0.0,-0.0,-0.0,-0.0,-0.0,-0.0,-0.0,-0.0,-0.0,-0.0,-0.0,-0.0,-0.0,-0.0,-0.2114,-0.7507,-0.7888,-0.6706,-0.3739,-0.3543,-0.3535,-0.3518,-0.355,-0.4947,-0.7915,-0.7381,-0.4668,-0.0,-0.0,-0.0,0.0098,0.5399,0.7915,-2.2506,-2.3879,-2.5684,-2.8772,-3.0072,-3.1208,-3.3533,-3.3925,-3.4173,-3.5519,-3.5804,-3.5878,-3.6148,-3.5377,0.0,-3.2847,-3.2182,-3.1453,-3.0023,-2.8846,-2.7714,-2.6622,-2.511,-2.3684,-2.2469,0.0,0.0,0.0,0.0,0.0,0.0,-1.7046,-1.6543,-1.6728,-1.6426,-1.626,-1.626,-1.6699,-1.6768,-1.6455,-1.509,-1.4588,-1.4824,-1.3615,-1.2859,-1.2585,-1.2886,-1.3013,-1.3026,-1.3247,-1.3287,-1.3141,-1.2487,-1.2023,-1.1688,-1.1039,-1.0049,-0.8946,-0.8841,-0.8303,-0.7687,-0.7412,-0.7337,-0.7379,-0.7204,-0.7074,-0.7101,-0.7128,-0.7148,-0.7279,-0.7681,-0.4897,-0.1776,-0.0302,-0.0,-0.0,-0.0,-0.0,-0.0,-0.0,-0.0,-0.0,-0.0,-0.0,-0.0,-0.0,-0.0,-0.0,-0.0,-0.0,-0.0,-0.0,-0.0,-0.0605,-0.2221,-0.241,-0.2003,-0.1102,-0.1102,-0.1095,-0.1079,-0.1086,-0.1496,-0.2322,-0.221,-0.1406,-0.0,-0.0,-0.0,-0.0,0.1605,0.4416,-2.2817,-2.4706,-2.6884,-2.9241,-3.0782,-3.2151,-3.3773,-3.3978,-3.4038,-3.4592,-3.4921,-3.5066,-3.4845,-3.4374,0.0,-3.1949,-3.1462,-3.0817,-2.9618,-2.8126,-2.6794,-2.5656,-2.3753,-2.213,0.0,0.0,0.0,0.0,0.0,0.0,0.0,-1.6311,-1.585,-1.5256,-1.5322,-1.5191,-1.4878,-1.5284,-1.5366,-1.5118,-1.4112,-1.385,-1.4266,-1.2784,-1.2191,-1.2318,-1.2619,-1.2755,-1.2585,-1.2382,-1.2171,-1.1904,-1.1077,-1.0412,-0.9958,-0.9503,-0.8582,-0.7537,-0.7438,-0.7081,-0.6536,-0.659,-0.6678,-0.6803,-0.693,-0.637,-0.5866,-0.6834,-0.7116,-0.7214,-0.7879,-0.4057,-0.0,-0.0,-0.0,-0.0,-0.0,-0.0,-0.0,-0.0,-0.0,-0.0,-0.0,-0.0,-0.0,-0.0,-0.0,-0.0,-0.0,-0.0,-0.0,-0.0,-0.0,-0.0,-0.0,-0.0,-0.0,-0.0,-0.0,-0.0,-0.0,-0.0,-0.0,-0.0,-0.0,-0.0,-0.0,-0.0,-0.0,-0.0,-0.0,0.1702,-2.3256,-2.5469,-2.7697,-2.928,-3.1567,-3.3412,-3.3464,-3.3963,-3.4203,-3.3544,-3.3856,-3.3858,-3.2449,-3.2944,-3.2903,-3.0637,-3.0632,-3.0407,-2.89,-2.7018,-2.5486,-2.4904,-2.2697,-2.0956,0.0,0.0,0.0,0.0,0.0,0.0,0.0,-1.5651,-1.4995,-1.3078,-1.3734,-1.3726,-1.3009,-1.3385,-1.3551,-1.3551,-1.3061,-1.2832,-1.2811,-1.2179,-1.1971,-1.2238,-1.2505,-1.2472,-1.2145,-1.1255,-1.0599,-1.0055,-0.9344,-0.8481,-0.7487,-0.7735,-0.7122,-0.622,-0.6234,-0.624,-0.6264,-0.642,-0.6568,-0.6559,-0.6496,-0.5279,-0.427,-0.5985,-0.6485,-0.6593,-0.7092,-0.3667,-0.0,-0.0,-0.0,-0.0,-0.0,-0.0,-0.0,-0.0,-0.0,-0.0,-0.0,-0.0,-0.0,-0.0,-0.0,-0.0,-0.0,-0.0,-0.0,-0.0,-0.0,-0.0,-0.0,-0.0,0.0202,0.0707,0.0303,-0.0,-0.0,-0.0,-0.0,-0.0,-0.0,-0.0,-0.0,-0.0,-0.0,-0.0,-0.0,-0.0,-2.4385,-2.6462,-2.8754,-3.031,-3.2872,-3.4758,-3.3707,-3.3604,-3.3514,-3.2856,-3.2709,-3.2571,-3.2234,-3.1274,-3.0261,-2.9804,-2.921,-2.8373,-2.7257,-2.6005,-2.4737,-2.3487,-2.2048,-2.0601,0.0,0.0,0.0,0.0,0.0,0.0,-1.4436,-1.4119,-1.3684,-1.3017,-1.3191,-1.3183,-1.3009,-1.3083,-1.3124,0.0,-1.2391,-1.2123,-1.2312,-1.1784,-1.1557,-1.1617,-1.1683,-1.1677,-1.1547,-1.0624,-1.0201,-0.9968,-0.8316,-0.7557,-0.7275,-0.6531,-0.6117,-0.5918,-0.6037,-0.6078,-0.6122,-0.6386,-0.6568,-0.6293,-0.4775,-0.523,-0.5673,-0.2449,-0.1512,-0.1543,-0.1659,-0.0835,-0.0,-0.0,-0.0,-0.0,-0.0,-0.0,-0.0,-0.0,-0.0,-0.0,-0.0,-0.0,-0.0,-0.0,-0.0,-0.0,-0.0,-0.0,-0.0,-0.0,-0.0,-0.0,-0.0,-0.0,0.1817,0.5974,0.2322,-0.0,-0.0,-0.0,-0.0,-0.0,-0.0,-0.0,-0.0,-0.0,-0.0,-0.0,-0.0,-0.0,-2.4862,-2.736,-3.0349,-3.262,-3.4103,-3.4831,-3.4128,-3.3384,-3.2629,-3.2029,-3.1776,-3.1516,-3.0772,-3.001,-2.9136,-2.7919,-2.7344,-2.6615,-2.537,-2.4161,-2.3026,-2.203,-2.0569,0.0,0.0,0.0,0.0,0.0,0.0,-1.419,-1.3584,-1.3421,-1.2932,-1.1856,-1.2205,-1.2266,-1.1849,-1.1461,-1.1205,-1.1205,-1.0375,-1.0263,-1.0826,-1.1216,-1.1423,-1.1423,-1.1423,-1.1349,-1.1081,-0.9843,-0.9225,-0.8918,-0.7086,-0.6405,-0.6348,-0.5881,-0.5701,-0.5732,-0.5952,-0.5983,-0.5969,-0.6271,-0.6421,-0.6103,-0.4001,-0.3526,-0.3177,-0.0694,-0.0,-0.0,-0.0,-0.1733,-0.3384,-0.3422,-0.1623,-0.0687,-0.324,-0.3788,-0.3433,-0.2115,-0.1913,-0.151,-0.0202,-0.0,-0.0,-0.0,-0.0,-0.0,-0.0,-0.0,-0.0,-0.0,-0.0,-0.0,-0.0,-0.0,0.1212,0.4041,0.3945,0.2628,0.0101,-0.0,-0.0,-0.0,-0.0,-0.0,-0.0,-0.0,-0.0,-0.0,-0.0,-0.0,-2.5229,-2.8036,-3.1678,-3.4383,-3.4916,-3.4622,-3.4297,-3.3147,-3.1889,-3.1103,-3.0834,-3.0319,-2.9035,-2.8812,-2.8138,-2.5889,-2.5553,-2.4991,-2.3408,-2.2212,-2.1176,-2.037,-1.8874,0.0,0.0,0.0,0.0,0.0,0.0,-1.3852,-1.2729,-1.2891,-1.224,-1.0441,-1.1031,-1.0968,-1.0168,-0.946,-0.9052,-0.9006,-0.842,-0.8575,-0.935,-1.0651,-1.1276,-1.1276,-1.1276,-1.1142,-1.0784,-0.9081,-0.8225,-0.7837,-0.6113,-0.5452,-0.5442,-0.5504,-0.5552,-0.5589,-0.5861,-0.5871,-0.5817,-0.6125,-0.6239,-0.5983,-0.4161,-0.1979,-0.0,-0.0,-0.0,-0.018,-0.0988,-0.4137,-0.7135,-0.7131,-0.413,-0.2439,-0.6463,-0.7671,-0.7366,-0.5127,-0.4722,-0.3817,-0.1105,-0.0705,-0.0706,-0.0706,-0.0706,-0.0706,-0.0706,-0.0706,-0.0706,-0.0706,-0.0303,-0.0,-0.0,-0.0,-0.0,-0.0,0.4152,0.5069,0.1515,0.0505,-0.0,-0.0,-0.0,-0.0,-0.0,-0.0,-0.0,-0.0,-0.0,-0.0,-2.6094,-2.8622,-3.1366,-3.3099,-3.4419,-3.5011,-3.3594,-3.2695,-3.1761,-3.0285,-2.9413,-2.8639,-2.8027,-2.6932,-2.574,-2.4675,-2.4166,-2.3234,-2.1441,-2.1034,-2.0247,-1.8516,-1.8082,0.0,0.0,0.0,0.0,0.0,-1.3845,-1.3126,-1.1655,-1.1655,-1.0976,-0.9542,-0.9588,-0.9198,-0.835,-0.8221,-0.8116,-0.7913,-0.8545,-0.9045,-0.9338,-1.0251,-1.0739,-1.0739,-1.0739,-1.0719,-1.0507,-0.8887,-0.8164,-0.7852,-0.6177,-0.5477,-0.5428,-0.5452,-0.5459,-0.5416,-0.5589,-0.5637,-0.5671,-0.5976,-0.6156,-0.6222,-0.5965,-0.3144,-0.0,-0.0,-0.0,-0.0988,-0.5041,-0.6588,-0.7131,-0.7111,-0.6879,-0.6225,-0.4869,-0.6321,-0.7851,-0.7556,-0.7475,-0.6656,-0.3917,-0.3515,-0.3515,-0.3515,-0.3515,-0.3515,-0.3515,-0.3515,-0.3515,-0.3515,-0.1407,-0.0,-0.0,-0.0,-0.0,-0.0,0.0706,0.2828,0.679,0.2424,-0.0,-0.0,-0.0,-0.0,-0.0,-0.0,-0.0,-0.0,-0.0,-0.0,-2.7716,-2.9138,-3.0692,-3.3082,-3.3758,-3.3747,-3.3249,-3.2143,-3.0788,-2.9443,-2.8195,-2.7343,-2.7288,-2.6347,-2.4994,-2.3304,-2.2636,-2.1711,-1.9807,-1.9403,-1.8745,-1.7314,-1.674,0.0,0.0,0.0,0.0,0.0,-1.3673,-1.3114,-1.1767,-1.1025,-1.0344,-0.9563,-0.8879,-0.842,-0.8027,-0.7502,-0.7006,-0.6407,-0.7684,-0.8373,-0.8613,-0.997,-1.0624,-1.0631,-1.0735,-1.0715,-1.0454,-0.8937,-0.8159,-0.7842,-0.6163,-0.542,-0.5428,-0.5428,-0.5428,-0.5449,-0.5538,-0.5535,-0.5528,-0.5918,-0.5241,-0.4502,-0.5863,-0.3364,-0.0,-0.0,-0.0,-0.1062,-0.5841,-0.7125,-0.7111,-0.7098,-0.7185,-0.7037,-0.6236,-0.7021,-0.8004,-0.7952,-0.7972,-0.7669,-0.6442,-0.6245,-0.6247,-0.6247,-0.6247,-0.6247,-0.6247,-0.6247,-0.6247,-0.6247,-0.5236,-0.3922,-0.241,-0.0905,-0.0,-0.0,-0.0,0.101,0.3433,0.1212,-0.0,-0.0,-0.0,-0.0,-0.0,-0.0,-0.0,-0.0,-0.0,-0.0,-2.8711,-2.9429,-3.0241,-3.2514,-3.2849,-3.2582,-3.2481,-3.1266,-2.9834,-2.8612,-2.7242,-2.6266,-2.6324,-2.5729,-2.4497,-2.2534,-2.1653,-2.0609,-1.9012,-1.834,-1.7647,-1.6706,-1.6,0.0,0.0,0.0,0.0,0.0,-1.4099,-1.346,-1.1955,-1.074,-0.9845,-0.9388,-0.8275,-0.7572,-0.7312,-0.6677,-0.5963,-0.5425,-0.6722,-0.7487,-0.7697,-0.9256,-0.9907,-0.9989,-1.0398,-1.036,-0.9874,-0.8654,-0.7923,-0.7517,-0.6041,-0.543,-0.5428,-0.5428,-0.5428,-0.5446,-0.5491,-0.5457,-0.543,-0.5785,-0.4431,-0.2948,-0.4309,-0.2534,-0.0,-0.0,-0.0,-0.1057,-0.5836,-0.7125,-0.7108,-0.7094,-0.7104,-0.7192,-0.7543,-0.7845,-0.7959,-0.8041,-0.7952,-0.7965,-0.7965,-0.7972,-0.7975,-0.7975,-0.7975,-0.7975,-0.7975,-0.7975,-0.7975,-0.7975,-0.7982,-0.7163,-0.5227,-0.3217,-0.1408,-0.0101,-0.0,-0.0,-0.0,-0.0,-0.0,-0.0,-0.0,-0.0,-0.0,-0.0,-0.0,-0.0,-0.0,-0.0,-2.8019,-2.9267,-3.0394,-3.0533,-3.1568,-3.2242,-3.0842,-3.0055,-2.9123,-2.7665,-2.6471,-2.5485,-2.5023,-2.4431,-2.374,-2.2839,-2.1544,-2.0302,-1.9396,-1.8539,-1.7647,-1.6706,-1.6567,0.0,0.0,0.0,0.0,0.0,-1.5092,-1.4159,-1.2026,-1.074,-0.9565,-0.8498,-0.7343,-0.64,-0.5557,-0.5277,-0.5281,-0.5425,-0.6097,-0.654,-0.6785,-0.7697,-0.8156,-0.8166,-0.9124,-0.9025,-0.8077,-0.7588,-0.714,-0.6688,-0.601,-0.5606,-0.5428,-0.5428,-0.5428,-0.5428,-0.5435,-0.5435,-0.5416,-0.5461,-0.4227,-0.2431,-0.0795,-0.0165,-0.0,-0.0,-0.0,-0.1077,-0.5858,-0.7135,-0.7128,-0.7108,-0.7118,-0.7161,-0.757,-0.7831,-0.8041,-0.8038,-0.8041,-0.8041,-0.8041,-0.8041,-0.8041,-0.8041,-0.8041,-0.8041,-0.8041,-0.8041,-0.8041,-0.8041,-0.7962,-0.7972,-0.7769,-0.7695,-0.5457,-0.0302,-0.0,-0.0,-0.0,-0.0,-0.0,-0.0,-0.0,-0.0,-0.0,-0.0,-0.0,-0.0,-0.0,-0.0,-2.7431,-2.8261,-2.9194,-3.0125,-3.0577,-3.0703,-3.0494,-2.9483,-2.8354,-2.7465,-2.6377,-2.5435,-2.4921,-2.4368,-2.3617,-2.2411,-2.1491,-2.0654,-1.9796,-1.8942,-1.8155,-1.7533,-1.7189,0.0,0.0,0.0,0.0,0.0,0.0,-1.3613,-1.2224,-1.032,-0.9072,-0.8641,-0.6819,-0.5686,-0.5428,-0.5209,-0.5209,-0.5425,-0.6097,-0.648,-0.6719,-0.7927,-0.8138,-0.7494,-0.8208,-0.8508,-0.8505,-0.8324,-0.7844,-0.7043,-0.5962,-0.546,-0.5428,-0.5428,-0.5428,-0.5428,-0.5428,-0.5428,-0.5413,-0.5519,-0.4656,-0.3018,-0.0715,-0.0,-0.0,-0.0,-0.0,-0.0353,-0.2142,-0.3678,-0.4848,-0.4832,-0.4865,-0.49,-0.5023,-0.6563,-0.7962,-0.7962,-0.8048,-0.8038,-0.8038,-0.8038,-0.8038,-0.8038,-0.8038,-0.8038,-0.8038,-0.8038,-0.8038,-0.8038,-0.8045,-0.7952,-0.7952,-0.7975,-0.6456,-0.2812,-0.0905,-0.0,-0.0,-0.0,-0.0,-0.0,-0.0,-0.0,-0.0,-0.0,-0.0,-0.0,-0.0,-0.0,-2.7406,-2.7821,-2.8331,-2.9344,-2.9448,-2.9214,-2.9352,-2.8579,-2.767,-2.7118,-2.6251,-2.5485,-2.5146,-2.4644,-2.3891,-2.2823,-2.1823,-2.1029,-2.0651,-1.9595,-1.874,-1.8424,-1.8063,0.0,0.0,0.0,0.0,0.0,0.0,0.0,-1.199,-0.9991,-0.8523,-0.7762,-0.6233,-0.5369,-0.5372,-0.527,-0.527,-0.5372,-0.5849,-0.6108,-0.628,-0.7227,-0.6898,-0.5627,-0.5396,-0.5851,-0.6758,-0.6842,-0.6595,-0.6102,-0.5635,-0.5518,-0.5433,-0.5449,-0.5396,-0.543,-0.5446,-0.5463,-0.5481,-0.5674,-0.5228,-0.436,-0.2606,-0.114,-0.0,-0.0,-0.0,-0.0,-0.0,-0.1165,-0.242,-0.2416,-0.303,-0.3584,-0.361,-0.5489,-0.7256,-0.7869,-0.7955,-0.8038,-0.8038,-0.7997,-0.798,-0.8031,-0.7994,-0.798,-0.8031,-0.8038,-0.8038,-0.8038,-0.8038,-0.8038,-0.8038,-0.7959,-0.726,-0.5434,-0.201,-0.0,-0.0,-0.0,-0.0,-0.0,-0.0,-0.0,-0.0,-0.0,-0.0,-0.0,-0.0,-0.0,0.0,0.0,0.0,-2.8084,-2.8097,-2.7959,-2.7431,-2.7306,-2.7155,-2.6603,-2.6038,-2.5636,-2.5598,-2.5184,-2.4669,-2.413,-2.248,-2.1431,-2.1922,-2.0471,-1.9297,-1.9326,-1.9316,0.0,0.0,0.0,0.0,0.0,-1.4273,-1.3251,-1.1272,-0.9793,-0.8045,-0.5755,-0.5528,-0.5382,-0.5319,-0.5319,-0.5319,-0.5316,-0.5316,-0.5316,-0.5319,-0.5252,-0.4298,-0.2542,-0.0734,-0.0868,-0.2487,-0.2838,-0.3231,-0.3689,-0.5121,-0.5665,-0.5566,-0.5416,-0.5457,-0.5562,-0.5413,-0.546,-0.5616,-0.5708,-0.5959,-0.6281,-0.6298,-0.3455,-0.0172,-0.0,-0.0,-0.0,-0.0,-0.0,-0.0,-0.0,-0.1827,-0.3545,-0.3711,-0.461,-0.5927,-0.7662,-0.7955,-0.8038,-0.8038,-0.7916,-0.7868,-0.8018,-0.7913,-0.7872,-0.8021,-0.8038,-0.8038,-0.8038,-0.8038,-0.8038,-0.8041,-0.7962,-0.7979,-0.7992,-0.3118,-0.0201,-0.0,-0.0,-0.0,-0.0,-0.0,-0.0,-0.0,-0.0,-0.0,-0.0,-0.0,-0.0,-2.5983,0.0,0.0,0.0,0.0,0.0,-2.7908,-2.7871,-2.772,-2.7168,-2.6929,-2.6565,-2.5749,-2.5473,-2.5335,-2.5172,-2.3234,-2.1933,-2.2436,-2.0668,-1.9521,-2.0137,-1.9231,0.0,0.0,0.0,0.0,0.0,-1.2589,-1.1806,-1.1194,-0.9043,-0.7124,-0.5755,-0.5528,-0.4788,-0.3445,-0.3445,-0.3476,-0.3472,-0.3472,-0.3443,-0.3381,-0.2074,-0.1244,-0.0668,0.1136,0.241,0.2958,0.0272,-0.1696,-0.3149,-0.4815,-0.5443,-0.542,-0.5446,-0.5456,-0.542,-0.5442,-0.546,-0.5613,-0.5762,-0.6017,-0.6366,-0.6576,-0.5679,-0.39,-0.0859,-0.0,-0.0,-0.0,-0.0,-0.0,-0.0,-0.0554,-0.2084,-0.5931,-0.5503,-0.5125,-0.7572,-0.7959,-0.8038,-0.8038,-0.8004,-0.7991,-0.8031,-0.8004,-0.7991,-0.8035,-0.8038,-0.8038,-0.8038,-0.8038,-0.8045,-0.7962,-0.7969,-0.7985,-0.8012,-0.6578,-0.4038,-0.0202,-0.0,-0.0,-0.0,-0.0,-0.0,-0.0,-0.0,-0.0,-0.0,-0.0,-0.0,-2.4552,-2.5362,-2.634,-2.634,0.0,0.0,-2.7419,-2.7419,-2.7318,0.0,-2.6942,-2.6741,-2.6076,-2.5963,-2.5815,-2.5394,-2.3664,-2.2529,-2.295,-2.0808,-1.9383,-1.9866,0.0,0.0,0.0,-1.5809,-1.4689,-1.2984,-1.198,-1.1016,-0.9943,-0.7807,-0.6407,-0.5782,-0.4801,-0.3392,-0.1571,-0.2847,-0.2808,-0.1568,-0.1547,-0.1561,-0.1477,0.1091,0.2283,0.2344,0.3349,0.4439,0.5202,0.2317,-0.0397,-0.2876,-0.4716,-0.5432,-0.545,-0.5452,-0.5403,-0.5447,-0.5452,-0.5501,-0.5691,-0.5776,-0.6051,-0.6445,-0.6628,-0.6636,-0.5918,-0.2338,-0.0705,-0.0,-0.0,-0.0,-0.0,-0.0,-0.1555,-0.3826,-0.6907,-0.6435,-0.5968,-0.764,-0.7959,-0.8038,-0.8038,-0.7987,-0.7967,-0.8031,-0.7895,-0.7882,-0.7945,-0.7959,-0.7962,-0.7962,-0.7962,-0.7965,-0.7979,-0.6954,-0.6762,-0.7918,-0.8026,-0.5567,-0.0202,-0.0,-0.0,-0.0,-0.0,-0.0,-0.0,-0.0,-0.0,-0.0,-0.0,-0.0,-2.3368,-2.412,-2.5004,-2.5004,-2.5734,0.0,-2.6533,-2.664,-2.6734,0.0,-2.6764,-2.679,-2.6658,-2.6589,-2.6151,-2.5158,-2.3715,-2.2789,-2.308,-2.0738,-1.8912,-1.8789,0.0,0.0,-1.5779,-1.5448,-1.4518,-1.2413,-1.1813,-1.0463,-0.7986,-0.6559,-0.5817,-0.5775,-0.3866,-0.2004,-0.0267,-0.2931,-0.2953,-0.0511,-0.0186,-0.0,0.0129,0.3361,0.5,0.5386,0.5379,0.5389,0.5259,0.324,0.0453,-0.286,-0.4884,-0.5654,-0.5528,-0.5557,-0.5595,-0.5549,-0.5447,-0.5583,-0.5806,-0.5823,-0.6122,-0.6478,-0.6478,-0.6798,-0.6455,-0.3564,-0.1413,-0.0,-0.0,-0.0,-0.009,-0.0629,-0.406,-0.7218,-0.7145,-0.7267,-0.7577,-0.7872,-0.7932,-0.8021,-0.8038,-0.7929,-0.7885,-0.8024,-0.7848,-0.772,-0.7547,-0.7572,-0.7578,-0.7578,-0.7578,-0.7682,-0.7992,-0.5842,-0.5238,-0.6995,-0.7098,-0.4956,-0.0202,-0.0,-0.0,-0.0,-0.0,-0.0,-0.0,-0.0,-0.0,-0.0,-0.0,-0.0,-2.2478,-2.3599,-2.5004,-2.5004,-2.5734,0.0,-2.6533,-2.7361,-2.8007,0.0,-2.8359,-2.8798,-2.7683,-2.6828,-2.6064,-2.5134,-2.2886,-2.1201,-2.1008,-1.9486,-1.8205,-1.7705,0.0,0.0,-1.5696,-1.4015,-1.2747,-1.2328,-1.031,-0.844,-0.6878,-0.6193,-0.5806,-0.5751,-0.4204,-0.2881,-0.1753,-0.2365,-0.2948,-0.361,-0.1189,-0.0,-0.0,0.0701,0.2648,0.542,0.5397,0.5386,0.5173,0.2022,-0.044,-0.2655,-0.6141,-0.6557,-0.5308,-0.6257,-0.6082,-0.5437,-0.5644,-0.5694,-0.5775,-0.5889,-0.6153,-0.6347,-0.6347,-0.6656,-0.6222,-0.1864,-0.0269,-0.0,-0.0,-0.0,-0.0988,-0.477,-0.6762,-0.7757,-0.7441,-0.7614,-0.7811,-0.7778,-0.7774,-0.7899,-0.7942,-0.7942,-0.7935,-0.7975,-0.7959,-0.7135,-0.5022,-0.4822,-0.4824,-0.4824,-0.4824,-0.5641,-0.7808,-0.75,-0.5562,-0.1817,-0.1515,-0.1111,-0.0,-0.0,-0.0,-0.0,-0.0,-0.0,-0.0,-0.0,-0.0,-0.0,-0.0,-0.0,-2.1451,-2.2403,-2.3531,-2.3798,-2.4802,0.0,0.0,-2.6769,-2.7417,-2.7159,-2.7639,-2.7945,-2.7214,-2.6296,-2.5368,-2.4397,-2.2229,-2.0203,-1.8991,-1.7865,-1.6993,-1.6601,-1.5545,0.0,-1.4099,-1.3002,-1.1809,-1.0697,-0.8703,-0.7312,-0.6671,-0.6088,-0.6022,-0.6535,-0.5242,-0.4295,-0.3781,-0.3612,-0.3887,-0.4464,-0.2978,-0.0489,0.2656,0.1789,0.2847,0.5411,0.5408,0.5379,0.5166,0.1694,-0.1741,-0.5008,-0.6719,-0.6535,-0.5401,-0.6503,-0.6275,-0.5508,-0.5668,-0.5751,-0.5561,-0.4643,-0.4491,-0.4716,-0.4691,-0.5799,-0.6579,-0.4202,-0.269,-0.179,-0.179,-0.179,-0.2417,-0.4752,-0.6491,-0.753,-0.7322,-0.7386,-0.7214,-0.5937,-0.5719,-0.6222,-0.7736,-0.6853,-0.6037,-0.6042,-0.7175,-0.7491,-0.6158,-0.3626,-0.2013,-0.2013,-0.2013,-0.2518,-0.3939,-0.4041,-0.2828,-0.0202,-0.0,-0.0,-0.0,-0.0,-0.0,-0.0,-0.0,-0.0,-0.0,-0.0,-0.0,-0.0,-0.0,-0.0,-2.0566,-2.1298,-2.2168,-2.2734,-2.3964,-2.5109,0.0,0.0,0.0,-2.6714,-2.6688,-2.6676,-2.6496,-2.5475,0.0,-2.3125,0.0,0.0,0.0,-1.6193,0.0,-1.5423,-1.4657,0.0,-1.2413,-1.1895,-1.0763,-0.8665,-0.7355,-0.6688,-0.6658,-0.6142,-0.6194,-0.7036,-0.6036,-0.5382,-0.5373,-0.5087,-0.4461,-0.3554,-0.3532,-0.0565,0.4865,0.4078,0.4316,0.5401,0.562,0.5575,0.5103,0.1703,-0.2624,-0.7021,-0.7096,-0.647,-0.5734,-0.6759,-0.6498,-0.5554,-0.5771,-0.5755,-0.5386,-0.3852,-0.3004,-0.2669,-0.346,-0.5258,-0.6936,-0.7004,-0.5695,-0.4265,-0.4265,-0.4275,-0.4287,-0.4285,-0.5752,-0.7171,-0.707,-0.7208,-0.6521,-0.4044,-0.3553,-0.4526,-0.7537,-0.625,-0.4423,-0.3416,-0.5046,-0.6483,-0.6483,-0.2726,-0.0,-0.0,-0.0,-0.0,-0.0,-0.0,-0.0,-0.0,-0.0,-0.0,-0.0,-0.0,-0.0,-0.0,-0.0,-0.0,-0.0,-0.0,-0.0,-0.0,-0.0,-0.0,-2.0566,-2.1298,-2.2242,-2.3154,-2.4218,-2.5288,-2.6158,0.0,-2.7537,-2.7537,0.0,-2.7155,-2.6413,0.0,0.0,0.0,0.0,0.0,-1.611,-1.4502,-1.3698,-1.4226,-1.4166,0.0,0.0,-1.0438,-0.8649,-0.7218,-0.6881,-0.6641,-0.6505,-0.6183,-0.6016,-0.595,-0.5717,-0.5437,-0.5108,-0.5095,-0.3403,-0.0128,-0.0128,0.0959,0.3085,0.6086,0.6689,0.5446,0.6441,0.6316,0.5109,0.1671,-0.1908,-0.5414,-0.7466,-0.7502,-0.6417,-0.7737,-0.7015,-0.552,-0.6006,-0.5848,-0.5475,-0.5777,-0.3372,-0.1025,-0.4781,-0.6163,-0.6466,-0.6682,-0.6728,-0.6737,-0.6737,-0.6737,-0.6732,-0.6723,-0.7105,-0.7451,-0.7204,-0.7493,-0.7003,-0.4175,-0.3623,-0.4546,-0.7459,-0.7711,-0.5969,-0.1211,-0.0707,-0.0909,-0.0909,-0.0404,-0.0,-0.0,-0.0,-0.0,-0.0,-0.0,-0.0,-0.0,-0.0,-0.0,-0.0,-0.0,-0.0,-0.0,-0.0,-0.0,-0.0,-0.0,-0.0,-0.0,-0.0,-0.0,-2.0566,-2.0857,-2.1314,-2.1988,0.0,0.0,-2.4167,0.0,-2.5274,0.0,0.0,0.0,0.0,0.0,0.0,0.0,-1.8348,0.0,0.0,0.0,-1.276,0.0,0.0,0.0,0.0,0.0,0.0,0.0,-0.6736,-0.6634,-0.6481,-0.619,-0.63,-0.6903,-0.6075,-0.6028,-0.6785,-0.3708,-0.1378,0.0197,0.2303,0.4017,0.5325,0.6811,0.7003,0.6173,0.6798,0.569,0.3135,0.0967,-0.2577,-0.6746,-0.7284,-0.6791,-0.5959,-0.7342,-0.684,-0.5646,-0.61,-0.5899,-0.5503,-0.6119,-0.5129,-0.3791,-0.4279,-0.5373,-0.6475,-0.6615,-0.6841,-0.6953,-0.6953,-0.7058,-0.7071,-0.7068,-0.7224,-0.6921,-0.5363,-0.6359,-0.6746,-0.4085,-0.2501,-0.195,-0.317,-0.3309,-0.2625,-0.0303,-0.0,-0.0,-0.0,-0.0,-0.0,-0.0,-0.0,-0.0,-0.0,-0.0,-0.0,-0.0,-0.0,-0.0,-0.0,-0.0,-0.0,-0.0,-0.0,-0.0,-0.0,-0.3131,-0.4649,-0.4549,-0.1414,-0.0,-2.042,0.0,0.0,0.0,0.0,0.0,0.0,0.0,0.0,0.0,0.0,0.0,0.0,0.0,-1.897,-1.8655,0.0,-1.4419,0.0,-1.2112,0.0,0.0,0.0,0.0,0.0,0.0,0.0,-0.6719,-0.6661,-0.6573,-0.6427,-0.6213,-0.6464,-0.7261,-0.5796,-0.5234,-0.572,-0.1901,0.0536,0.1621,0.4177,0.5852,0.6639,0.7161,0.7012,0.64,0.7227,0.547,0.1931,0.0586,-0.2894,-0.7158,-0.6102,-0.5276,-0.4888,-0.6875,-0.6725,-0.5718,-0.6146,-0.5588,-0.472,-0.5277,-0.5786,-0.6045,-0.4468,-0.514,-0.6548,-0.6491,-0.6646,-0.6865,-0.6865,-0.7004,-0.7143,-0.7061,-0.7081,-0.649,-0.4099,-0.4406,-0.5009,-0.4631,-0.2106,-0.0,-0.0,-0.0,-0.0,-0.0,-0.0,-0.0,-0.0,-0.0,-0.0,-0.0,-0.0,-0.0,-0.0,-0.0,-0.0,-0.0,-0.0,-0.0,-0.0,-0.0,-0.0,-0.0,-0.0,-0.0,-0.0,-0.5363,-0.8026,-0.7918,-0.2522,-0.0,0.0,0.0,0.0,-2.1146,0.0,0.0,0.0,0.0,-2.3187,0.0,0.0,0.0,-1.9118,-1.7185,-1.542,-1.4386,-1.3427,0.0,0.0,-0.9916,-0.9705,-1.0549,0.0,0.0,0.0,0.0,-0.6871,-0.6712,-0.6563,-0.6424,-0.6291,-0.6274,-0.629,-0.6321,-0.4276,-0.2101,0.0145,0.0069,0.1828,0.5527,0.545,0.5439,0.5495,0.7186,0.7055,0.5561,0.7756,0.6465,0.2542,0.0734,-0.2174,-0.5275,-0.3557,-0.2829,-0.3186,-0.669,-0.6899,-0.549,-0.6089,-0.4788,-0.2868,-0.3099,-0.4623,-0.6273,-0.6244,-0.6285,-0.6285,-0.6278,-0.6485,-0.6709,-0.6709,-0.6922,-0.7058,-0.7078,-0.7094,-0.6462,-0.4113,-0.1792,-0.1538,-0.6118,-0.3245,-0.0,-0.0,-0.0,-0.0,-0.0,-0.0,-0.0,-0.0,-0.0,-0.0,-0.0,-0.0,-0.0,-0.0,-0.0,-0.0,-0.0,-0.0,-0.0,-0.0,-0.0,-0.0,-0.0,-0.0,-0.0,-0.0,-0.5363,-0.8026,-0.7918,-0.2517,-0.0,0.0,0.0,-1.9919,-1.9992,0.0,0.0,0.0,0.0,0.0,0.0,0.0,0.0,0.0,-1.5502,-1.4198,-1.3012,-1.2009,-1.0855,0.0,-0.85,-0.7989,-0.8277,-0.7925,-0.7712,0.0,0.0,0.0,-0.6563,-0.642,-0.6325,-0.6281,-0.4929,-0.4844,-0.6247,-0.5632,-0.3485,0.0073,0.281,0.4617,0.5477,0.5308,0.5213,0.5246,0.6341,0.6613,0.6399,0.7716,0.6125,0.2544,0.0745,-0.2148,-0.5364,-0.4728,-0.373,-0.2991,-0.5393,-0.5895,-0.5504,-0.6105,-0.5654,-0.4782,-0.5087,-0.5736,-0.6297,-0.6331,-0.6268,-0.6285,-0.6376,-0.6546,-0.6725,-0.6749,-0.6924,-0.7078,-0.7091,-0.7111,-0.685,-0.6117,-0.281,-0.0457,-0.2091,-0.1125,-0.0,-0.0,-0.0,-0.0,-0.0,-0.0,-0.0,-0.0,-0.0,-0.0,-0.0,-0.0,-0.0,-0.0,-0.0,-0.0,-0.0,-0.0,-0.0,-0.0,-0.0,-0.0,-0.0,-0.0,-0.0,-0.0,-0.1814,-0.4541,-0.7922,-0.6171,-0.3426,-1.9248,-1.9258,0.0,-1.9121,-1.9258,0.0,-1.9658,0.0,-1.9126,0.0,0.0,0.0,0.0,-1.3199,-1.194,-1.1155,-1.0067,-0.9139,0.0,-0.7577,-0.7139,-0.7139,-0.7139,-0.7105,-0.7014,-0.6868,-0.6719,-0.6654,-0.6517,-0.6342,0.0,0.0,-0.416,-0.4093,-0.4076,-0.2781,-0.0,0.2709,0.4224,0.4582,0.437,0.4532,0.504,0.5548,0.5876,0.6103,0.6087,0.5138,0.3489,0.1013,-0.229,-0.5741,-0.5741,-0.4984,-0.4102,-0.5327,-0.5751,-0.578,-0.6057,-0.6067,-0.5924,-0.6086,-0.619,-0.62,-0.6247,-0.6338,-0.6291,-0.643,-0.6583,-0.6725,-0.6749,-0.693,-0.7078,-0.7132,-0.7088,-0.6678,-0.4949,-0.2177,-0.0,-0.0,-0.0,-0.0,-0.0,-0.0,-0.0,-0.0,-0.0,-0.0707,-0.2625,-0.2827,-0.2119,-0.0202,-0.0,-0.0,-0.0,-0.0,-0.0,-0.0,-0.0,-0.0,-0.0,-0.0,-0.0,-0.0,-0.0,-0.0,-0.0,-0.0,-0.2719,-0.8026,-0.8026,-0.6171]},{"header":{"parameterUnit":"m.s-1","parameterCategory":1,"la1":30.6,"la2":29.2853,"lo1":-89.7004,"lo2":-87.6739,"dy":0.0162,"dx":0.0183,"nx":112,"ny":82,"refTime":"2023-07-12T06:00:00:Z","depth":0,"parameterNumber":3,"parameterNumberName":"V-component_of_WINDS"},"data":[0.0,0.0,0.0,0.0,0.0,0.0,0.0,0.0,0.0,0.0,0.0,0.0,0.0,0.0,0.0,0.0,0.0,0.0,0.0,0.0,0.0,0.0,0.0,0.0,0.0,0.0,0.0,0.0,0.0,0.0,0.0,0.0,0.0,0.0,0.0,0.0,0.0,0.0,0.0,0.0,0.0,0.0,0.0,0.0,0.0,0.0,0.0,0.0,0.0,0.0,0.0,0.0,0.0,0.0,0.0,0.0,0.0,0.0,0.0,0.0,0.0,0.0,0.0,0.0,0.0,0.0,0.0,0.0,0.0,0.0,0.0,0.0,0.0,0.0,0.0,0.0,0.0,0.0,0.0,0.0,0.0,0.0,0.0,0.0,0.0,0.0,0.0,0.0,0.0,0.0,-3.0777,-2.7269,-2.4919,-2.4276,-2.592,-2.6638,-2.744,-2.8287,0.0,0.0,0.0,0.0,0.0,0.0,0.0,0.0,0.0,0.0,0.0,0.0,0.0,0.0,0.0,0.0,0.0,0.0,0.0,0.0,0.0,0.0,0.0,0.0,0.0,0.0,0.0,0.0,0.0,0.0,0.0,0.0,0.0,0.0,0.0,0.0,0.0,0.0,0.0,0.0,0.0,0.0,0.0,0.0,0.0,0.0,0.0,0.0,0.0,0.0,0.0,0.0,0.0,0.0,0.0,0.0,0.0,0.0,0.0,0.0,0.0,0.0,0.0,0.0,0.0,0.0,0.0,0.0,0.0,0.0,0.0,0.0,0.0,0.0,0.0,0.0,0.0,0.0,0.0,0.0,0.0,0.0,0.0,0.0,0.0,0.0,0.0,0.0,0.0,0.0,0.0,0.0,0.0,0.0,0.0,0.0,0.0,0.0,0.0,0.0,0.0,0.0,0.0,0.0,-2.9628,-2.5599,-2.3711,-2.3368,-2.488,-2.595,-2.6921,-2.7791,0.0,0.0,0.0,0.0,0.0,0.0,0.0,0.0,0.0,0.0,0.0,0.0,0.0,0.0,0.0,0.0,0.0,0.0,0.0,0.0,0.0,0.0,0.0,0.0,0.0,0.0,0.0,0.0,0.0,0.0,0.0,0.0,0.0,0.0,0.0,0.0,0.0,0.0,0.0,0.0,0.0,0.0,0.0,0.0,0.0,0.0,0.0,0.0,0.0,0.0,0.0,0.0,0.0,0.0,0.0,0.0,0.0,0.0,0.0,0.0,0.0,0.0,0.0,0.0,0.0,0.0,0.0,0.0,0.0,0.0,0.0,0.0,0.0,0.0,0.0,0.0,0.0,0.0,0.0,0.0,0.0,0.0,0.0,0.0,0.0,0.0,0.0,0.0,0.0,0.0,0.0,0.0,0.0,0.0,0.0,0.0,0.0,0.0,0.0,0.0,0.0,0.0,0.0,-3.123,-2.8787,-2.5515,-2.4596,-2.4282,-2.4493,-2.6725,-2.8016,-2.774,-2.9627,0.0,0.0,0.0,0.0,0.0,0.0,0.0,0.0,0.0,0.0,0.0,0.0,0.0,0.0,0.0,0.0,0.0,0.0,0.0,0.0,0.0,0.0,0.0,0.0,0.0,0.0,0.0,0.0,0.0,0.0,0.0,0.0,0.0,0.0,0.0,0.0,0.0,0.0,0.0,0.0,0.0,0.0,0.0,0.0,0.0,0.0,0.0,0.0,0.0,0.0,0.0,0.0,0.0,0.0,0.0,0.0,0.0,0.0,0.0,0.0,0.0,0.0,0.0,0.0,0.0,0.0,0.0,0.0,0.0,0.0,0.0,0.0,0.0,0.0,0.0,0.0,0.0,0.0,0.0,0.0,0.0,0.0,0.0,0.0,0.0,0.0,0.0,0.0,0.0,0.0,0.0,0.0,0.0,0.0,0.0,0.0,0.0,0.0,0.0,0.0,0.0,0.0,-3.0366,-2.8053,-2.602,-2.536,-2.5036,-2.5007,-2.7329,-2.8735,-2.8531,-3.0494,0.0,0.0,0.0,0.0,0.0,0.0,0.0,0.0,0.0,0.0,0.0,0.0,0.0,0.0,0.0,0.0,0.0,0.0,0.0,0.0,0.0,0.0,0.0,0.0,0.0,0.0,0.0,0.0,0.0,0.0,0.0,0.0,0.0,0.0,0.0,0.0,0.0,0.0,0.0,0.0,0.0,0.0,0.0,0.0,0.0,0.0,0.0,0.0,0.0,0.0,0.0,0.0,0.0,0.0,0.0,0.0,0.0,0.0,0.0,0.0,0.0,0.0,0.0,0.0,0.0,0.0,0.0,0.0,0.0,0.0,0.0,0.0,0.0,0.0,0.0,0.0,0.0,0.0,0.0,0.0,0.0,0.0,0.0,0.0,0.0,0.0,0.0,0.0,0.0,0.0,0.0,0.0,0.0,0.0,0.0,0.0,0.0,0.0,0.0,0.0,0.0,0.0,-2.9965,-2.7584,-2.6859,-2.4783,-2.4579,-2.7201,-2.7088,-2.8045,-3.0665,-3.1055,0.0,0.0,0.0,0.0,0.0,0.0,0.0,0.0,0.0,0.0,0.0,0.0,0.0,0.0,0.0,0.0,0.0,0.0,0.0,0.0,0.0,0.0,0.0,0.0,0.0,0.0,0.0,0.0,0.0,0.0,0.0,0.0,0.0,0.0,0.0,0.0,0.0,0.0,0.0,0.0,0.0,0.0,0.0,0.0,0.0,0.0,0.0,0.0,0.0,0.0,0.0,0.0,0.0,0.0,0.0,0.0,0.0,0.0,0.0,0.0,0.0,0.0,0.0,0.0,0.0,0.0,0.0,0.0,0.0,0.0,0.0,0.0,0.0,0.0,0.0,0.0,0.0,0.0,0.0,0.0,0.0,0.0,0.0,0.0,0.0,0.0,0.0,0.0,0.0,0.0,0.0,0.0,0.0,0.0,0.0,0.0,0.0,0.0,0.0,0.0,0.0,0.0,-3.1831,-2.9637,-2.8801,-2.7538,-2.7062,-2.8027,-2.9294,-3.0518,-3.1657,0.0,0.0,0.0,0.0,0.0,0.0,0.0,0.0,0.0,0.0,0.0,0.0,0.0,0.0,0.0,0.0,0.0,0.0,0.0,0.0,0.0,0.0,0.0,0.0,0.0,0.0,0.0,0.0,0.0,0.0,0.0,0.0,0.0,0.0,0.0,0.0,0.0,0.0,0.0,0.0,0.0,0.0,0.0,0.0,0.0,0.0,0.0,0.0,0.0,0.0,0.0,0.0,0.0,0.0,0.0,0.0,0.0,0.0,0.0,0.0,0.0,0.0,0.0,0.0,0.0,0.0,0.0,0.0,0.0,0.0,0.0,0.0,0.0,0.0,0.0,0.0,0.0,0.0,0.0,0.0,0.0,0.0,0.0,0.0,0.0,0.0,0.0,0.0,0.0,0.0,0.0,0.0,0.0,0.0,0.0,0.0,0.0,0.0,0.0,0.0,0.0,0.0,-3.5702,-3.3095,-3.1043,-3.0338,-2.9259,-2.8692,-2.8937,-3.0537,-3.1735,-3.2236,0.0,0.0,0.0,0.0,0.0,0.0,0.0,0.0,0.0,0.0,0.0,0.0,0.0,0.0,0.0,0.0,0.0,0.0,0.0,0.0,0.0,0.0,0.0,0.0,0.0,0.0,0.0,0.0,0.0,0.0,0.0,0.0,0.0,0.0,0.0,0.0,0.0,0.0,0.0,0.0,0.0,0.0,0.0,0.0,0.0,0.0,0.0,0.0,0.0,0.0,0.0,0.0,0.0,0.0,0.0,0.0,0.0,0.0,0.0,0.0,0.0,0.0,0.0,0.0,0.0,0.0,0.0,0.0,0.0,0.0,0.0,0.0,0.0,0.0,0.0,0.0,0.0,0.0,0.0,0.0,0.0,0.0,0.0,0.0,0.0,0.0,0.0,0.0,0.0,0.0,0.0,0.0,0.0,0.0,0.0,0.0,0.0,0.0,0.0,0.0,0.0,0.0,-3.622,-3.3389,-3.1428,-3.1336,-2.9417,-2.8757,-3.0199,-3.0334,-3.0961,0.0,0.0,0.0,0.0,0.0,0.0,0.0,0.0,0.0,0.0,0.0,0.0,0.0,0.0,0.0,0.0,0.0,0.0,0.0,0.0,0.0,0.0,0.0,0.0,0.0,0.0,0.0,0.0,0.0,0.0,0.0,0.0,0.0,0.0,0.0,0.0,0.0,0.0,0.0,0.0,0.0,0.0,0.0,0.0,0.0,0.0,0.0,0.0,0.0,0.0,0.0,0.0,0.0,0.0,0.0,0.0,0.0,0.0,0.0,0.0,0.0,0.0,0.0,0.0,0.0,0.0,0.0,0.0,0.0,0.0,0.0,0.0,0.0,0.0,0.0,0.0,0.0,0.0,0.0,0.0,0.0,0.0,0.0,0.0,0.0,0.0,0.0,0.0,0.0,0.0,0.0,0.0,0.0,0.0,0.0,0.0,0.0,0.0,0.0,0.0,0.0,0.0,0.0,-3.6893,-3.4566,-3.3126,-3.3609,-3.1762,-3.1106,-3.2524,-3.2214,-3.2507,-3.3921,0.0,0.0,0.0,0.0,0.0,0.0,0.0,0.0,0.0,0.0,0.0,0.0,0.0,0.0,0.0,0.0,0.0,0.0,0.0,0.0,0.0,0.0,0.0,0.0,0.0,0.0,0.0,0.0,0.0,0.0,0.0,0.0,0.0,0.0,0.0,0.0,0.0,0.0,0.0,0.0,0.0,0.0,0.0,0.0,0.0,0.0,0.0,0.0,0.0,0.0,0.0,0.0,0.0,0.0,0.0,0.0,0.0,0.0,0.0,0.0,0.0,0.0,0.0,0.0,0.0,0.0,0.0,0.0,0.0,0.0,0.0,0.0,0.0,0.0,0.0,0.0,0.0,0.0,0.0,0.0,0.0,0.0,0.0,0.0,0.0,0.0,0.0,0.0,0.0,0.0,0.0,0.0,0.0,0.0,0.0,0.0,0.0,0.0,0.0,0.0,0.0,0.0,-3.719,-3.5299,-3.4126,-3.4558,-3.3257,-3.2695,-3.3534,-3.3495,-3.3623,-3.4133,0.0,0.0,0.0,0.0,0.0,0.0,0.0,0.0,0.0,0.0,0.0,0.0,0.0,0.0,0.0,0.0,0.0,0.0,0.0,0.0,0.0,0.0,0.0,0.0,0.0,0.0,0.0,0.0,0.0,0.0,0.0,0.0,0.0,0.0,0.0,0.0,0.0,0.0,0.0,0.0,0.0,0.0,0.0,0.0,0.0,0.0,0.0,0.0,0.0,0.0,0.0,0.0,0.0,0.0,0.0,0.0,0.0,0.0,0.0,0.0,0.0,0.0,0.0,0.0,0.0,0.0,0.0,0.0,0.0,0.0,0.0,0.0,0.0,0.0,0.0,0.0,0.0,0.0,0.0,0.0,0.0,0.0,0.0,0.0,0.0,0.0,0.0,0.0,0.0,0.0,0.0,0.0,0.0,0.0,0.0,0.0,0.0,0.0,0.0,0.0,0.0,0.0,-3.7152,-3.5697,-3.469,-3.4669,-3.4063,-3.3646,-3.3788,-3.4284,-3.4327,-3.3617,0.0,0.0,0.0,0.0,0.0,0.0,0.0,0.0,0.0,0.0,0.0,0.0,0.0,0.0,0.0,0.0,0.0,0.0,0.0,0.0,0.0,0.0,0.0,0.0,0.0,0.0,0.0,0.0,0.0,0.0,0.0,0.0,0.0,0.0,0.0,0.0,0.0,0.0,0.0,0.0,0.0,0.0,0.0,0.0,0.0,0.0,0.0,0.0,0.0,0.0,0.0,0.0,0.0,0.0,0.0,0.0,0.0,0.0,0.0,0.0,-3.3284,0.0,0.0,0.0,0.0,0.0,0.0,0.0,0.0,0.0,0.0,0.0,0.0,0.0,0.0,0.0,0.0,0.0,0.0,0.0,0.0,0.0,0.0,0.0,0.0,0.0,0.0,0.0,0.0,0.0,0.0,0.0,0.0,0.0,0.0,0.0,0.0,0.0,0.0,0.0,0.0,0.0,-3.669,-3.6422,-3.6067,-3.5458,-3.4761,-3.457,-3.5144,-3.4847,-3.4515,-3.4303,-3.4597,0.0,0.0,0.0,0.0,0.0,0.0,0.0,0.0,0.0,0.0,0.0,0.0,0.0,0.0,0.0,0.0,0.0,0.0,0.0,0.0,0.0,0.0,0.0,0.0,0.0,0.0,0.0,0.0,0.0,0.0,0.0,0.0,0.0,0.0,0.0,0.0,0.0,0.0,0.0,0.0,0.0,0.0,0.0,0.0,0.0,0.0,0.0,0.0,0.0,0.0,0.0,0.0,0.0,0.0,0.0,0.0,0.0,0.0,0.0,0.0,-3.2785,0.0,0.0,0.0,0.0,0.0,0.0,0.0,0.0,0.0,0.0,0.0,0.0,0.0,0.0,0.0,0.0,0.0,0.0,0.0,0.0,0.0,0.0,0.0,0.0,0.0,0.0,0.0,0.0,0.0,0.0,0.0,0.0,0.0,0.0,0.0,0.0,0.0,0.0,0.0,0.0,-3.7532,-3.7069,-3.662,-3.6214,-3.5534,-3.5207,-3.5577,-3.5253,-3.4935,-3.4539,-3.4827,0.0,0.0,0.0,0.0,0.0,0.0,0.0,0.0,0.0,0.0,0.0,0.0,0.0,0.0,0.0,0.0,0.0,0.0,0.0,0.0,0.0,0.0,0.0,0.0,0.0,0.0,0.0,0.0,0.0,0.0,0.0,0.0,0.0,0.0,0.0,0.0,0.0,0.0,0.0,0.0,0.0,0.0,0.0,0.0,0.0,0.0,0.0,0.0,0.0,0.0,0.0,0.0,0.0,-3.211,-3.2453,-3.2365,-3.2521,-3.2992,-3.3573,-3.3433,-3.2947,-3.2445,-3.4687,0.0,0.0,0.0,0.0,0.0,0.0,0.0,0.0,0.0,0.0,0.0,0.0,0.0,0.0,0.0,0.0,0.0,0.0,0.0,0.0,0.0,0.0,0.0,0.0,-4.3897,-4.4175,0.0,0.0,0.0,0.0,0.0,0.0,0.0,0.0,0.0,0.0,0.0,0.0,-3.8338,-3.7536,-3.6924,-3.6789,-3.6079,-3.5622,-3.5622,-3.5622,-3.5301,-3.4539,-3.5199,-3.5351,0.0,0.0,0.0,0.0,0.0,0.0,0.0,0.0,0.0,0.0,0.0,0.0,0.0,0.0,0.0,0.0,0.0,0.0,0.0,0.0,0.0,0.0,0.0,0.0,0.0,0.0,0.0,0.0,0.0,0.0,0.0,0.0,-3.5211,-3.3617,0.0,0.0,0.0,0.0,0.0,0.0,0.0,0.0,0.0,0.0,0.0,0.0,0.0,-3.5472,-3.5723,-3.4714,-3.4252,-3.4252,-3.3862,-3.342,-3.3041,-3.3907,-3.4708,-3.5292,-3.5642,0.0,-3.3622,-3.4726,0.0,0.0,0.0,0.0,0.0,0.0,0.0,0.0,0.0,0.0,0.0,0.0,0.0,0.0,0.0,0.0,0.0,0.0,0.0,0.0,0.0,0.0,-4.5369,-4.458,-4.5367,-4.6113,0.0,-4.3915,-4.2492,-4.2653,-4.1989,0.0,0.0,0.0,0.0,0.0,0.0,0.0,-3.732,-3.7445,-3.7499,-3.6857,-3.6079,-3.5622,-3.5622,-3.5622,-3.5301,-3.4539,-3.5199,-3.5571,-3.547,-3.5571,0.0,0.0,0.0,0.0,0.0,0.0,0.0,0.0,0.0,0.0,0.0,0.0,0.0,0.0,0.0,0.0,0.0,0.0,0.0,0.0,0.0,0.0,0.0,0.0,0.0,0.0,0.0,0.0,0.0,-3.4058,-3.3919,-3.1717,-3.2158,-3.204,0.0,0.0,0.0,0.0,0.0,0.0,0.0,0.0,0.0,-3.6086,-3.6532,-3.6669,-3.6489,-3.6606,-3.6348,-3.5601,-3.5982,-3.5876,-3.5389,-3.5789,-3.636,-3.6888,-3.6756,-3.6664,-3.6531,-3.6157,-3.5804,-3.5551,0.0,0.0,0.0,0.0,-3.7778,-3.875,-4.0304,-4.1023,0.0,-4.2444,0.0,0.0,0.0,0.0,0.0,0.0,0.0,0.0,0.0,0.0,-4.5184,-4.502,-4.5718,-4.6501,-4.6727,-4.5277,-4.3984,0.0,-4.4369,-4.4048,-4.269,0.0,0.0,0.0,0.0,-4.0577,-3.9273,-3.8671,-3.8123,-3.7479,-3.6332,-3.5622,-3.5622,-3.5622,-3.547,-3.5148,-3.5436,-3.5808,-3.6265,-3.6671,-3.7026,0.0,0.0,0.0,0.0,0.0,0.0,0.0,0.0,0.0,0.0,0.0,0.0,0.0,0.0,0.0,0.0,0.0,0.0,0.0,0.0,0.0,0.0,0.0,0.0,0.0,0.0,0.0,0.0,-3.3365,-3.3255,-3.0745,-3.1932,-3.2211,0.0,0.0,0.0,0.0,0.0,0.0,-3.5923,-3.6546,-3.723,-3.8135,-3.8523,-3.853,-3.8153,-3.8492,-3.8081,-3.7158,-3.7536,-3.7497,-3.7151,-3.7393,-3.7808,-3.8337,-3.7723,-3.8102,-3.9042,-3.7572,-3.6954,-3.6866,-3.6505,-3.7318,-3.8717,-3.8621,-3.9189,-4.0307,-4.1953,-4.2837,-4.3271,-4.3589,0.0,-4.4049,-4.2887,0.0,0.0,0.0,0.0,-4.3497,-4.3497,-4.417,-4.4878,-4.5133,-4.5904,-4.6637,-4.6958,-4.624,-4.5469,0.0,-4.5793,-4.5608,-4.3809,0.0,0.0,0.0,0.0,-4.1425,-4.0639,-3.946,-3.8466,-3.7865,-3.6491,-3.5622,-3.5622,-3.5622,-3.5622,-3.5622,-3.5808,-3.618,-3.6755,-3.7499,-3.7652,-3.7077,0.0,0.0,0.0,0.0,0.0,0.0,0.0,0.0,0.0,0.0,0.0,0.0,0.0,0.0,0.0,0.0,0.0,0.0,0.0,0.0,0.0,0.0,0.0,0.0,0.0,0.0,0.0,0.0,0.0,-3.1971,-3.3988,0.0,0.0,0.0,0.0,-3.4322,-3.5579,-3.6626,-3.7285,-3.8516,-3.983,-4.1114,-4.1816,-4.238,-4.2962,-4.0785,-3.9686,-3.96,-3.7928,-3.7097,-3.7151,-3.8125,-3.8953,-3.9441,-3.8694,-3.9149,-4.0339,-3.8458,-3.8396,-3.9477,-3.8766,-3.8686,-3.9092,-4.0516,-4.0654,-4.0398,-4.2501,-4.3294,-4.3502,-4.4628,-4.4867,-4.4674,-4.4582,-4.4033,0.0,0.0,-4.3461,-4.3497,-4.3497,-4.435,-4.5196,-4.5196,-4.6127,-4.6986,-4.7013,-4.669,-4.619,0.0,-4.4406,-4.3626,-4.3516,0.0,-4.301,-4.1759,-4.219,-4.1887,-3.9833,-3.9073,-3.8417,-3.7577,-3.6358,-3.5622,-3.5622,-3.5622,-3.5622,-3.5622,-3.6315,-3.6738,-3.6772,-3.7499,-3.7889,-3.7855,-3.7889,0.0,0.0,0.0,0.0,0.0,0.0,0.0,0.0,0.0,0.0,0.0,0.0,0.0,0.0,0.0,0.0,0.0,0.0,0.0,0.0,0.0,0.0,0.0,0.0,0.0,0.0,0.0,0.0,-3.1653,-3.3757,0.0,-3.3633,-3.4868,-3.5938,-3.6327,-3.7614,-3.8841,-3.9918,-4.0831,-4.1728,-4.2611,-4.2865,-4.2701,-4.2087,-4.1689,-4.079,-3.955,-3.9335,-3.8975,-3.8629,-3.9056,-3.941,-3.9591,-3.991,-4.0018,-4.0054,-3.9874,-4.0037,-4.0293,-3.8758,-3.9622,-4.1727,-4.1772,-4.2216,-4.2962,-4.4108,-4.4445,-4.4453,-4.4738,-4.4419,-4.3989,-4.4184,-4.4059,-4.3899,-4.4154,-4.4035,-4.3881,-4.4136,-4.4166,-4.4249,-4.4711,-4.4946,-4.5065,-4.5065,-4.4995,-4.4736,-4.4258,-4.4223,-4.4103,-4.3589,-4.3497,-4.3353,-4.2883,-4.2575,-4.2232,-4.1654,-4.0024,-3.8901,-3.8807,-3.7186,-3.6097,-3.6097,-3.5827,-3.5739,-3.6097,-3.6397,-3.6887,-3.7753,-3.8032,-3.8188,-3.8188,-3.8188,-3.7965,0.0,0.0,0.0,0.0,0.0,0.0,0.0,0.0,0.0,0.0,0.0,0.0,0.0,0.0,0.0,0.0,0.0,0.0,0.0,0.0,0.0,0.0,0.0,0.0,0.0,0.0,-3.2935,-3.1982,-3.4153,-3.5391,-3.4629,-3.6094,-3.7389,-3.8033,-3.9334,-4.0561,-4.1654,-4.2327,-4.2895,-4.3329,-4.312,-4.2581,-4.1728,-4.1698,-4.1055,-3.9753,-3.9963,-3.9723,-3.905,-3.9458,-3.9442,-3.9276,-3.9929,-4.0043,-3.9849,-4.0091,-4.0529,-4.0864,-3.9444,-4.0418,-4.2582,-4.2494,-4.2911,-4.3707,-4.4756,-4.5048,-4.4885,-4.4748,-4.4158,-4.3548,-4.3772,-4.3818,-4.3881,-4.4136,-4.4035,-4.3881,-4.4154,-4.3943,-4.3772,-4.428,-4.4175,-4.4016,-4.4016,-4.3893,-4.3791,-4.3548,-4.392,-4.4121,-4.3589,-4.3497,-4.3497,-4.3497,-4.3039,-4.2587,-4.2232,-4.0601,-3.9355,-3.9022,-3.7312,-3.6242,-3.6242,-3.5935,-3.5852,-3.6202,-3.6504,-3.7031,-3.7895,-3.8244,-3.8302,-3.8091,-3.808,-3.8072,-3.8089,0.0,0.0,0.0,0.0,0.0,0.0,0.0,0.0,0.0,0.0,0.0,0.0,0.0,0.0,0.0,0.0,0.0,0.0,0.0,0.0,0.0,0.0,0.0,-3.1808,-3.326,-3.3983,-3.3133,-3.5278,-3.6462,-3.5408,-3.7187,-3.8721,-3.9394,-4.0651,-4.1654,-4.2297,-4.2925,-4.3284,-4.3299,-4.2671,-4.2327,-4.2327,-4.1055,-4.0382,-4.0367,-3.9709,-3.9035,-3.8447,-3.9198,-3.9199,-3.8678,-3.8803,-3.924,-3.9841,-3.9221,-3.9871,-4.1169,-4.105,-4.11,-4.1409,-4.2768,-4.2788,-4.2457,-4.4306,-4.4851,-4.4672,-4.4672,-4.414,-4.3479,-4.3513,-4.3513,-4.3513,-4.3513,-4.3513,-4.3513,-4.3513,-4.3758,-4.3986,-4.4016,-4.3986,-4.3967,-4.3949,-4.3689,-4.3442,-4.3424,-4.3442,-4.3461,-4.3497,-4.3497,-4.3497,-4.3497,-4.3461,0.0,-4.135,-4.0631,-3.9679,-3.8144,-3.6774,-3.595,-3.5932,-3.5932,-3.5915,-3.5897,-3.6695,-3.7193,-3.7212,-3.8205,-3.8381,-3.769,-3.7653,-3.8118,-3.9043,0.0,0.0,0.0,0.0,0.0,0.0,0.0,0.0,0.0,0.0,0.0,0.0,0.0,0.0,0.0,0.0,0.0,0.0,0.0,0.0,0.0,-3.2157,-3.2961,-3.1685,-3.2657,-3.3669,-3.416,-3.5229,-3.6239,-3.7017,-3.8086,-3.9119,-4.0039,-4.0905,-4.1459,-4.1639,-4.1818,-4.2147,-4.2611,-4.1983,-4.1654,-4.1654,-4.0816,-4.0157,-3.9679,-3.9005,-3.8907,-3.9281,-3.9109,-3.9189,-3.9573,-4.0222,-4.0361,-4.005,-4.0402,-4.0714,-4.0982,-4.0959,-4.161,-4.2748,-4.3439,-4.3827,-4.3969,-4.3944,-4.3887,-4.3828,-4.3828,-4.3681,-4.3548,-4.3804,-4.3849,-4.3912,-4.4242,-4.4076,-4.3943,-4.4223,-4.3974,-4.3693,-4.3924,-4.3804,-4.3498,-4.2908,-4.2699,-4.2451,-4.1882,-4.2231,-4.2818,-4.3387,-4.3497,-4.3497,-4.3497,-4.3002,0.0,-4.2029,-4.083,-3.9849,-3.941,-3.8158,-3.711,-3.652,-3.6114,-3.5829,-3.5641,-3.6393,-3.7109,-3.7676,-3.853,-3.8998,-3.9029,-3.934,-3.9611,0.0,0.0,0.0,0.0,0.0,0.0,0.0,0.0,0.0,0.0,0.0,0.0,0.0,0.0,0.0,0.0,0.0,0.0,0.0,0.0,0.0,0.0,-3.3424,-3.427,-3.3541,-3.3804,-3.4458,-3.5586,-3.5964,-3.6754,-3.8292,-3.8808,-3.946,-4.0293,-4.0756,-4.1085,-4.1369,-4.1384,-4.1549,-4.1938,-4.1309,-4.0965,-4.0965,-4.0322,-3.9986,-3.992,-3.958,-3.9487,-3.9737,-3.9706,-3.9658,0.0,-4.0369,-4.0493,-4.0104,-4.0544,-4.081,0.0,0.0,0.0,0.0,0.0,-4.3742,-4.4121,-4.3644,-4.3497,-4.3497,-4.3497,-4.3497,-4.3548,-4.3726,-4.3804,-4.3836,-4.4065,-4.3974,-4.3836,-4.4065,-4.3823,-4.3548,-4.374,-4.3387,-4.2873,-4.2396,-4.2047,-4.1662,-4.1203,-4.1754,0.0,-4.291,-4.3002,-4.3002,-4.3002,-4.2304,-4.168,-4.1332,-4.0469,-3.9625,-3.8964,-3.7904,-3.7035,-3.6581,-3.6233,0.0,0.0,0.0,-3.8052,-3.879,-3.9293,0.0,0.0,0.0,-4.0329,-4.1092,0.0,0.0,0.0,-4.3561,-4.4303,0.0,0.0,0.0,0.0,0.0,0.0,0.0,0.0,0.0,0.0,0.0,0.0,0.0,0.0,0.0,0.0,-3.4936,-3.5467,-3.6229,-3.6008,-3.6044,-3.6796,-3.6727,-3.7288,-3.8957,-3.922,-3.9503,-4.0247,-4.0367,-4.0621,-4.113,0.0,0.0,0.0,0.0,-4.0322,-4.0397,-3.9811,-3.992,-4.069,-4.0655,-4.0383,-4.0051,-4.0557,-4.0127,-3.9086,-3.9782,-4.0121,-4.0204,-4.0204,-4.0546,-4.1087,-4.1087,-4.149,-4.2062,-4.2598,-4.3087,-4.3497,-4.3497,0.0,0.0,-4.3497,-4.3497,-4.3497,-4.3497,-4.3497,-4.3497,-4.3497,-4.3497,-4.3497,-4.3497,-4.3497,-4.3461,-4.3387,-4.2818,-4.2249,-4.2066,-4.1479,-4.0946,-4.0855,-4.1479,-4.2029,-4.2029,-4.2176,-4.2304,-4.2353,-4.1673,-4.0864,-4.0099,-3.9989,-3.9393,-3.7771,0.0,0.0,-3.6342,-3.624,-3.6515,-3.7364,-3.8459,-3.9387,-4.008,-4.0214,-4.0405,-4.0718,-4.0081,-4.0562,-4.2148,-4.1475,-4.2435,-4.4844,-4.4766,-4.5162,0.0,0.0,0.0,0.0,0.0,0.0,0.0,0.0,0.0,0.0,0.0,0.0,0.0,0.0,0.0,-3.6325,-3.7272,-3.7783,-3.7132,-3.7209,-3.6958,-3.5756,-3.4468,-3.4617,-3.7067,-3.7825,-3.8516,-3.9516,-4.0098,-4.0232,-3.9828,-3.9798,-4.0038,-4.0576,-3.9948,-3.9858,-4.0397,-4.0451,-4.0554,-4.0675,0.0,0.0,-4.0745,-3.9752,-3.9528,-3.9901,-4.002,-4.0336,-4.075,-4.075,-4.1358,-4.2342,-4.2342,-4.2675,-4.3196,-4.3286,-4.341,-4.3497,-4.3497,-4.3497,-4.3497,-4.3497,-4.3497,-4.3497,-4.3497,-4.3497,0.0,-4.3497,-4.3497,-4.3497,-4.3497,-4.3497,-4.3332,-4.269,-4.2415,-4.1937,-4.0634,-4.023,-3.9937,-3.9294,-3.9808,-4.0359,-4.0359,-4.1442,-4.2386,-4.2668,-4.2025,-4.1287,-4.0708,-4.064,-3.9984,-3.8314,-3.779,-3.7318,-3.6679,-3.5763,-3.5726,-3.6798,-3.8169,-3.9296,-4.0153,-4.0441,-4.0651,-4.0791,-4.0745,-4.0889,-4.1251,-4.1837,-4.2762,-4.396,-4.4526,-4.5243,0.0,0.0,0.0,0.0,0.0,0.0,0.0,0.0,0.0,0.0,0.0,-3.865,-3.7662,0.0,-3.8466,-3.7473,-3.8145,-3.8549,-3.7901,-3.6803,-3.609,-3.6014,-3.528,-3.5386,-3.698,-3.7724,-3.8353,-3.8829,-3.9529,-3.9768,-3.9439,-3.9424,-3.976,-4.0548,-4.0228,-4.0408,-4.1217,-4.1319,-4.1354,-4.1453,-4.1197,-4.1074,-4.1071,-4.0391,-4.0205,-4.0497,-4.0497,-4.0827,-4.1358,-4.1664,-4.2162,-4.275,-4.2976,-4.325,-4.3497,-4.3497,-4.3497,-4.3497,-4.3497,-4.3497,-4.3497,-4.3497,-4.3497,-4.3497,-4.3497,-4.3497,-4.3497,-4.3497,-4.3497,-4.3406,-4.3002,-4.3185,-4.3185,-4.1992,-4.1699,-4.1368,-4.0157,-3.957,-3.9184,-3.8781,-3.9448,-4.0115,-4.0115,-4.0929,-4.1566,-4.1566,-4.0859,-4.0307,-4.0207,-4.0198,-3.9708,-3.8486,-3.8216,-3.7802,-3.6977,-3.6379,-3.6352,-3.7049,-3.7848,-3.8747,-3.9753,-4.0044,-4.0401,-4.0797,-4.1007,-4.1276,-4.1646,-4.2155,-4.2841,-4.3711,-4.4082,-4.4941,0.0,0.0,0.0,0.0,0.0,0.0,0.0,-4.2473,-4.1816,-4.1434,-4.119,-4.0612,-3.8995,-4.0018,-4.0546,-3.8826,-3.9008,-3.9145,-3.8695,-3.6635,-3.5574,-3.6606,-3.6447,-3.6517,-3.7187,-3.7704,-3.8123,-3.8362,-3.8901,-3.9346,-3.9666,-3.9666,-4.006,-4.0946,-4.0821,-4.1091,-4.1789,-4.1788,-4.1869,-4.1988,-4.2128,-4.1909,-4.1393,-4.1307,-4.1209,-4.1087,-4.1223,-4.1534,-4.2021,-4.2598,-4.2864,-4.2902,-4.3321,-4.3497,-4.3497,-4.3497,-4.3497,-4.3497,-4.3497,-4.3497,-4.3497,-4.3497,-4.3497,-4.3497,-4.3497,-4.3497,-4.3497,-4.3497,-4.3497,-4.3332,-4.269,-4.2892,-4.2892,-4.146,-4.0983,-4.0653,-3.9845,-3.9191,-3.8792,-3.8792,-3.9639,-4.0354,-4.0186,-4.0534,-4.0747,-4.0525,-3.9806,-3.9414,-3.9716,-3.9778,-3.9475,-3.8662,-3.8372,-3.7818,-3.6734,-3.6828,-3.7028,-3.726,-3.7433,-3.811,-3.9392,-3.958,-3.9964,-4.057,-4.0955,-4.1299,-4.1543,-4.1797,-4.2363,-4.3203,-4.3203,-4.4141,-4.5744,-4.5744,-4.5341,-4.3688,-4.3518,-4.3963,0.0,-4.3877,-4.286,-4.2265,-4.2509,-4.2375,-4.0927,-4.1656,-4.2191,-4.1377,-4.1157,-4.0651,-3.9484,-3.8549,-3.759,-3.6671,-3.52,-3.4903,-3.6455,-3.6656,-3.7165,-3.8302,-3.8467,-3.9088,-4.0454,-4.0554,-4.0946,-4.1804,-4.1215,-4.0896,-4.1023,-4.1054,-4.1107,-4.114,-4.18,-4.2046,-4.202,-4.1831,-4.1709,-4.1707,-4.2262,-4.2537,-4.2655,-4.3178,-4.341,-4.341,-4.3497,-4.3497,-4.3497,-4.3497,-4.3497,-4.3497,-4.3497,-4.3497,-4.3497,-4.3497,-4.3497,-4.3497,-4.3497,-4.3497,-4.3497,-4.3497,-4.3497,-4.3461,-4.3387,-4.2892,-4.2213,-4.1313,-4.0561,-3.9808,-3.9019,-3.8939,-3.9063,-3.9063,-4.0033,-4.0594,-3.9816,-4.0354,-4.0957,-4.1157,-4.0496,-4.0081,-4.0353,-4.0406,-4.0098,-3.9292,-3.8282,-3.6939,-3.5111,-3.5837,-3.6405,-3.642,-3.6779,-3.7771,-3.9498,-3.9603,-3.9688,-3.9816,-4.0604,-4.0305,-3.8848,-3.9746,-4.0625,-4.1484,-4.1484,-4.2383,-4.5842,-4.5534,-4.5137,-4.4827,-4.4935,-4.5185,-4.5438,-4.4759,-4.3919,-4.3394,-4.3472,-4.3374,-4.2469,-4.2743,-4.2794,-4.1922,-4.13,-4.0355,-3.8492,-3.8003,-3.7345,-3.6073,-3.6039,-3.6421,-3.7143,-3.7525,-3.84,-3.9788,-4.029,-4.0782,-4.1396,-4.1478,-4.1869,-4.2724,-4.2024,-4.2035,-4.2864,-4.2469,-4.2227,-4.2135,-4.2405,-4.2349,-4.1911,-4.1823,-4.1979,-4.2342,-4.2921,-4.3178,-4.3178,-4.341,-4.3497,-4.3497,-4.3497,-4.3497,-4.3497,-4.3497,-4.3497,-4.3497,-4.3497,-4.3497,-4.3497,-4.3497,-4.3497,-4.3497,-4.3497,-4.3497,-4.3497,-4.3497,-4.3497,-4.3387,-4.291,-4.2543,-4.1974,-4.0708,-4.0139,-3.9706,-3.9061,-3.9008,-3.9178,-3.9339,-4.0329,-4.0851,-4.0034,-4.0728,-4.1285,-4.0879,-4.0424,-4.0195,-4.0473,-4.0489,-4.0181,-3.9392,-3.797,-3.676,-3.5935,-3.5848,-3.5856,-3.5891,-3.6099,-3.6781,-3.803,-3.8159,-3.8404,-3.883,-3.922,-3.9077,-3.8341,-3.8803,-3.9258,-3.9687,-3.9687,-4.0332,-4.4965,-4.4796,-4.4845,-4.5183,-4.5609,-4.5932,-4.5827,-4.54,-4.4777,-4.3848,-4.3872,-4.3825,-4.3176,-4.3145,-4.2994,-4.2357,-4.17,-4.0546,-3.8366,-3.8086,-3.7674,-3.6545,-3.7359,-3.8262,-3.8886,-3.9015,-3.9614,-4.0894,-4.1421,-4.1836,-4.2026,-4.2282,-4.2635,-4.3263,-4.2729,-4.2932,-4.3875,-4.3175,-4.2713,-4.2581,-4.2772,-4.2572,-4.2062,-4.2185,-4.2501,-4.2939,-4.3321,-4.3497,-4.3497,-4.3497,-4.3497,-4.3497,-4.3497,-4.3497,-4.3497,-4.3497,-4.3497,-4.3497,-4.3497,-4.3332,-4.3204,-4.3424,-4.3332,-4.3204,-4.3424,-4.3497,-4.3442,-4.3222,-4.3314,-4.3296,-4.2506,-4.2139,-4.168,-4.0506,-4.0065,-3.9823,-3.9528,-3.9701,-4.0033,-4.0371,-4.1165,-4.1533,-4.0711,-4.1238,-4.1508,-4.0623,-4.0339,-4.0286,-4.0473,-4.0296,-3.9758,-3.87,-3.745,-3.6622,-3.6392,-3.5622,-3.5257,-3.5545,-3.5444,-3.5851,-3.696,-3.7117,-3.7415,-3.7901,-3.8204,-3.8099,-3.7638,-3.7943,-3.8144,-3.8242,-3.8242,-3.8848,-4.2831,-4.3613,-4.4707,-4.3867,-4.4882,-4.6039,-4.5832,-4.5818,-4.53,-4.325,-4.3516,-4.3717,-4.2532,-4.2782,-4.312,-4.3262,-4.304,-4.2205,-4.0112,-3.9825,-3.9553,-3.8894,-3.883,-3.9731,0.0,-4.0815,-4.0219,-4.0956,-4.1036,-4.1362,-4.2177,-4.2851,-4.3253,-4.3197,-4.3195,-4.3071,-4.2926,-4.221,-4.1821,-4.1828,-4.2418,-4.2691,-4.2693,-4.3214,-4.3444,-4.3497,-4.3479,-4.3497,-4.3497,-4.3497,-4.3497,-4.3497,-4.3497,-4.3497,-4.3497,-4.3497,-4.3497,-4.3497,-4.3497,-4.2983,-4.247,-4.324,-4.2965,-4.2488,-4.3259,-4.3497,-4.3332,-4.2561,-4.2892,-4.3296,-4.2506,-4.1735,-4.113,-4.1093,-4.0469,-3.997,-4.0291,-4.1241,-4.2106,-4.2443,-4.2794,-4.2761,-4.1896,-4.178,-4.1508,-4.0623,-4.0489,-4.0489,-4.0489,-3.9815,-3.8681,-3.6969,-3.6738,-3.6392,-3.5603,-3.4737,-3.4603,-3.5449,-3.4893,-3.5275,-3.693,-3.7066,-3.7145,-3.7222,-3.8012,-3.7593,-3.5977,-3.6898,-3.7344,-3.7344,-3.7344,-3.8262,-4.3013,-4.3109,-4.3242,-4.3574,-4.4082,-4.4446,-4.425,-4.4282,-4.3928,-4.2341,-4.2307,-4.2394,-4.1699,-4.2122,-4.2579,-4.2558,-4.2933,-4.2596,-4.0874,-4.0651,-4.0379,-3.9718,-4.0902,-4.191,-4.2237,0.0,0.0,-4.3307,-4.3732,-4.4088,-4.4357,-4.5009,-4.5092,-4.4536,-4.4074,-4.3713,-4.3507,-4.2777,-4.2598,-4.294,-4.3124,-4.3214,-4.325,-4.341,-4.3497,-4.3497,-4.3497,-4.3497,-4.3497,-4.3497,-4.3497,-4.3497,-4.3497,-4.3167,-4.269,-4.269,-4.2378,-4.1992,-4.2525,-4.2873,-4.3039,-4.2782,-4.2873,-4.3149,-4.3406,-4.3497,-4.3424,-4.3167,-4.3277,-4.3474,-4.3439,-4.2848,-4.2236,-4.2236,-4.1772,-4.1394,-4.1499,-4.2002,-4.2538,-4.287,-4.3438,-4.3624,-4.2816,-4.2662,-4.2162,-4.0719,-4.0489,-4.0489,-4.0489,-3.9277,-3.82,-3.7623,-3.6565,-3.5795,-3.5512,-3.5238,-3.5218,-3.5545,-3.5353,-3.5491,-3.6113,-3.6157,-3.6183,-3.6211,-3.6484,-3.6372,-3.5892,-3.622,-3.6384,-3.6445,-3.7031,-3.793,-4.2294,-4.2345,-4.2388,-4.3066,-4.3459,-4.3591,-4.3287,-4.3234,-4.2895,-4.1674,-4.1052,-4.0741,-4.0798,-4.1013,-4.1339,-4.1799,-4.2475,-4.27,-4.1964,-4.1824,-4.1823,-4.1877,-4.3113,-4.3872,-4.379,-4.3786,0.0,-4.4855,-4.5771,-4.6058,-4.5449,-4.5769,-4.5744,-4.5187,-4.4421,-4.405,-4.4118,-4.3376,-4.3178,-4.3497,-4.3497,-4.3497,-4.3497,-4.3497,-4.3332,-4.3075,-4.3369,-4.3332,-4.3075,-4.3369,-4.3497,-4.3497,-4.3497,-4.3002,-4.2304,-4.2304,-4.1791,-4.1185,-4.1699,-4.2011,-4.2176,-4.1956,-4.2092,-4.2392,-4.2558,-4.2717,-4.2797,-4.2669,-4.2837,-4.314,-4.3497,-4.3208,-4.2827,-4.295,-4.2648,-4.2429,-4.2688,-4.3031,-4.3454,-4.3918,-4.4162,-4.4047,-4.3239,-4.2585,-4.1777,-4.0662,-4.0489,-4.0277,-3.9681,-3.8392,-3.743,-3.7142,-3.6142,-3.5493,-3.5493,-3.5493,-3.5526,-3.5565,-3.5603,-3.5615,-3.5666,-3.5692,-3.5722,-3.5767,-3.5767,-3.5839,-3.5948,-3.5948,-3.5955,-3.6015,-3.6832,-3.7706,-4.0746,-4.1396,-4.2071,-4.2263,-4.2872,-4.3335,-4.2876,-4.2618,-4.2168,-4.1179,-3.9799,-3.8999,-3.9834,-3.9542,-3.9581,-4.0965,-4.188,-4.2652,-4.3314,-4.3412,-4.3899,-4.5181,-4.5407,-4.5627,-4.6307,-4.6495,-4.6275,-4.5596,0.0,-4.7003,-4.5425,-4.5308,-4.5249,-4.5084,-4.4285,-4.41,-4.4654,-4.3883,-4.3497,-4.3497,-4.3497,-4.3497,-4.3497,-4.3442,-4.302,-4.2341,-4.3128,-4.3018,-4.2359,-4.3201,-4.3513,-4.3497,-4.3442,-4.2947,-4.2231,-4.2194,-4.168,-4.1015,-4.0983,-4.0524,-4.0097,-4.0887,-4.0787,-4.0495,-4.1033,-4.1391,-4.1545,-4.1259,-4.175,-4.2433,-4.2783,-4.2883,-4.2997,-4.3328,-4.3171,-4.3136,-4.3811,-4.4303,-4.4806,-4.5457,-4.4932,-4.4105,-4.3258,-4.172,-4.0585,-4.0508,-4.045,-3.9873,-3.8334,-3.7373,-3.6526,-3.5718,-3.5603,-3.5532,-3.5493,-3.5493,-3.5493,-3.5493,-3.5565,-3.5603,-3.5603,-3.565,-3.5763,-3.5896,-3.5898,-3.5937,-3.5996,-3.5996,-3.5996,-3.6015,-3.6823,-3.7617,-4.0713,-4.0911,-4.1131,-4.1198,-4.1216,-4.1165,-4.0941,-4.0645,-4.0221,-3.9464,-3.8554,-3.8012,-3.8408,-3.9244,-4.0154,-4.1034,-4.2777,-4.4235,-4.4837,-4.4922,-4.5227,-4.6018,-4.6561,-4.6507,-4.5581,-4.7479,-4.8031,0.0,-4.6936,-4.7042,-4.6036,-4.6377,-4.6057,-4.4839,-4.4602,-4.4254,-4.3809,-4.3589,-4.3497,-4.3497,-4.3497,-4.3497,-4.3461,-4.2873,-4.2488,-4.2338,-4.2773,-4.2723,-4.2393,-4.3458,-4.3726,-4.3424,-4.2837,-4.2121,-4.1332,-4.0726,-4.0124,-3.9573,-3.9369,-4.0124,-4.1208,-4.1393,-4.1512,-4.1698,-4.2508,-4.2348,-4.1965,-4.2289,-4.2686,-4.3202,-4.3931,-4.4336,-4.4531,-4.46,-4.4775,-4.4878,-4.4813,-4.49,-4.5096,-4.5513,-4.5413,-4.4797,-4.3355,-4.272,-4.1989,-4.07,-3.9988,-3.9662,-3.9835,-3.9142,-3.8315,-3.745,-3.6776,-3.6161,-3.5565,-3.5493,-3.5493,-3.5493,-3.5526,-3.5565,-3.5603,-3.5624,-3.567,-3.5746,-3.5845,-3.5918,-3.5937,-3.5976,-3.5996,-3.6035,-3.7519,-3.8338,-4.0482,-4.0552,-4.0526,-4.0436,-4.0264,-3.9979,-3.9411,-3.9258,-3.9031,-3.8186,-3.7614,-3.7284,-3.7428,-3.8655,-3.9781,-4.0155,-4.2117,-4.3912,-4.4854,-4.5009,-4.5349,-4.6283,-4.6695,-4.6697,-4.6204,-4.7593,-4.797,-4.6688,-4.7688,-4.7852,-4.6648,-4.6596,-4.6177,-4.5259,-4.4544,-4.3956,-4.3497,-4.3497,-4.3497,-4.3497,-4.3497,-4.3497,-4.3461,-4.302,-4.2635,-4.2323,0.0,-4.2793,-4.2393,-4.3361,-4.3679,-4.3406,-4.2598,-4.1889,-4.1219,-4.0369,-3.9519,-3.8752,-3.885,-3.9535,-4.0397,-4.0475,-4.0804,-4.123,-4.1566,-4.1671,-4.1813,-4.2329,-4.287,-4.353,-4.453,-4.4943,-4.5159,-4.5283,-4.5342,-4.5362,-4.5322,-4.5201,-4.5201,-4.5531,-4.5278,-4.472,-4.3797,-4.3028,-4.22,-4.1219,-4.0681,-4.0412,-4.0489,-3.945,-3.8546,-3.8046,-3.7565,-3.7084,-3.6642,-3.6257,-3.6045,-3.6045,-3.5699,-3.5526,-3.5565,-3.5565,-3.5603,-3.5661,-3.5735,-3.5788,-3.5815,-3.5915,-3.6152,-3.6562,-3.7891,-3.8723,-4.0214,-4.0257,-4.0092,-3.9916,-3.9776,-3.944,-3.8459,-3.8354,-3.8259,-3.7317,-3.6847,-3.6671,-3.6764,-3.807,-3.9118,-3.9244,-4.1068,-4.2872,-4.4165,-4.4489,-4.4983,-4.6116,-4.6302,-4.6609,-4.7168,-4.7171,-4.7076,-4.6966,-4.8288,-4.8416,-4.6874,-4.6122,-4.5645,-4.5499,-4.4143,-4.341,-4.341,-4.3444,-4.3497,-4.3497,-4.3497,-4.3497,-4.3497,-4.3387,-4.2947,-4.2341,-4.307,0.0,-4.2359,-4.3217,-4.3548,-4.3387,-4.2555,-4.1952,-4.1473,-4.0542,-3.9508,-3.8618,-3.902,-3.9109,-3.9051,-3.9252,-3.9717,-4.0101,-3.9889,-4.0473,-4.1302,-4.1789,-4.2578,-4.3531,-4.4652,-4.5042,-4.5243,-4.5531,-4.5381,-4.5243,-4.555,-4.5362,-4.5243,-4.5495,-4.4953,-4.4432,-4.4316,-4.3085,-4.2104,-4.1989,-4.197,-4.17,-4.0931,-3.9469,-3.8411,-3.82,-3.8161,-3.8123,-3.8007,-3.7199,-3.6699,-3.6699,-3.5949,-3.5493,-3.5493,-3.5603,-3.5641,-3.5603,-3.5718,-3.5801,-3.5862,-3.5994,-3.6519,-3.7383,-3.8203,-3.9004,-4.017,-4.001,-3.983,-3.9675,-3.9439,-3.9181,-3.897,-3.819,-3.741,-3.7228,-3.6422,-3.6009,-3.6688,-3.8027,-3.9429,-4.0646,-4.2168,-4.3474,-4.4126,-4.4852,-4.5337,-4.5387,-4.645,-4.6988,-4.6483,-4.6843,-4.6838,0.0,-4.6379,-4.6122,-4.5186,-4.4984,-4.4401,-4.3299,-4.2971,-4.2826,-4.2826,-4.3286,-4.3497,-4.3497,-4.3497,-4.3497,-4.3461,-4.28,-4.2433,-4.2338,-4.273,0.0,-4.2393,-4.3471,-4.3758,-4.3367,-4.2211,-4.1675,-4.1427,-4.0196,-3.975,-3.9753,-3.9566,-3.981,-4.0243,-4.0492,-4.0515,-4.0488,-4.0883,-4.0825,-4.0686,-4.0965,-4.2036,-4.3273,-4.388,-4.4766,-4.5513,-4.5586,-4.5568,-4.5531,-4.5586,-4.5549,-4.5438,-4.5222,-4.5304,-4.5143,-4.4412,-4.4066,-4.3643,-4.297,-4.2874,-4.2816,-4.2662,-4.1777,-4.0604,-3.9219,-3.9065,-3.8777,-3.8065,-3.7199,-3.6699,-3.6699,-3.5949,-3.5493,-3.5493,-3.6142,-3.618,-3.5545,-3.6271,-3.6683,-3.6685,-3.6887,-3.7381,-3.8223,-3.9199,-3.9726,-3.8769,-3.8833,-3.8933,-3.8592,-3.8702,-3.8783,-3.8358,-3.7885,-3.7435,-3.7024,-3.6741,-3.6593,-3.6576,-3.7938,-3.9106,-3.9445,-4.0704,-4.2059,-4.3061,-4.3555,-4.4201,-4.52,-4.5882,-4.6247,-4.6206,-4.6387,-4.614,-4.5351,-4.5022,-4.482,-4.4691,-4.4035,-4.3376,-4.2711,-4.2711,-4.2711,-4.2711,-4.3214,-4.3497,-4.3497,-4.3497,-4.3497,-4.3479,-4.3094,-4.291,-4.2944,-4.3088,0.0,-4.2981,-4.3513,-4.3406,-4.2779,-4.1939,-4.1418,-4.1091,-4.0185,-3.9795,-3.9695,-3.9811,-3.9852,-3.9849,-3.9669,-3.9905,-4.0267,-4.0063,-4.0329,-4.0767,-4.1003,-4.2255,-4.3599,-4.3963,-4.4823,-4.5586,-4.5586,-4.5586,-4.5586,-4.5586,-4.5586,-4.555,-4.54,-4.5495,-4.547,-4.5047,-4.4605,-4.4162,-4.3778,-4.372,-4.3566,-4.3143,-4.3104,-4.247,-4.0777,-4.0604,-4.0258,-3.9373,-3.8527,-3.8065,-3.8099,-3.693,-3.6449,-3.6953,-3.6901,-3.6867,-3.6897,-3.7348,-3.7541,-3.7454,-3.7584,-3.8098,-3.8936,-3.9501,-4.0207,-3.8074,-3.8278,-3.8512,-3.8062,-3.8383,-3.8608,-3.7993,-3.7872,-3.7731,-3.7084,-3.7226,-3.7276,-3.6684,-3.7737,-3.854,-3.8125,-3.8954,-4.0095,-4.1361,-4.1823,-4.2762,-4.4538,-4.5166,-4.5622,-4.6146,-4.6022,-4.5571,-4.4764,-4.4049,-4.3788,-4.4053,-4.2961,-4.2302,-4.2302,-4.244,-4.2519,-4.2519,-4.3178,-4.3497,-4.3497,-4.3497,-4.3497,-4.3497,-4.3497,-4.3497,-4.3497,-4.3497,0.0,0.0,-4.3497,-4.302,-4.2246,-4.1772,-4.1266,-4.075,-4.0266,-3.9867,-3.9611,-3.9985,-3.983,-3.9342,-3.8622,-3.9043,-3.9662,-3.8649,-3.928,-4.0409,-4.0627,-4.1968,-4.3406,-4.3688,-4.4528,-4.5355,-4.5547,-4.5586,-4.5586,-4.5586,-4.5586,-4.5586,-4.5586,-4.5586,-4.5586,-4.5586,-4.5028,-4.4586,-4.4586,-4.4586,-4.4355,-4.372,-4.4182,-4.3989,-4.2508,-4.2181,-4.1797,-4.1123,-4.0142,-3.96,-3.9657,-3.8104,-3.7525,-3.8279,-3.7822,-3.7771,-3.8209,-3.8378,-3.8407,-3.8296,-3.8354,-3.8819,-3.968,-3.9801,-4.0665,-3.9988,-3.9794,-3.9631,-3.9449,-3.9226,-3.9026,-3.8951,-3.842,-3.7875,-3.7803,-3.747,-3.7185,-3.7152,-3.7417,-3.7823,-3.843,-3.8337,-3.8394,-3.8937,-4.0415,-4.1624,-4.2161,-4.4647,-4.629,-4.62,-4.6022,-4.5571,-4.4764,-4.3541,-4.2588,-4.2086,-4.1437,-4.1087,-4.1087,-4.1578,-4.1895,-4.1895,-4.294,-4.3497,-4.3497,-4.3497,-4.3497,-4.3497,-4.3497,-4.3497,-4.3497,-4.3497,0.0,0.0,-4.3497,-4.302,-4.2246,-4.1772,-4.1266,-4.075,-4.0266,-4.0229,-4.0361,-4.0176,-4.0082,-3.9833,-3.8688,-3.8624,-3.8747,-3.7305,-3.7699,-3.8622,-3.8666,-4.0053,-4.1609,-4.1942,-4.322,-4.4624,-4.5413,-4.5586,-4.5586,-4.5586,-4.5586,-4.5586,-4.5586,-4.5586,-4.5586,-4.5586,-4.5528,-4.547,-4.547,-4.547,-4.5451,-4.5374,-4.5432,-4.5124,-4.4162,-4.3412,-4.2951,-4.2874,-4.1335,-4.0446,-4.0581,-3.9003,-3.8143,-3.8296,-3.8972,-3.9011,-3.8303,-3.8942,-3.9296,-3.9268,-3.9273,-3.973,-4.0573,-4.0665,-4.1189,-3.9422,-4.0149,-4.0788,-4.057,-3.9947,-3.9521,-4.0052,-3.913,-3.8294,-3.8822,-3.8538,-3.8118,-3.7969,-3.7485,-3.7172,-3.7271,-3.6884,-3.7122,-3.8599,-3.9707,-4.1247,-4.3683,-4.5346,-4.623,-4.6018,-4.5654,-4.4578,-4.2537,-4.1927,-4.1358,-4.0814,-4.0874,-4.0903,-4.0903,-4.1133,-4.1268,-4.1268,-4.2085,-4.2657,-4.3014,-4.3014,-4.3178,-4.3497,-4.3497,-4.3497,-4.3461,-4.2983,0.0,0.0,-4.2782,-4.2011,-4.0887,-4.1401,-4.0831,-3.9783,-3.98,-3.9861,-3.9925,-3.984,-3.9797,-3.9621,-3.8432,-3.8169,-3.8089,-3.7013,-3.6905,-3.731,-3.815,-3.9334,-4.0572,-4.156,-4.3047,-4.4509,-4.5393,-4.5586,-4.5586,-4.5586,-4.5586,-4.5586,-4.5586,-4.5586,-4.5586,-4.5586,-4.5586,-4.5586,-4.5586,-4.5586,-4.5586,-4.5586,-4.5143,-4.4893,-4.5047,-4.4335,-4.3624,-4.3143,-4.245,-4.2101,-4.2213,-4.0629,-4.0014,-4.0681,-4.004,-3.9747,-3.9923,-4.0209,-4.0305,-4.0177,-4.0177,-4.0312,-4.0581,-4.062,-4.1085,-3.9474,-4.0768,-4.201,-4.1741,-4.0644,-3.9872,-4.0795,-3.9542,-3.8442,-3.9387,-3.9227,-3.8785,-3.8456,-3.7451,-3.6533,0.0,0.0,-3.5941,-3.7656,-3.8985,-4.0881,-4.3939,-4.5211,-4.5685,-4.5331,-4.4599,-4.3237,-4.1065,-4.0681,-4.0446,-4.0121,-4.0218,-4.0429,-4.0655,-4.0827,-4.0903,-4.0903,-4.149,-4.2021,-4.2422,-4.2422,-4.2619,-4.2977,-4.2977,-4.3105,-4.3213,-4.2665,0.0,0.0,-4.2304,-4.135,-3.9968,-4.0781,-4.0271,-3.9125,-3.9383,-3.951,-3.9599,-3.9505,-3.9438,-3.9314,-3.8439,-3.7969,-3.7681,-3.7203,-3.686,-3.6897,-3.8061,-3.9131,-4.029,-4.179,-4.3066,-4.422,-4.5336,-4.5586,-4.5586,-4.5586,-4.5586,-4.5586,-4.5586,-4.5586,-4.5586,-4.5586,-4.5586,-4.5586,-4.5586,-4.5586,-4.5586,-4.5586,-4.4836,-4.4528,-4.5143,-4.4662,-4.4162,-4.3874,-4.3605,-4.3489,-4.3583,-4.2014,-4.1451,-4.2266,-4.0873,-4.0391,-4.1055,-4.097,-4.1,-4.1125,-4.105,-4.0969,-4.0873,-4.0873,-4.12,-4.0851,-4.2052,-4.3325,-4.3123,-4.138,-3.9981,-4.1052,-3.9524,-3.824,-3.9359,-3.9339,-3.8952,-3.8474,-3.713,-3.5951,-3.5414,-3.4943,0.0,-3.5525,-3.8084,-4.0402,-4.1752,-4.3782,-4.4732,-4.3996,-4.2644,-4.1595,-4.0949,-4.0246,0.0,-4.007,-3.9368,-3.9315,-4.007,-4.0607,-4.0903,-4.0903,-4.149,-4.1793,-4.181,-4.181,-4.1793,-4.181,-4.181,-4.2162,0.0,0.0,0.0,0.0,-4.2304,-4.135,-3.99,-3.99,-3.9575,-3.9099,-3.908,-3.9333,-3.9552,-3.9212,-3.9125,-3.9044,-3.8773,-3.8138,-3.7548,-3.7801,-3.7701,-3.7616,-3.823,-3.9414,-4.0893,-4.2624,-4.3104,-4.3528,-4.5201,-4.5586,-4.5586,-4.5586,-4.5586,-4.5586,-4.5586,-4.5586,-4.5586,-4.5586,-4.5586,-4.5586,-4.5586,-4.5586,-4.5586,-4.5586,-4.4836,-4.4297,-4.4316,-4.4316,-4.4643,-4.549,-4.4778,-4.4355,-4.4491,-4.2912,-4.2079,-4.2283,-4.1446,-4.1055,-4.1191,-4.095,-4.1241,-4.2071,-4.1898,-4.1797,-4.1797,-4.1797,-4.1797,-3.9827,-4.0219,-4.0624,-4.1086,-3.9333,-3.7986,-3.9791,-3.8735,-3.7769,-3.9274,-3.9664,-3.9322,-3.7968,-3.714,-3.6358,-3.5467,-3.5353,0.0,-3.7446,-3.9766,-4.2072,-4.4245,-4.5071,-4.4903,-4.3417,0.0,-4.0967,-4.0417,-3.963,-3.9196,-3.9262,-3.858,-3.8761,-4.007,-4.0237,-4.0368,-4.0368,-4.0546,-4.0797,-4.1161,-4.1161,-4.1402,-4.181,-4.181,-4.1895,0.0,0.0,0.0,0.0,-4.1107,-4.0482,-3.99,-3.99,-3.9461,-3.8815,-3.8815,-3.8884,-3.897,-3.8873,-3.8815,-3.8815,-3.8719,-3.8649,-3.8609,-3.8681,-3.791,-3.7199,-3.8395,-3.9599,-4.0758,-4.1912,-4.2643,-4.3374,-4.4451,-4.5163,-4.5586,-4.5586,-4.5586,-4.5586,-4.5586,-4.5586,-4.5586,-4.5586,-4.5586,-4.5586,-4.5586,-4.5086,-4.4701,-4.4701,-4.347,-4.2816,-4.3412,-4.347,-4.3816,-4.4643,-4.4989,-4.5201,-4.5259,-4.3682,-4.2794,-4.2922,-4.1548,-4.0844,-4.092,-4.0831,-4.1199,-4.2033,-4.1975,-4.1893,-4.1797,-4.1181,-4.0912,-3.8346,-3.9196,-3.9823,-3.9963,-3.8449,-3.7424,-3.9167,-3.8163,-3.7333,-3.9085,-3.9261,-3.8689,-3.7452,-3.6688,-3.5909,-3.4768,-3.5443,-3.6571,-3.7753,-4.0455,-4.3005,-4.4818,-4.4816,-4.4021,0.0,-4.0957,-3.9985,-3.9645,-3.8619,-3.8157,-3.8469,-3.779,-3.8076,-3.961,-3.9662,-3.9782,-4.007,-4.007,-4.012,-4.015,-4.015,-4.0329,-4.0694,-4.0694,-4.0989,0.0,0.0,0.0,0.0,-4.0545,-4.0071,-3.9863,-3.957,-3.9148,-3.8707,-3.8707,-3.8707,-3.8707,-3.8707,-3.8707,-3.8707,-3.8707,-3.898,-3.9314,-3.9438,-3.879,-3.8184,-3.9089,-3.9919,-4.0777,-4.1989,-4.2701,-4.3393,-4.4509,-4.5201,-4.5586,-4.5586,-4.5586,-4.5586,-4.5586,-4.5586,-4.5586,-4.5586,-4.5586,-4.5586,-4.5586,-4.5143,-4.4662,-4.4335,-4.3124,-4.2508,-4.3047,-4.3104,-4.3431,-4.422,-4.5086,-4.5586,-4.5586,-4.4316,-4.3448,-4.3214,-4.1917,-4.1214,-4.128,-4.1272,-4.1816,-4.2934,-4.2585,-4.2374,-4.2258,-4.1046,-4.0489,0.0,-3.8456,-3.9986,-3.9296,-3.8234,-3.7695,-3.8871,-3.7718,0.0,-3.8667,-3.824,-3.7393,-3.6895,-3.5943,-3.4873,-3.3764,-3.537,-3.6734,-3.6878,-4.0497,-4.3315,-4.3782,-4.3315,-4.2396,-4.0891,-3.9596,-3.8799,-3.8799,-3.7408,-3.6919,-3.769,-3.698,-3.7188,-3.8674,-3.8799,-3.9262,-4.007,-4.002,-3.9662,-3.8908,-3.8854,-3.8854,-3.8908,-3.8908,-3.9613,0.0,0.0,0.0,0.0,-4.0543,-4.0127,-3.985,-3.9093,-3.8762,-3.8707,-3.8707,-3.8707,-3.8707,-3.8707,-3.8707,-3.8707,-3.875,-3.9154,-3.9668,-4.0022,-4.012,-4.012,-4.012,-4.0321,-4.0873,-4.2489,-4.2951,-4.3412,-4.5028,-4.547,-4.5509,-4.5586,-4.5586,-4.5586,-4.5586,-4.5586,-4.5586,-4.5586,-4.5605,-4.5605,-4.5605,-4.5547,-4.522,-4.4412,-4.3547,-4.3028,-4.3085,-4.3104,-4.3431,-4.422,-4.5086,-4.5586,-4.5586,-4.4778,-4.3987,-4.331,-4.2518,-4.2117,-4.2168,-4.2165,-4.2912,-4.4414,-4.3547,-4.3066,-4.297,-4.1277,-4.0489,-3.3727,0.0,-3.4259,-3.5142,-3.4705,-3.4563,0.0,-3.638,-3.6327,-3.7359,-3.7102,-3.6471,-3.5803,-3.5227,-3.4694,-3.4349,-3.5168,-3.6406,-3.797,-4.1685,-4.4031,-4.3318,-4.2975,-4.1781,-3.9376,-3.8466,-3.8035,-3.8035,-3.7144,-3.6661,-3.6843,-3.618,-3.6165,-3.7128,-3.7732,-3.8707,-4.007,-3.9489,-3.9086,-3.8908,-3.8302,-3.8358,-3.8908,-3.8908,-3.9404,0.0,0.0,0.0,-4.1007,-4.0636,-4.0352,-4.011,-3.9754,-3.9239,-3.8707,-3.8707,-3.8707,-3.8707,-3.8707,-3.8707,-3.878,-3.9242,-3.9481,-3.9712,-4.023,-4.0425,-4.0425,-4.0425,-4.0457,-4.0585,-4.0989,-4.1604,-4.2374,-4.3431,-4.4162,-4.4778,-4.5451,-4.5586,-4.5586,-4.5586,-4.5586,-4.5586,-4.5586,-4.5699,-4.5757,-4.5757,-4.5201,-4.4684,-4.4491,-4.3069,-4.2354,-4.3028,-4.3104,-4.3431,-4.422,-4.5086,-4.5586,-4.5586,-4.4778,-4.422,-4.4064,-4.3275,-4.2835,-4.2874,-4.3451,-4.3643,-4.3431,-4.322,-4.2758,-4.2085,-4.0989,-4.0489,-3.3941,-3.3559,-3.3307,-3.3727,-3.4034,-3.4473,-3.5527,-3.5742,-3.5989,-3.6746,-3.6416,-3.5864,-3.5528,-3.5223,-3.4957,-3.4583,-3.5354,-3.6794,-3.886,-4.1067,-4.222,-4.158,-4.1427,-4.0557,0.0,-3.761,-3.7263,-3.7263,-3.6275,-3.5782,-3.6102,-3.5431,-3.5498,-3.6538,-3.7397,-3.8374,-3.9558,-3.9139,-3.8581,-3.791,-3.7456,-3.7498,-3.7926,-3.8267,-3.9049,0.0,0.0,0.0,-4.0863,-4.0278,-4.0103,-4.0149,-3.9561,-3.9074,-3.8707,-3.8707,-3.8707,-3.8707,-3.8707,-3.8707,-3.8792,-3.9383,-3.9599,-3.9712,-4.0319,-4.0489,-4.0489,-4.0489,-4.0489,-4.0585,-4.0989,-4.145,-4.2124,-4.3355,-4.397,-4.4547,-4.549,-4.5699,-4.5699,-4.5738,-4.5738,-4.5738,-4.5738,-4.5796,-4.5844,-4.5852,-4.544,-4.5003,-4.4643,-4.3378,-4.2703,-4.3176,-4.3236,-4.3547,-4.4318,-4.5182,-4.568,-4.5586,-4.5163,-4.472,-4.4316,-4.3874,-4.3643,-4.3643,-4.4085,-4.4085,-4.3643,-4.2931,-4.2354,-4.1873,-4.1027,-4.0639,-3.4657,-3.4716,-3.4311,-3.3783,-3.4431,-3.5216,-3.531,-3.5253,-3.5352,-3.5974,-3.5428,-3.4942,-3.5141,-3.4985,-3.4756,-3.4283,-3.5516,-3.7308,-3.9495,-3.9778,-3.9769,-3.9657,-3.9558,0.0,-3.7578,-3.6814,-3.64,-3.6292,-3.5288,-3.4801,-3.5175,-3.4741,-3.5029,-3.6213,-3.7081,-3.781,-3.8578,-3.8694,-3.8112,-3.6796,-3.6546,-3.6621,-3.6973,-3.7544,-3.8663,-4.007,0.0,0.0,-4.0845,-3.9876,-3.974,-4.0113,-3.9148,-3.8737,-3.8707,-3.8707,-3.8615,-3.8524,-3.8524,-3.8524,-3.8626,-3.9346,-3.9599,-3.9712,-4.0319,-4.0489,-4.0489,-4.0489,-4.0489,-4.0662,-4.1412,-4.17,-4.22,-4.3758,-4.422,-4.4586,-4.5603,-4.5808,-4.5838,-4.5896,-4.5896,-4.5896,-4.5896,-4.5924,-4.5931,-4.5928,-4.5927,-4.5686,-4.4998,-4.4029,-4.3493,-4.3757,-4.3554,-4.3701,-4.4443,-4.5312,-4.5699,-4.5413,-4.5528,-4.5259,-4.4528,-4.4489,-4.4432,-4.4297,-4.4316,-4.4201,-4.3951,-4.2643,-4.1944,-4.1793,-4.1133,-4.0863,-3.2088,-3.2854,-3.3789,-3.4243,-3.3925,-3.3601,-3.4127,-3.36,-3.3055,-3.3223,-3.2704,-3.2384,-3.2959,-3.2596,-3.2332,-3.2821,-3.4791,-3.7101,-3.937,-3.9799,-3.9601,-3.8937,0.0,-3.7468,-3.597,-3.5733,-3.5428,-3.4841,-3.5135,-3.4891,-3.3858,-3.4233,-3.459,-3.4837,-3.5625,-3.6341,-3.7028,-3.7653,-3.7535,-3.6708,-3.6075,-3.6396,-3.7642,-3.774,-3.8629,-4.007,0.0,-4.0417,-4.0834,-4.0058,-3.9935,-4.0131,-3.9335,-3.8882,-3.8707,-3.8707,-3.8267,-3.7661,-3.7661,-3.7661,-3.79,-3.9183,-3.9599,-3.9712,-4.0319,-4.0489,-4.0489,-4.0489,-4.0489,-4.0527,-4.0662,-4.1258,-4.2047,-4.3047,-4.3891,-4.4699,-4.5622,-4.5827,-4.5881,-4.5901,-4.5901,-4.5901,-4.5901,-4.5993,-4.608,-4.607,-4.6076,-4.6028,-4.5902,-4.4435,-4.3938,-4.5366,-4.4239,-4.3704,-4.4432,-4.5291,-4.543,-4.4547,-4.5182,-4.5528,-4.5413,-4.5393,-4.5047,-4.4316,-4.4414,-4.3761,-4.2354,-4.2165,-4.1716,-4.0975,-4.0867,-4.1198,-3.2392,-3.3036,-3.3526,-3.3706,-3.3645,-3.3546,-3.3323,-3.289,-3.2593,-3.2593,-3.2372,-3.2205,-3.2552,-3.2563,-3.2941,-3.4156,-3.5033,-3.6049,-3.7749,-3.772,-3.7402,0.0,0.0,-3.6228,-3.5599,-3.5175,-3.4816,-3.4502,0.0,0.0,-3.3499,-3.311,-3.317,-3.3856,-3.432,-3.4694,-3.4923,-3.5658,-3.604,-3.6174,-3.5803,-3.5948,-3.6701,-3.7028,-3.8221,-3.9911,0.0,-3.9859,-4.0657,-3.9741,-3.945,-3.95,-3.907,-3.8825,-3.8707,-3.8707,-3.8469,-3.8138,-3.8138,-3.8232,-3.8516,-3.9325,-3.9712,-3.9963,-4.0353,-4.0489,-4.0585,-4.1066,-4.12,-4.1085,-4.0623,-4.1524,-4.2659,-4.3063,-4.3907,-4.487,-4.5776,-4.5982,-4.6019,-4.6108,-4.6117,-4.6117,-4.6117,-4.6164,-4.6205,-4.6205,-4.6202,-4.6211,-4.6211,-4.5065,-4.4553,-4.5325,-4.4647,-4.4284,-4.4589,-4.4921,-4.5064,-4.5009,-4.5374,-4.5393,-4.4913,-4.4893,-4.4528,-4.372,-4.3338,-4.2795,-4.2059,-4.1677,-4.1538,-4.1606,-4.1643,-4.2109,-3.2747,-3.3126,-3.3095,-3.2515,-3.2787,-3.3095,-3.2396,-3.2105,-3.2015,-3.2077,-3.2104,-3.2104,-3.2104,-3.2482,-3.3301,-3.505,-3.5068,-3.5222,-3.6552,-3.6148,-3.5729,-3.5729,-3.5609,-3.5444,-3.528,-3.4786,-3.4352,0.0,0.0,0.0,-3.3005,-3.2155,-3.2124,-3.3107,-3.3288,-3.3356,-3.34,-3.3957,-3.46,-3.5305,-3.5346,-3.5578,-3.6025,-3.6634,-3.7933,-3.966,-3.9068,-3.9438,-4.0433,-3.9314,-3.8995,-3.9152,-3.8692,-3.8578,-3.8689,-3.8487,-3.8414,-3.8414,-3.8414,-3.8549,-3.8803,-3.9406,-3.9775,-4.0042,-4.0389,-4.0489,-4.0642,-4.1316,-4.1797,-4.197,-4.1312,-4.2175,-4.3265,-4.3492,-4.4315,-4.5216,-4.593,-4.6113,-4.618,-4.6282,-4.6308,-4.6308,-4.6308,-4.6308,-4.6308,-4.6308,-4.6308,-4.6308,-4.6308,-4.5547,-4.507,-4.5266,-4.4991,-4.4835,-4.4963,-4.4506,-4.4545,-4.5334,-4.5161,-4.4797,-4.4316,-4.4124,-4.3855,-4.3508,-4.2738,-4.2376,-4.2451,-4.19,-4.1974,-4.2637,-4.2655,-4.311,-3.1533,-3.1997,-3.2107,-3.0439,-3.0547,-3.1089,-3.1282,-3.0633,-3.015,-3.0669,-3.077,-3.077,-3.077,-3.0808,-3.1423,-3.3413,-3.415,-3.5088,-3.704,0.0,-3.6417,-3.6417,-3.5878,-3.525,-3.4607,-3.4502,-3.3963,0.0,0.0,0.0,-3.1636,-3.1992,-3.2285,-3.2485,-3.2466,-3.2796,-3.3389,-3.3432,-3.3717,-3.4209,-3.4482,-3.5429,-3.6992,-3.729,-3.8181,-3.9441,-3.9347,-3.9669,-4.0128,-3.8872,-3.8923,-3.9726,-3.844,-3.8267,-3.8615,-3.7845,-3.7569,-3.7569,-3.7569,-3.7599,-3.7819,-3.9164,-3.9622,-3.9735,-4.0336,-4.0489,-4.0508,-4.0566,-4.1793,-4.3079,-4.3022,-4.3099,-4.3438,-4.4365,-4.5312,-4.6007,-4.6084,-4.621,-4.6286,-4.6308,-4.6308,-4.6308,-4.6308,-4.6308,-4.6308,-4.6308,-4.6308,-4.6308,-4.6308,-4.5547,-4.5304,-4.6127,-4.5355,-4.5066,-4.5753,-4.4256,-4.3701,-4.4696,-4.3833,-4.3585,-4.4259,-4.3585,-4.3566,-4.4391,-4.3683,-4.335,-4.3481,-4.3499,-4.3532,-4.3592,-4.3546,-4.3929,-3.142,-3.2214,-3.2585,-3.0319,-3.0066,-3.0228,-2.9818,-2.953,-2.9415,-2.998,-3.0382,-3.0708,-3.1035,-3.0834,-3.1382,-3.3704,-3.3933,-3.4508,-3.6535,-3.6282,-3.6045,-3.6484,-3.5904,-3.563,-3.5861,-3.5065,0.0,0.0,0.0,0.0,-3.1439,-3.0783,-3.0826,-3.1687,-3.0876,-3.0709,-3.136,-3.1799,-3.2025,-3.1998,-3.3532,-3.4616,-3.5248,-3.5591,-3.6478,-3.7703,-3.7703,-3.8328,-3.9225,-3.8749,-3.8773,-3.908,-3.8593,-3.8515,-3.867,-3.8358,-3.8343,-3.8424,-3.7914,-3.8338,-3.9104,-3.9117,-3.9585,-4.0193,-4.0422,-4.0489,-4.0719,-4.1816,-4.2274,-4.246,-4.246,-4.3715,-4.4977,-4.484,-4.5531,-4.6229,-4.6229,-4.6267,-4.6308,-4.6308,-4.6308,-4.6308,-4.6308,-4.6308,-4.6308,-4.6308,-4.6308,-4.6308,-4.6308,-4.6016,-4.593,-4.6261,-4.5893,-4.549,-4.5182,-4.4529,-4.4056,-4.3904,-4.4028,-4.3987,-4.3739,-4.397,-4.4045,-4.394,-4.367,-4.3576,-4.3668,-4.3683,-4.3931,-4.4381,-4.4369,-4.4741,-3.1769,-3.2451,-3.2696,-3.072,-3.0095,-2.982,-2.9447,-2.915,-2.9139,-2.9892,-3.0357,-3.067,-3.0846,-3.0733,-3.1331,0.0,-3.3569,-3.4028,-3.5911,-3.6019,-3.6054,-3.6554,-3.6191,-3.5985,-3.6334,-3.508,0.0,0.0,0.0,0.0,0.0,-3.0101,-2.9884,-3.0568,-2.9646,-2.9343,-2.9753,-3.048,-3.0755,-3.0521,-3.2626,-3.3803,-3.4214,-3.4712,-3.5536,-3.6608,-3.6844,-3.7458,-3.8322,-3.8322,-3.8175,-3.7973,-3.8212,-3.8375,-3.8446,-3.8464,-3.8619,-3.8733,-3.7941,-3.8305,-3.9125,-3.888,-3.9334,-4.0044,-4.0396,-4.0489,-4.0758,-4.1989,-4.239,-4.246,-4.2495,-4.4113,-4.5661,-4.5398,-4.5835,-4.6308,-4.6308,-4.6308,-4.6308,-4.6308,-4.6308,-4.6308,-4.6308,-4.6308,-4.6308,-4.6308,-4.6308,-4.6308,-4.6308,-4.6308,-4.6289,-4.623,-4.615,-4.5841,-4.5199,-4.4891,-4.451,-4.395,-4.4463,-4.449,-4.3838,-4.4114,-4.4322,-4.4399,-4.4145,-4.418,-4.4512,-4.4512,-4.4649,-4.4878,-4.5047,-4.5259,-3.2482,-3.2524,-3.2316,-3.1424,-3.0467,-2.99,-3.0299,-2.9645,-2.9239,-3.0369,-3.0608,-3.0444,-2.9892,-3.0244,-3.0996,-3.2417,-3.3032,-3.3874,-3.5302,-3.6102,-3.66,-3.66,-3.6648,-3.6462,-3.5758,0.0,0.0,0.0,0.0,0.0,0.0,-3.0095,-2.9753,-2.9045,-2.8975,-2.9011,-2.9011,-2.9719,-3.0091,-3.0091,-3.1708,-3.3155,-3.4393,-3.5169,-3.5768,-3.6321,-3.711,-3.7489,-3.7489,-3.7477,-3.7,-3.6376,-3.7195,-3.7664,-3.7888,-3.7899,-3.8066,-3.8199,-3.7385,-3.7099,-3.7297,-3.8422,-3.8804,-3.9032,-4.0156,-4.0489,-4.0543,-4.0677,-4.2005,-4.341,-4.357,-4.4238,-4.5131,-4.608,-4.6308,-4.6308,-4.6308,-4.6308,-4.6308,-4.6308,-4.6308,-4.6308,-4.6308,-4.6308,-4.6308,-4.6308,-4.6308,-4.6308,-4.6308,-4.6308,-4.625,-4.6113,-4.6094,-4.6104,-4.6092,-4.5315,-4.4873,-4.5001,-4.5017,-4.492,-4.4705,-4.388,-4.4275,-4.6063,-4.5321,-4.5366,-4.6308,-4.6308,-4.5859,-4.5019,-4.5619,-4.5468,-3.2594,-3.2866,-3.2726,-3.072,-3.0335,-3.0269,-2.9538,-2.8847,-2.8674,-2.9804,-3.0043,-3.0105,-3.0331,-3.0753,0.0,-3.242,-3.3326,-3.4174,-3.5309,-3.6102,-3.6611,-3.6643,-3.6706,-3.6645,-3.6488,0.0,0.0,0.0,0.0,0.0,0.0,-2.9084,-2.8653,-2.8975,-2.845,-2.8163,-2.8163,-2.8924,-2.9042,-2.8501,-3.0101,-3.1643,-3.3102,-3.3912,-3.4393,-3.4578,-3.5404,-3.5752,-3.5789,-3.6395,-3.6505,-3.635,-3.6786,-3.7002,-3.7068,-3.7267,-3.7505,-3.7623,-3.6825,-3.707,-3.7781,-3.8134,-3.8646,-3.9333,-4.0338,-4.0639,-4.0793,-4.1482,-4.2152,-4.2922,-4.4122,-4.4713,-4.5199,-4.6093,-4.6308,-4.6308,-4.6308,-4.6308,-4.6308,-4.6308,-4.6308,-4.6308,-4.6308,-4.6308,-4.6308,-4.6308,-4.6308,-4.6308,-4.6308,-4.6308,-4.6289,-4.623,-4.623,-4.6246,-4.6236,-4.5991,-4.5874,-4.5905,-4.5905,-4.5612,-4.4948,-4.5241,-4.5698,-4.6231,-4.6002,-4.6014,-4.6308,-4.6308,-4.6113,-4.5781,-4.5968,-4.5862,-3.3044,-3.2935,-3.2613,-3.1084,-3.0648,-3.0244,-2.8845,-2.8511,-2.8561,-2.9026,-2.9302,-2.9554,-3.0024,-3.068,0.0,-3.2654,-3.3445,-3.4225,-3.4986,-3.5999,-3.6542,-3.6302,-3.6577,-3.6649,0.0,0.0,0.0,0.0,0.0,0.0,0.0,-2.8539,-2.8015,-2.8542,-2.7928,-2.7689,-2.7836,-2.8593,-2.8749,-2.8283,-2.9753,-3.0927,-3.1854,-3.2875,-3.3495,-3.3844,-3.4669,-3.4807,-3.4578,-3.521,-3.5098,-3.457,-3.5131,-3.5435,-3.5606,-3.6094,-3.6445,-3.6635,-3.6157,-3.6427,-3.7065,-3.7373,-3.7873,-3.8584,-3.9811,-4.0221,-4.0456,-4.1393,-4.1959,-4.2537,-4.3571,-4.415,-4.4785,-4.6016,-4.6308,-4.6308,-4.6308,-4.6308,-4.6308,-4.6308,-4.6308,-4.6308,-4.6308,-4.6308,-4.6308,-4.6308,-4.6308,-4.6308,-4.6308,-4.6308,-4.6308,-4.6308,-4.6308,-4.6308,-4.6308,-4.6308,-4.6308,-4.6308,-4.6308,-4.6055,-4.5547,-4.6016,-4.6308,-4.6308,-4.6308,-4.6308,-4.6308,-4.6308,-4.6074,-4.5664,-4.5957,-4.5867,-3.3524,-3.2746,-3.2003,-3.1953,-3.1021,-2.9822,-2.8455,-2.8499,-2.8699,-2.8147,-2.8535,-2.9045,-2.9345,-3.0453,-3.1636,-3.2854,-3.3576,-3.4068,-3.4442,-3.5692,-3.6398,-3.5732,-3.6324,-3.648,0.0,0.0,0.0,0.0,0.0,0.0,0.0,-2.8528,-2.7906,-2.7886,-2.7547,-2.753,-2.7897,-2.8541,-2.8894,-2.8894,-3.0037,-3.0602,-3.0738,-3.1936,-3.2889,-3.3623,-3.4357,-3.4266,-3.3595,-3.3883,-3.3111,-3.189,-3.2857,-3.3393,-3.377,-3.4535,-3.5005,-3.5276,-3.5353,-3.5391,-3.5526,-3.6411,-3.6781,-3.7199,-3.8816,-3.9433,-3.9791,-4.0655,-4.1528,-4.2223,-4.2379,-4.2988,-4.4004,-4.5664,-4.6113,-4.6172,-4.6172,-4.623,-4.6308,-4.6308,-4.6308,-4.6308,-4.6308,-4.6308,-4.6308,-4.6308,-4.6308,-4.6308,-4.6308,-4.6308,-4.6308,-4.6308,-4.6308,-4.6308,-4.6308,-4.6308,-4.6289,-4.6284,-4.6288,-4.6289,-4.6289,-4.6289,-4.6308,-4.6308,-4.6308,-4.6308,-4.6308,-4.6308,-4.5898,-4.5137,-4.5801,-4.5683,-3.2955,-3.2101,-3.1243,-3.0978,-3.0387,-2.9555,-2.8409,-2.8197,-2.8122,-2.757,-2.8433,-2.9327,-2.9408,-3.0733,-3.2028,-3.2241,-3.3015,-3.3814,-3.4421,-3.5304,-3.5824,-3.5654,-3.6334,-3.6412,0.0,0.0,0.0,0.0,0.0,0.0,-3.0096,-2.9273,-2.8529,-2.7915,-2.7811,-2.7794,-2.7897,-2.8057,-2.8145,0.0,-2.8667,-2.9268,-2.9909,-3.1104,-3.1751,-3.1916,-3.21,-3.2082,-3.1942,-3.2219,-3.211,-3.1856,-3.2447,-3.2733,-3.2816,-3.3212,-3.3409,-3.3564,-3.4237,-3.4468,-3.4718,-3.6219,-3.6781,-3.7107,-3.8199,-3.9065,-3.9734,-4.0042,-4.0753,-4.1592,-4.2233,-4.2531,-4.2949,-4.4004,-4.4785,-4.5273,-4.5273,-4.582,-4.6308,-4.6308,-4.6308,-4.6308,-4.6308,-4.6308,-4.6308,-4.6308,-4.6308,-4.6308,-4.6308,-4.6308,-4.6308,-4.6308,-4.6308,-4.6308,-4.6308,-4.6308,-4.6253,-4.6158,-4.6231,-4.625,-4.6152,-4.623,-4.6308,-4.6308,-4.6308,-4.6308,-4.6308,-4.6308,-4.6191,-4.6016,-4.6172,-4.6152,-3.2695,-3.1753,-3.0748,-3.0286,-2.9776,-2.9227,-2.8637,-2.8638,-2.8615,-2.7965,-2.8486,-2.9006,-2.9201,-3.0807,-3.2217,-3.2688,-3.3171,-3.3609,-3.3975,-3.4345,-3.446,-3.4086,-3.4919,0.0,0.0,0.0,0.0,0.0,0.0,-3.1138,-3.0511,-2.9621,-2.8877,-2.8448,-2.8237,-2.821,-2.843,-2.8547,-2.8628,-2.8628,-2.8897,-2.9185,-2.9544,-3.0815,-3.1384,-3.1384,-3.1384,-3.1182,-3.0864,-3.1219,-3.1143,-3.0846,-3.1318,-3.1484,-3.1555,-3.2122,-3.2333,-3.2506,-3.3757,-3.393,-3.3853,-3.5565,-3.5955,-3.599,-3.7286,-3.8373,-3.9266,-3.9759,-4.0527,-4.1308,-4.1719,-4.178,-4.1836,-4.2303,-4.3739,-4.4975,-4.4922,-4.5585,-4.6201,-4.6123,-4.6113,-4.6128,-4.6191,-4.6269,-4.6308,-4.6308,-4.6308,-4.6308,-4.6308,-4.6308,-4.6308,-4.6308,-4.6308,-4.6308,-4.6308,-4.6308,-4.6273,-4.6191,-4.6258,-4.6273,-4.6191,-4.6269,-4.6308,-4.6308,-4.6308,-4.6308,-4.6308,-4.6308,-4.6308,-4.6308,-4.6308,-4.6308,-3.2437,-3.155,-3.0458,-3.0021,-2.9428,-2.9051,-2.9163,-2.9326,-2.935,-2.8877,-2.8879,-2.9025,-2.9162,-3.0628,-3.2085,-3.2988,-3.3002,-3.3014,-3.3275,-3.3242,-3.308,-3.2757,-3.3529,0.0,0.0,0.0,0.0,0.0,0.0,-3.1482,-3.092,-3.0004,-2.9368,-2.9081,-2.8737,-2.8761,-2.9115,-2.9332,-2.9379,-2.923,-2.9363,-2.942,-2.9429,-3.0498,-3.098,-3.098,-3.098,-3.0613,-3.0037,-3.0656,-3.0431,-2.9767,-3.0387,-3.0533,-3.0475,-3.1218,-3.1487,-3.1698,-3.3237,-3.3295,-3.2987,-3.4737,-3.4936,-3.4822,-3.6521,-3.7761,-3.8789,-3.9648,-4.0527,-4.1191,-4.1179,-4.1081,-4.0985,-4.0966,-4.2887,-4.4679,-4.4573,-4.5233,-4.5857,-4.5886,-4.589,-4.5935,-4.6041,-4.6166,-4.6225,-4.6225,-4.6225,-4.6225,-4.6225,-4.6225,-4.6225,-4.6225,-4.6249,-4.6269,-4.6269,-4.6289,-4.6289,-4.6269,-4.6298,-4.6286,-4.6264,-4.6286,-4.6308,-4.6308,-4.6308,-4.6308,-4.6308,-4.6308,-4.6308,-4.6308,-4.6308,-4.6308,-3.1796,-3.1099,-3.0556,-3.0197,-2.992,-2.977,-3.0116,-2.9829,-2.9488,-2.9761,-3.0325,-3.0711,-3.0187,-3.0441,-3.0949,-3.1582,-3.1211,-3.1256,-3.2394,-3.2544,-3.2879,-3.375,-3.4007,0.0,0.0,0.0,0.0,0.0,-3.3015,-3.2488,-3.1382,-3.1174,-3.057,-2.9368,-2.9291,-2.9395,-2.9607,-2.9643,-2.9266,-2.8532,-2.839,-2.8686,-2.9392,-2.9355,-2.9305,-2.9305,-2.9305,-2.925,-2.9265,-3.0489,-3.0468,-2.9823,-3.1052,-3.1064,-3.0398,-3.0533,-3.0571,-3.0717,-3.1698,-3.1968,-3.216,-3.3891,-3.4474,-3.4839,-3.6627,-3.7838,-3.8789,-3.9648,-4.0527,-4.116,-4.1059,-4.1017,-4.0966,-4.085,-4.2236,-4.3601,-4.3576,-4.4277,-4.5103,-4.5767,-4.5899,-4.5907,-4.5927,-4.594,-4.594,-4.594,-4.594,-4.594,-4.594,-4.594,-4.594,-4.594,-4.6053,-4.6133,-4.6133,-4.623,-4.625,-4.6133,-4.6245,-4.6242,-4.6124,-4.6245,-4.6308,-4.6308,-4.6308,-4.6308,-4.6308,-4.6308,-4.6308,-4.6308,-4.6308,-4.6308,-3.1883,-3.166,-3.1369,-3.085,-3.1069,-3.1196,-3.0467,-3.0905,-3.133,-3.0757,-3.104,-3.1042,-2.9911,-3.0175,-3.0728,-3.135,-3.0872,-3.0863,-3.2164,-3.1976,-3.1982,-3.2734,-3.3032,0.0,0.0,0.0,0.0,0.0,-3.3214,-3.2871,-3.2111,-3.1795,-3.1139,-3.0099,-2.9738,-2.9607,-2.9696,-2.9813,-2.9753,-2.9508,-2.8676,-2.8726,-2.9551,-2.9163,-2.8994,-2.9012,-2.9494,-2.9439,-2.9118,-3.0413,-3.0449,-2.9786,-3.0636,-3.0737,-3.0398,-3.0398,-3.0398,-3.0513,-3.141,-3.1391,-3.1352,-3.3564,-3.4052,-3.4197,-3.6505,-3.7506,-3.8164,-3.9512,-4.0176,-4.0552,-4.0913,-4.0927,-4.085,-4.0773,-4.1274,-4.2052,-4.3007,-4.433,-4.5393,-4.568,-4.5796,-4.5828,-4.5838,-4.5886,-4.5905,-4.5905,-4.5905,-4.5905,-4.5905,-4.5905,-4.5905,-4.5905,-4.5953,-4.5985,-4.5991,-4.6104,-4.6152,-4.6094,-4.623,-4.6278,-4.6201,-4.6273,-4.6308,-4.6308,-4.6308,-4.6308,-4.6308,-4.6308,-4.6308,-4.6308,-4.6308,-4.6308,-3.2309,-3.2399,-3.2288,-3.1812,-3.214,-3.2299,-3.1229,-3.1956,-3.2558,-3.1637,-3.1338,-3.0889,-2.9623,-2.9729,-3.0251,-3.0874,-3.0497,-3.0554,-3.1641,-3.1449,-3.1351,-3.1752,-3.2092,0.0,0.0,0.0,0.0,0.0,-3.3014,-3.29,-3.2625,-3.2098,-3.1464,-3.0706,-3.0094,-2.9815,-2.988,-2.9808,-2.9979,-3.0379,-2.9117,-2.895,-2.9763,-2.9357,-2.9185,-2.9218,-2.9986,-2.9876,-2.9299,-3.0942,-3.0915,-2.9869,-3.072,-3.0794,-3.0398,-3.0398,-3.0398,-3.0494,-3.1141,-3.0948,-3.0794,-3.3231,-3.3655,-3.3699,-3.6406,-3.7414,-3.7949,-3.9473,-4.0059,-4.0357,-4.0875,-4.0927,-4.0831,-4.0754,-4.0812,-4.1312,-4.2777,-4.4489,-4.5719,-4.5605,-4.568,-4.5757,-4.5757,-4.5796,-4.5815,-4.5815,-4.5815,-4.5815,-4.5815,-4.5815,-4.5815,-4.5815,-4.5853,-4.587,-4.5875,-4.6001,-4.6092,-4.6094,-4.623,-4.6308,-4.6308,-4.6308,-4.6308,-4.6308,-4.6308,-4.6308,-4.6308,-4.6308,-4.6308,-4.6308,-4.6308,-4.6308,-3.3244,-3.3226,-3.3025,-3.303,-3.2833,-3.2667,-3.2929,-3.2514,-3.2202,-3.2391,-3.1407,-3.0372,-2.9689,-2.9116,-2.8927,-2.9496,-2.9517,-2.9677,-3.03,-3.0855,-3.1351,-3.1752,-3.1825,0.0,0.0,0.0,0.0,0.0,-3.255,-3.2563,-3.2598,-3.2098,-3.153,-3.0904,-3.0295,-3.0109,-3.0355,-2.9552,-2.9571,-3.0379,-2.9314,-2.9198,-2.9984,-2.9763,-2.9661,-2.9698,-3.0317,-3.0224,-2.9885,-3.2545,-3.2206,-3.0166,-3.2039,-3.1795,-3.0398,-3.0398,-3.0398,-3.0398,-3.0436,-3.0436,-3.0717,-3.2632,-3.3228,-3.3701,-3.6456,-3.7871,-3.8711,-3.9648,-4.0508,-4.1119,-4.1029,-4.0985,-4.0947,-4.0831,-4.1424,-4.2229,-4.2931,-4.4412,-4.5605,-4.5586,-4.5605,-4.5605,-4.5605,-4.5605,-4.5605,-4.5605,-4.5605,-4.5605,-4.5605,-4.5605,-4.5605,-4.5605,-4.5738,-4.5796,-4.5811,-4.5982,-4.6104,-4.6093,-4.623,-4.6308,-4.6308,-4.6308,-4.6308,-4.6308,-4.6308,-4.6308,-4.6308,-4.6308,-4.6308,-4.6308,-4.6308,-4.6308,-3.2691,-3.3089,-3.3289,-3.3165,-3.381,-3.4249,-3.3278,-3.3033,-3.2907,-3.2587,-3.1435,-3.0313,-2.9699,-2.9041,-2.865,-2.8814,-2.958,-3.0335,-3.0925,-3.1524,-3.2253,-3.3149,-3.2844,0.0,0.0,0.0,0.0,0.0,0.0,-3.3069,-3.3358,-3.2482,-3.1899,-3.1695,-3.0757,-3.0311,-3.0398,-2.9544,-2.9544,-3.0379,-2.9314,-2.9232,-2.9999,-2.9844,-2.9848,-3.0056,-3.0901,-3.0678,-2.9908,-3.1618,-3.1459,-3.0205,-3.1034,-3.0968,-3.0398,-3.0398,-3.0398,-3.0398,-3.0398,-3.0398,-3.0698,-3.2543,-3.3131,-3.3654,-3.6399,-3.7441,-3.8008,-3.9492,-4.0117,-4.0467,-4.0881,-4.1007,-4.0964,-4.0828,-4.1886,-4.3003,-4.3244,-4.4578,-4.5738,-4.5738,-4.5643,-4.5586,-4.5586,-4.5586,-4.5586,-4.5586,-4.5586,-4.5586,-4.5586,-4.5586,-4.5586,-4.5586,-4.5624,-4.568,-4.568,-4.5815,-4.5935,-4.5969,-4.6104,-4.6211,-4.6308,-4.6308,-4.6308,-4.6308,-4.6308,-4.6308,-4.6308,-4.6308,-4.6308,-4.6308,-4.6308,-4.6308,-3.2662,-3.3155,-3.3466,-3.3314,-3.4026,-3.4509,-3.3176,-3.3022,-3.2976,-3.2317,-3.1285,-3.0372,-2.9968,-2.937,-2.8854,-2.8564,-2.9627,-3.0741,-3.1348,-3.2133,-3.2954,-3.3757,-3.3441,0.0,0.0,0.0,0.0,0.0,0.0,0.0,-3.4334,-3.3197,-3.2373,-3.2022,-3.0981,-3.0448,-3.0467,-2.989,-2.989,-3.0467,-2.9743,-2.9691,-3.0194,-3.0102,-3.0179,-3.0362,-3.0999,-3.0817,-3.017,-3.1512,-3.1365,-3.033,-3.0777,-3.0898,-3.0814,-3.0513,-3.0602,-3.0794,-3.0494,-3.059,-3.1083,-3.2596,-3.3481,-3.4274,-3.6137,-3.7326,-3.8223,-3.9141,-3.9844,-4.0449,-4.0937,-4.1077,-4.1042,-4.0964,-4.202,-4.3133,-4.3444,-4.4703,-4.5816,-4.5794,-4.5699,-4.5586,-4.5586,-4.5355,-4.5259,-4.5547,-4.5336,-4.5259,-4.5547,-4.5586,-4.5586,-4.5586,-4.5586,-4.5586,-4.5586,-4.5719,-4.5835,-4.591,-4.603,-4.6152,-4.6289,-4.6308,-4.6308,-4.6308,-4.6308,-4.6308,-4.6308,-4.6308,-4.6308,-4.6308,-4.6308,-4.6308,0.0,0.0,0.0,-3.3469,-3.3484,-3.332,-3.2691,-3.2542,-3.2362,-3.1704,-3.1031,-3.0552,-3.0507,-3.0013,-2.94,-2.8757,-2.9697,-3.0749,-3.1454,-3.2602,-3.3423,-3.3474,-3.3457,0.0,0.0,0.0,0.0,0.0,-3.4888,-3.4746,-3.5479,-3.4151,-3.2878,-3.1827,-3.0956,-3.0525,-3.0556,-3.0556,-3.0556,-3.0537,-3.0537,-3.0537,-3.0556,-3.0568,-3.0578,-3.0598,-3.0597,-3.0593,-3.0739,-3.2435,-3.2084,-3.0599,-3.1441,-3.1725,-3.1564,-3.0717,-3.0948,-3.1545,-3.0698,-3.0968,-3.1852,-3.2788,-3.4231,-3.5622,-3.5718,-3.7595,-3.9511,-3.8672,-3.9766,-4.1191,-4.1191,-4.1191,-4.1191,-4.1191,-4.1835,-4.2665,-4.3514,-4.4802,-4.579,-4.5789,-4.5699,-4.5586,-4.5586,-4.4893,-4.4624,-4.547,-4.4874,-4.4643,-4.549,-4.5586,-4.5586,-4.5586,-4.5586,-4.5586,-4.5605,-4.5738,-4.5834,-4.5911,-4.6027,-4.6152,-4.6289,-4.6308,-4.6308,-4.6308,-4.6308,-4.6308,-4.6308,-4.6308,-4.6308,-4.6308,-4.6308,-4.6308,-3.2665,0.0,0.0,0.0,0.0,0.0,-3.326,-3.3215,-3.3036,-3.2377,-3.2093,-3.1659,-3.0687,-3.0357,-3.0193,-2.9998,-3.0694,-3.147,-3.2191,-3.2916,-3.3812,-3.4878,-3.4873,0.0,0.0,0.0,0.0,0.0,-3.5551,-3.5284,-3.5504,-3.3751,-3.247,-3.1827,-3.0956,-3.0229,-2.9664,-2.9664,-2.9365,-2.8795,-2.8795,-2.9094,-2.9671,-2.9654,-2.9994,-3.0598,-3.0604,-3.0628,-3.0717,-3.119,-3.1067,-3.06,-3.0837,-3.0871,-3.0737,-3.0494,-3.0552,-3.0737,-3.0475,-3.0968,-3.1833,-3.2679,-3.4122,-3.5647,-3.6363,-3.7996,-3.9593,-3.9385,-4.0234,-4.1191,-4.1191,-4.1191,-4.1191,-4.1191,-4.2301,-4.3387,-4.3583,-4.482,-4.5867,-4.5863,-4.5719,-4.5586,-4.5586,-4.5393,-4.5316,-4.5547,-4.5393,-4.5316,-4.5566,-4.5586,-4.5586,-4.5586,-4.5586,-4.5624,-4.5738,-4.5776,-4.5873,-4.6026,-4.6076,-4.6152,-4.6289,-4.6308,-4.6308,-4.6308,-4.6308,-4.6308,-4.6308,-4.6308,-4.6308,-4.6308,-4.6308,-4.6308,-3.2879,-3.2755,-3.2528,-3.2528,0.0,0.0,-3.2677,-3.2677,-3.2557,0.0,-3.2108,-3.1869,-3.1076,-3.0941,-3.1039,-3.1359,-3.169,-3.2174,-3.2928,-3.3956,-3.4968,-3.5839,0.0,0.0,0.0,-3.7019,-3.7289,-3.7442,-3.6872,-3.6315,-3.5854,-3.3817,-3.2579,-3.2378,-3.1195,-3.0358,-2.9978,-2.957,-2.9162,-2.8727,-2.8337,-2.859,-2.9416,-2.9394,-2.9835,-3.0633,-3.0579,-3.0617,-3.0675,-3.0283,-3.031,-3.0568,-3.02,-3.0417,-3.091,-3.0533,-3.0641,-3.0891,-3.0533,-3.1198,-3.2275,-3.2756,-3.4314,-3.6089,-3.6652,-3.8118,-3.9599,-3.9638,-4.0404,-4.1191,-4.1191,-4.1191,-4.1191,-4.1191,-4.1905,-4.2661,-4.3003,-4.3708,-4.4583,-4.5654,-4.5719,-4.5586,-4.5586,-4.5297,-4.5182,-4.5547,-4.5353,-4.5276,-4.5642,-4.5719,-4.5738,-4.5738,-4.5738,-4.5757,-4.5834,-4.5843,-4.5931,-4.6082,-4.6103,-4.6169,-4.6289,-4.6308,-4.6308,-4.6308,-4.6308,-4.6308,-4.6308,-4.6308,-4.6308,-4.6308,-4.6308,-4.6308,-3.3684,-3.3198,-3.2586,-3.2586,-3.2064,0.0,-3.1482,-3.1468,-3.144,0.0,-3.1337,-3.1367,-3.1351,-3.1409,-3.1724,-3.2492,-3.2792,-3.3158,-3.374,-3.5206,-3.6329,-3.6481,0.0,0.0,-3.7859,-3.7995,-3.8319,-3.9072,-3.8338,-3.7412,-3.64,-3.4141,-3.2987,-3.3173,-3.1482,-3.0579,-3.0585,-2.9758,-2.9324,-2.9292,-2.8456,-2.8555,-2.9453,-2.9497,-2.9877,-3.0544,-3.0506,-3.0564,-3.0606,-2.9589,-2.9664,-3.0393,-2.958,-3.0138,-3.1352,-3.0732,-3.0943,-3.1468,-3.0891,-3.166,-3.2929,-3.3026,-3.4718,-3.6738,-3.6738,-3.807,-3.9634,-3.9743,-4.0464,-4.1191,-4.1191,-4.1191,-4.1191,-4.1187,-4.1226,-4.1466,-4.2133,-4.229,-4.297,-4.5218,-4.5565,-4.549,-4.5586,-4.497,-4.472,-4.5509,-4.5084,-4.4927,-4.5709,-4.5863,-4.5902,-4.5902,-4.5902,-4.5905,-4.5911,-4.5919,-4.5972,-4.6113,-4.6117,-4.618,-4.6308,-4.6308,-4.6308,-4.6308,-4.6308,-4.6308,-4.6308,-4.6308,-4.6308,-4.6308,-4.6308,-4.6308,-3.4284,-3.3547,-3.2586,-3.2586,-3.2064,0.0,-3.1482,-3.1337,-3.1105,0.0,-3.0411,-3.0347,-3.0476,-3.0999,-3.1618,-3.2461,-3.4413,-3.5635,-3.5136,-3.5335,-3.5924,-3.6911,0.0,0.0,-3.7893,-3.8505,-3.8943,-3.9099,-3.8143,-3.7299,-3.6665,-3.4249,-3.2929,-3.3038,-3.1399,-2.992,-2.8657,-2.8457,-2.8049,-2.742,-2.724,-2.7656,-2.8574,-2.921,-2.953,-2.9605,-3.0225,-3.0544,-3.0502,-2.8914,-2.8805,-2.9608,-2.9205,-2.9275,-2.9725,-3.0757,-3.0931,-3.0833,-3.2006,-3.2711,-3.3173,-3.3827,-3.5347,-3.6939,-3.6939,-3.8234,-3.9849,-4.066,-4.1034,-4.1191,-4.1191,-4.1191,-4.116,-4.1071,-4.2097,-4.2898,-4.22,-4.3181,-4.4297,-4.468,-4.466,-4.4797,-4.5622,-4.5622,-4.5584,-4.5815,-4.5719,-4.5696,-4.5859,-4.588,-4.5899,-4.5899,-4.5899,-4.5944,-4.6042,-4.6053,-4.6131,-4.6253,-4.6264,-4.6276,-4.6308,-4.6308,-4.6308,-4.6308,-4.6308,-4.6308,-4.6308,-4.6308,-4.6308,-4.6308,-4.6308,-4.6308,-3.5005,-3.4333,-3.3451,-3.2756,-3.2323,0.0,0.0,-3.1204,-3.1263,-3.0969,-3.0831,-3.0765,-3.0895,-3.1477,-3.218,-3.2971,-3.4725,-3.6076,-3.6288,-3.6833,-3.7287,-3.7506,-3.7998,0.0,-3.8475,-3.8859,-3.9238,-3.9576,-3.8461,-3.7616,-3.7358,-3.4526,-3.2891,-3.2852,-3.1322,-3.0085,-2.9209,-2.8896,-2.8565,-2.8184,-2.7751,-2.8023,-2.8902,-2.9242,-2.957,-2.9925,-3.0283,-3.0506,-3.0463,-2.872,-2.8462,-2.9143,-2.8536,-2.8879,-2.9867,-3.0925,-3.1191,-3.1237,-3.2557,-3.3038,-3.3229,-3.4119,-3.5301,-3.6434,-3.6871,-3.8234,-3.9851,-4.0839,-4.1045,-4.0996,-4.0996,-4.0996,-4.0983,-4.0916,-4.1567,-4.2165,-4.2063,-4.2428,-4.3111,-4.435,-4.4182,-4.4272,-4.5618,-4.5858,-4.5854,-4.5893,-4.5947,-4.5995,-4.5996,-4.6068,-4.6108,-4.6108,-4.6108,-4.6123,-4.618,-4.6191,-4.6242,-4.6308,-4.6308,-4.6308,-4.6308,-4.6308,-4.6308,-4.6308,-4.6308,-4.6308,-4.6308,-4.6308,-4.6308,-4.6308,-4.6308,-4.6308,-3.5622,-3.5098,-3.43,-3.3078,-3.2683,-3.2283,0.0,0.0,0.0,-3.1278,-3.1248,-3.1233,-3.1437,-3.217,0.0,-3.3804,0.0,0.0,0.0,-3.8617,0.0,-3.8174,-3.8433,0.0,-3.9072,-3.9212,-3.9477,-3.991,-3.8741,-3.793,-3.7757,-3.4834,-3.3018,-3.2749,-3.1418,-3.0525,-3.009,-2.9605,-2.941,-2.9474,-2.8768,-2.8783,-2.9464,-2.9485,-2.9767,-3.0244,-3.0323,-3.0451,-3.0494,-2.8876,-2.8552,-2.8966,-2.7941,-2.8593,-3.0203,-3.113,-3.1585,-3.1903,-3.3154,-3.3493,-3.3535,-3.4473,-3.5224,-3.5917,-3.6771,-3.8017,-3.9335,-4.0235,-4.052,-4.0577,-4.0577,-4.0674,-4.0791,-4.0771,-4.0926,-4.1197,-4.169,-4.1408,-4.1759,-4.4014,-4.3919,-4.3986,-4.5651,-4.5924,-4.594,-4.5967,-4.6072,-4.6129,-4.6129,-4.6228,-4.6308,-4.6308,-4.6308,-4.6308,-4.6308,-4.6308,-4.6308,-4.6308,-4.6308,-4.6308,-4.6308,-4.6308,-4.6308,-4.6308,-4.6308,-4.6308,-4.6308,-4.6308,-4.6308,-4.6308,-4.6308,-4.6308,-3.5622,-3.5098,-3.4414,-3.3689,-3.3029,-3.2367,-3.1592,0.0,-3.045,-3.045,0.0,-3.0425,-3.12,0.0,0.0,0.0,0.0,0.0,-3.7953,-3.9845,-4.0644,-3.8823,-3.8658,0.0,0.0,-3.9645,-3.9834,-3.9423,-3.8531,-3.7661,-3.6892,-3.5064,-3.3686,-3.2904,-3.2013,-3.0833,-2.9344,-2.9267,-2.9295,-2.9414,-2.9316,-2.9281,-2.935,-2.9914,-2.9865,-2.9382,-2.998,-3.0366,-3.0532,-2.9425,-2.9117,-2.921,-2.7865,-2.7997,-2.9246,-3.1324,-3.1974,-3.2127,-3.4501,-3.4944,-3.4569,-3.547,-3.5838,-3.6118,-3.6938,-3.7327,-3.7632,-3.8387,-3.9153,-3.9726,-3.9726,-4.026,-4.0776,-4.0718,-4.1347,-4.1723,-4.0854,-4.1437,-4.2414,-4.3354,-4.36,-4.4181,-4.5803,-4.6078,-4.6119,-4.6234,-4.6264,-4.628,-4.628,-4.6287,-4.6308,-4.6308,-4.6308,-4.6308,-4.6308,-4.6308,-4.6308,-4.6308,-4.6308,-4.6308,-4.6308,-4.6308,-4.6308,-4.6308,-4.6308,-4.6308,-4.6308,-4.6308,-4.6308,-4.6308,-4.6308,-4.6308,-3.5622,-3.5407,-3.4951,-3.3858,0.0,0.0,-3.2363,0.0,-3.2204,0.0,0.0,0.0,0.0,0.0,0.0,0.0,-3.7206,0.0,0.0,0.0,-3.9863,0.0,0.0,0.0,0.0,0.0,0.0,0.0,-3.82,-3.7623,-3.6757,-3.5103,-3.3991,-3.3555,-3.2384,-3.1379,-3.0605,-3.0203,-3.0046,-3.0097,-3.0107,-3.0006,-2.9821,-3.0098,-3.0034,-2.9677,-3.0041,-3.033,-3.0464,-2.9535,-2.9458,-2.9813,-2.8679,-2.884,-2.996,-3.18,-3.2531,-3.2858,-3.5039,-3.5252,-3.4743,-3.5611,-3.5925,-3.6071,-3.6842,-3.7054,-3.7194,-3.8003,-3.8796,-3.9431,-3.9431,-4.0027,-4.062,-4.06,-4.0969,-4.1358,-4.1432,-4.1923,-4.2594,-4.3421,-4.405,-4.4664,-4.5338,-4.5877,-4.6234,-4.6288,-4.6308,-4.6308,-4.6308,-4.6308,-4.6308,-4.6308,-4.6308,-4.6308,-4.6308,-4.6308,-4.6308,-4.6308,-4.6308,-4.6308,-4.6308,-4.6308,-4.6308,-4.6308,-4.6308,-4.6308,-4.6308,-4.6222,-4.6173,-4.6183,-4.6267,-4.6308,-3.5368,0.0,0.0,0.0,0.0,0.0,0.0,0.0,0.0,0.0,0.0,0.0,0.0,0.0,-3.6056,-3.622,0.0,-3.8564,0.0,-3.9309,0.0,0.0,0.0,0.0,0.0,0.0,0.0,-3.8104,-3.7777,-3.7276,-3.6449,-3.5238,-3.4457,-3.4159,-3.2872,-3.2135,-3.2032,-3.1075,-3.0718,-3.0934,-3.0694,-3.0459,-3.0257,-3.0117,-3.0072,-3.0109,-3.0102,-3.0251,-3.0486,-2.9838,-3.0056,-3.07,-2.9991,-3.0306,-3.13,-3.2344,-3.3053,-3.3718,-3.5309,-3.5283,-3.468,-3.5311,-3.5528,-3.5643,-3.6387,-3.6574,-3.6666,-3.7291,-3.8176,-3.8931,-3.8931,-3.9719,-4.0508,-4.0562,-4.0677,-4.0974,-4.1615,-4.1917,-4.2322,-4.3151,-4.3836,-4.4433,-4.4922,-4.5723,-4.6308,-4.6308,-4.6308,-4.6308,-4.6308,-4.6308,-4.6308,-4.6308,-4.6308,-4.6308,-4.6308,-4.6308,-4.6308,-4.6308,-4.6308,-4.6308,-4.6308,-4.6308,-4.6308,-4.6308,-4.6308,-4.6308,-4.6308,-4.6174,-4.6103,-4.6082,-4.6201,-4.625,0.0,0.0,0.0,-3.3677,0.0,0.0,0.0,0.0,-3.3738,0.0,0.0,0.0,-3.5956,-3.6854,-3.769,-3.8222,-3.9272,0.0,0.0,-4.0523,-4.0815,-3.9717,0.0,0.0,0.0,0.0,-3.8969,-3.8065,-3.7219,-3.643,-3.568,-3.5584,-3.5224,-3.4524,-3.3616,-3.3156,-3.3144,-3.1445,-3.1001,-3.1749,-3.091,-3.0456,-3.0386,-2.9931,-2.9962,-3.0374,-2.999,-3.0095,-3.0598,-3.0577,-3.1096,-3.195,-3.1833,-3.2337,-3.3089,-3.2881,-3.3536,-3.4665,-3.5438,-3.5183,-3.451,-3.4549,-3.4536,-3.4691,-3.5411,-3.5641,-3.5641,-3.5603,-3.6776,-3.8046,-3.8046,-3.9258,-4.0543,-4.0658,-4.0754,-4.08,-4.0848,-4.1055,-4.1456,-4.2195,-4.2415,-4.3027,-4.4707,-4.5723,-4.6308,-4.6308,-4.6308,-4.6308,-4.6308,-4.6308,-4.6308,-4.6308,-4.6308,-4.6308,-4.6308,-4.6308,-4.6308,-4.6308,-4.6308,-4.6308,-4.6308,-4.6308,-4.6308,-4.6308,-4.6308,-4.6308,-4.6308,-4.6174,-4.6103,-4.6082,-4.6103,-4.6113,0.0,0.0,-3.4327,-3.3604,0.0,0.0,0.0,0.0,0.0,0.0,0.0,0.0,0.0,-3.7657,-3.823,-3.8608,-3.9279,-3.9816,0.0,-4.0424,-4.0628,-4.0232,-4.0302,-4.0145,0.0,0.0,0.0,-3.7219,-3.6411,-3.5872,-3.5622,-3.5637,-3.559,-3.543,-3.4583,-3.3864,-3.334,-3.2123,-3.1361,-3.1064,-3.0102,-2.9563,-2.9379,-2.8602,-2.836,-2.8569,-2.9051,-2.9448,-2.9833,-3.1026,-3.1705,-3.2054,-3.2608,-3.3386,-3.4186,-3.4048,-3.3866,-3.3793,-3.4622,-3.4718,-3.4573,-3.5082,-3.5219,-3.5262,-3.5455,-3.5545,-3.5641,-3.6161,-3.7123,-3.8142,-3.8772,-3.9773,-4.0658,-4.0735,-4.085,-4.0935,-4.0932,-4.1487,-4.1911,-4.1627,-4.2954,-4.4121,-4.4141,-4.5332,-4.6308,-4.6308,-4.6308,-4.6308,-4.6308,-4.6308,-4.6308,-4.6308,-4.6308,-4.6308,-4.6308,-4.6308,-4.6308,-4.6308,-4.6308,-4.6308,-4.6308,-4.6308,-4.6308,-4.6308,-4.6308,-4.6308,-4.6308,-4.6175,-4.6105,-4.6102,-4.6093,-4.6103,-3.3339,-3.3355,0.0,-3.3119,-3.3355,0.0,-3.4049,0.0,-3.5042,0.0,0.0,0.0,0.0,-3.8607,-3.9055,-3.9226,-3.964,-3.9984,0.0,-4.0389,-4.0489,-4.0489,-4.0489,-4.0296,-3.9777,-3.895,-3.8104,-3.7262,-3.6493,-3.5968,0.0,0.0,-3.5814,-3.592,-3.5096,-3.438,-3.3828,-3.2602,-3.1554,-3.0656,-2.968,-2.9023,-2.8582,-2.7891,-2.7644,-2.7815,-2.8637,-2.914,-2.9482,-3.094,-3.1753,-3.2148,-3.2981,-3.3854,-3.466,-3.4612,-3.4366,-3.4084,-3.4353,-3.441,-3.4475,-3.4962,-3.5103,-3.5161,-3.543,-3.5493,-3.568,-3.6469,-3.7334,-3.8142,-3.8772,-3.9811,-4.0658,-4.045,-4.0716,-4.1003,-4.105,-4.1544,-4.1894,-4.168,-4.2949,-4.4004,-4.373,-4.4883,-4.5937,-4.625,-4.6308,-4.6284,-4.6234,-4.6222,-4.6221,-4.623,-4.623,-4.625,-4.6308,-4.6308,-4.6308,-4.6308,-4.6308,-4.6308,-4.6308,-4.6308,-4.6308,-4.6308,-4.6308,-4.6308,-4.6308,-4.6172,-4.6111,-4.6103,-4.6103,-4.6093]}]]